<?xml version="1.0" encoding="UTF-8" standalone="no" ?>
<gpx xmlns="http://www.topografix.com/GPX/1/1" xmlns:xsi="http://www.w3.org/2001/XMLSchema-instance" xsi:schemaLocation="http://www.topografix.com/GPX/1/1 http://www.topografix.com/GPX/1/1/gpx.xsd" version="1.1" creator="VisuGPX - https://www.visugpx.com">
  <metadata>
    <name>Les rochers de la Croix de Fer - Mérindol</name>
    <desc><![CDATA[Les rochers de la Croix de Fer, par le chemin des Vaudois et la Combe de l\'Euse]]></desc>
  </metadata>
  <trk>
    <name><![CDATA[MERINDOL4 16:48:07]]></name>
    <trkseg>
      <trkpt lat="43.75407" lon="5.20253">
        <ele>151.06</ele>
        <time>2014-05-15T07:58:56Z</time>
      </trkpt>
      <trkpt lat="43.75408" lon="5.20256">
        <ele>151.54</ele>
        <time>2014-05-15T07:59:00Z</time>
      </trkpt>
      <trkpt lat="43.75415" lon="5.20273">
        <ele>151.54</ele>
        <time>2014-05-15T07:59:17Z</time>
      </trkpt>
      <trkpt lat="43.7542" lon="5.20285">
        <ele>151.54</ele>
        <time>2014-05-15T07:59:28Z</time>
      </trkpt>
      <trkpt lat="43.75429" lon="5.20295">
        <ele>152.03</ele>
        <time>2014-05-15T07:59:43Z</time>
      </trkpt>
      <trkpt lat="43.75434" lon="5.20296">
        <ele>152.51</ele>
        <time>2014-05-15T07:59:48Z</time>
      </trkpt>
      <trkpt lat="43.7545" lon="5.20298">
        <ele>153.47</ele>
        <time>2014-05-15T08:00:04Z</time>
      </trkpt>
      <trkpt lat="43.75461" lon="5.20301">
        <ele>154.43</ele>
        <time>2014-05-15T08:00:19Z</time>
      </trkpt>
      <trkpt lat="43.75472" lon="5.20303">
        <ele>155.39</ele>
        <time>2014-05-15T08:00:36Z</time>
      </trkpt>
      <trkpt lat="43.75485" lon="5.20303">
        <ele>156.35</ele>
        <time>2014-05-15T08:00:49Z</time>
      </trkpt>
      <trkpt lat="43.7551" lon="5.20301">
        <ele>157.31</ele>
        <time>2014-05-15T08:01:06Z</time>
      </trkpt>
      <trkpt lat="43.7553" lon="5.2029">
        <ele>158.27</ele>
        <time>2014-05-15T08:01:22Z</time>
      </trkpt>
      <trkpt lat="43.75544" lon="5.20284">
        <ele>159.24</ele>
        <time>2014-05-15T08:01:39Z</time>
      </trkpt>
      <trkpt lat="43.75554" lon="5.20275">
        <ele>159.72</ele>
        <time>2014-05-15T08:01:51Z</time>
      </trkpt>
      <trkpt lat="43.75567" lon="5.2026">
        <ele>160.68</ele>
        <time>2014-05-15T08:02:07Z</time>
      </trkpt>
      <trkpt lat="43.75578" lon="5.20255">
        <ele>161.16</ele>
        <time>2014-05-15T08:02:17Z</time>
      </trkpt>
      <trkpt lat="43.75585" lon="5.20251">
        <ele>162.12</ele>
        <time>2014-05-15T08:02:33Z</time>
      </trkpt>
      <trkpt lat="43.75605" lon="5.20239">
        <ele>164.04</ele>
        <time>2014-05-15T08:02:54Z</time>
      </trkpt>
      <trkpt lat="43.75608" lon="5.20223">
        <ele>165.48</ele>
        <time>2014-05-15T08:03:10Z</time>
      </trkpt>
      <trkpt lat="43.75609" lon="5.20196">
        <ele>166.45</ele>
        <time>2014-05-15T08:03:27Z</time>
      </trkpt>
      <trkpt lat="43.75615" lon="5.20174">
        <ele>166.45</ele>
        <time>2014-05-15T08:03:42Z</time>
      </trkpt>
      <trkpt lat="43.75618" lon="5.20169">
        <ele>166.45</ele>
        <time>2014-05-15T08:03:47Z</time>
      </trkpt>
      <trkpt lat="43.75625" lon="5.20154">
        <ele>167.41</ele>
        <time>2014-05-15T08:04:00Z</time>
      </trkpt>
      <trkpt lat="43.75628" lon="5.20144">
        <ele>167.41</ele>
        <time>2014-05-15T08:04:08Z</time>
      </trkpt>
      <trkpt lat="43.75629" lon="5.20126">
        <ele>167.89</ele>
        <time>2014-05-15T08:04:19Z</time>
      </trkpt>
      <trkpt lat="43.7563" lon="5.20105">
        <ele>168.37</ele>
        <time>2014-05-15T08:04:32Z</time>
      </trkpt>
      <trkpt lat="43.75631" lon="5.20098">
        <ele>168.85</ele>
        <time>2014-05-15T08:04:38Z</time>
      </trkpt>
      <trkpt lat="43.75632" lon="5.20091">
        <ele>169.33</ele>
        <time>2014-05-15T08:04:43Z</time>
      </trkpt>
      <trkpt lat="43.75633" lon="5.20079">
        <ele>170.29</ele>
        <time>2014-05-15T08:04:56Z</time>
      </trkpt>
      <trkpt lat="43.75637" lon="5.20075">
        <ele>170.77</ele>
        <time>2014-05-15T08:05:11Z</time>
      </trkpt>
      <trkpt lat="43.75638" lon="5.20075">
        <ele>170.77</ele>
        <time>2014-05-15T08:05:24Z</time>
      </trkpt>
      <trkpt lat="43.75643" lon="5.20074">
        <ele>171.73</ele>
        <time>2014-05-15T08:05:40Z</time>
      </trkpt>
      <trkpt lat="43.7564" lon="5.20074">
        <ele>170.77</ele>
        <time>2014-05-15T08:05:56Z</time>
      </trkpt>
      <trkpt lat="43.75639" lon="5.20075">
        <ele>170.77</ele>
        <time>2014-05-15T08:06:19Z</time>
      </trkpt>
      <trkpt lat="43.75639" lon="5.20075">
        <ele>171.25</ele>
        <time>2014-05-15T08:06:31Z</time>
      </trkpt>
      <trkpt lat="43.75639" lon="5.20075">
        <ele>171.25</ele>
        <time>2014-05-15T08:06:48Z</time>
      </trkpt>
      <trkpt lat="43.75639" lon="5.20075">
        <ele>170.29</ele>
        <time>2014-05-15T08:07:15Z</time>
      </trkpt>
      <trkpt lat="43.75645" lon="5.20076">
        <ele>171.25</ele>
        <time>2014-05-15T08:07:35Z</time>
      </trkpt>
      <trkpt lat="43.7565" lon="5.20077">
        <ele>171.73</ele>
        <time>2014-05-15T08:07:41Z</time>
      </trkpt>
      <trkpt lat="43.75655" lon="5.20078">
        <ele>172.69</ele>
        <time>2014-05-15T08:07:46Z</time>
      </trkpt>
      <trkpt lat="43.7567" lon="5.20084">
        <ele>175.1</ele>
        <time>2014-05-15T08:08:04Z</time>
      </trkpt>
      <trkpt lat="43.75677" lon="5.2009">
        <ele>177.02</ele>
        <time>2014-05-15T08:08:15Z</time>
      </trkpt>
      <trkpt lat="43.75679" lon="5.20091">
        <ele>177.98</ele>
        <time>2014-05-15T08:08:17Z</time>
      </trkpt>
      <trkpt lat="43.75694" lon="5.20089">
        <ele>179.9</ele>
        <time>2014-05-15T08:08:32Z</time>
      </trkpt>
      <trkpt lat="43.75707" lon="5.20081">
        <ele>182.79</ele>
        <time>2014-05-15T08:08:51Z</time>
      </trkpt>
      <trkpt lat="43.75721" lon="5.20079">
        <ele>185.19</ele>
        <time>2014-05-15T08:09:08Z</time>
      </trkpt>
      <trkpt lat="43.75734" lon="5.20081">
        <ele>187.59</ele>
        <time>2014-05-15T08:09:26Z</time>
      </trkpt>
      <trkpt lat="43.75746" lon="5.20071">
        <ele>190.96</ele>
        <time>2014-05-15T08:09:43Z</time>
      </trkpt>
      <trkpt lat="43.75755" lon="5.20057">
        <ele>192.88</ele>
        <time>2014-05-15T08:09:57Z</time>
      </trkpt>
      <trkpt lat="43.75761" lon="5.20043">
        <ele>195.77</ele>
        <time>2014-05-15T08:10:13Z</time>
      </trkpt>
      <trkpt lat="43.75762" lon="5.20042">
        <ele>195.77</ele>
        <time>2014-05-15T08:10:14Z</time>
      </trkpt>
      <trkpt lat="43.75772" lon="5.20031">
        <ele>198.65</ele>
        <time>2014-05-15T08:10:30Z</time>
      </trkpt>
      <trkpt lat="43.75782" lon="5.20032">
        <ele>200.57</ele>
        <time>2014-05-15T08:10:44Z</time>
      </trkpt>
      <trkpt lat="43.75792" lon="5.2003">
        <ele>202.49</ele>
        <time>2014-05-15T08:10:58Z</time>
      </trkpt>
      <trkpt lat="43.75802" lon="5.20024">
        <ele>204.42</ele>
        <time>2014-05-15T08:11:12Z</time>
      </trkpt>
      <trkpt lat="43.75811" lon="5.20012">
        <ele>207.3</ele>
        <time>2014-05-15T08:11:28Z</time>
      </trkpt>
      <trkpt lat="43.7581" lon="5.19998">
        <ele>209.22</ele>
        <time>2014-05-15T08:11:45Z</time>
      </trkpt>
      <trkpt lat="43.75809" lon="5.19982">
        <ele>211.63</ele>
        <time>2014-05-15T08:12:01Z</time>
      </trkpt>
      <trkpt lat="43.75817" lon="5.19974">
        <ele>214.51</ele>
        <time>2014-05-15T08:12:19Z</time>
      </trkpt>
      <trkpt lat="43.75823" lon="5.19985">
        <ele>217.4</ele>
        <time>2014-05-15T08:12:34Z</time>
      </trkpt>
      <trkpt lat="43.75835" lon="5.19984">
        <ele>218.84</ele>
        <time>2014-05-15T08:12:50Z</time>
      </trkpt>
      <trkpt lat="43.75842" lon="5.19981">
        <ele>220.28</ele>
        <time>2014-05-15T08:13:01Z</time>
      </trkpt>
      <trkpt lat="43.75848" lon="5.19975">
        <ele>222.2</ele>
        <time>2014-05-15T08:13:15Z</time>
      </trkpt>
      <trkpt lat="43.75859" lon="5.19965">
        <ele>224.61</ele>
        <time>2014-05-15T08:13:29Z</time>
      </trkpt>
      <trkpt lat="43.75864" lon="5.19961">
        <ele>226.53</ele>
        <time>2014-05-15T08:13:48Z</time>
      </trkpt>
      <trkpt lat="43.75864" lon="5.1996">
        <ele>227.01</ele>
        <time>2014-05-15T08:14:11Z</time>
      </trkpt>
      <trkpt lat="43.75864" lon="5.1996">
        <ele>226.53</ele>
        <time>2014-05-15T08:14:26Z</time>
      </trkpt>
      <trkpt lat="43.75867" lon="5.19964">
        <ele>226.53</ele>
        <time>2014-05-15T08:14:41Z</time>
      </trkpt>
      <trkpt lat="43.7587" lon="5.19971">
        <ele>226.05</ele>
        <time>2014-05-15T08:14:54Z</time>
      </trkpt>
      <trkpt lat="43.75869" lon="5.19966">
        <ele>226.05</ele>
        <time>2014-05-15T08:15:09Z</time>
      </trkpt>
      <trkpt lat="43.75868" lon="5.19964">
        <ele>226.05</ele>
        <time>2014-05-15T08:15:27Z</time>
      </trkpt>
      <trkpt lat="43.75868" lon="5.19963">
        <ele>226.53</ele>
        <time>2014-05-15T08:15:56Z</time>
      </trkpt>
      <trkpt lat="43.75868" lon="5.19963">
        <ele>226.53</ele>
        <time>2014-05-15T08:16:22Z</time>
      </trkpt>
      <trkpt lat="43.75876" lon="5.19974">
        <ele>226.53</ele>
        <time>2014-05-15T08:16:33Z</time>
      </trkpt>
      <trkpt lat="43.75889" lon="5.19978">
        <ele>227.49</ele>
        <time>2014-05-15T08:16:48Z</time>
      </trkpt>
      <trkpt lat="43.75895" lon="5.19979">
        <ele>228.45</ele>
        <time>2014-05-15T08:16:55Z</time>
      </trkpt>
      <trkpt lat="43.75905" lon="5.19984">
        <ele>230.37</ele>
        <time>2014-05-15T08:17:07Z</time>
      </trkpt>
      <trkpt lat="43.75918" lon="5.19993">
        <ele>232.3</ele>
        <time>2014-05-15T08:17:22Z</time>
      </trkpt>
      <trkpt lat="43.75922" lon="5.2">
        <ele>233.74</ele>
        <time>2014-05-15T08:17:30Z</time>
      </trkpt>
      <trkpt lat="43.75928" lon="5.20011">
        <ele>235.18</ele>
        <time>2014-05-15T08:17:43Z</time>
      </trkpt>
      <trkpt lat="43.75927" lon="5.20012">
        <ele>235.66</ele>
        <time>2014-05-15T08:17:44Z</time>
      </trkpt>
      <trkpt lat="43.75927" lon="5.20015">
        <ele>234.7</ele>
        <time>2014-05-15T08:17:47Z</time>
      </trkpt>
      <trkpt lat="43.75929" lon="5.20019">
        <ele>234.7</ele>
        <time>2014-05-15T08:17:50Z</time>
      </trkpt>
      <trkpt lat="43.7593" lon="5.20025">
        <ele>234.22</ele>
        <time>2014-05-15T08:17:55Z</time>
      </trkpt>
      <trkpt lat="43.7593" lon="5.20028">
        <ele>234.22</ele>
        <time>2014-05-15T08:17:57Z</time>
      </trkpt>
      <trkpt lat="43.75931" lon="5.20041">
        <ele>234.22</ele>
        <time>2014-05-15T08:18:07Z</time>
      </trkpt>
      <trkpt lat="43.75932" lon="5.20059">
        <ele>234.22</ele>
        <time>2014-05-15T08:18:19Z</time>
      </trkpt>
      <trkpt lat="43.75933" lon="5.20065">
        <ele>234.22</ele>
        <time>2014-05-15T08:18:23Z</time>
      </trkpt>
      <trkpt lat="43.75934" lon="5.20067">
        <ele>234.22</ele>
        <time>2014-05-15T08:18:25Z</time>
      </trkpt>
      <trkpt lat="43.75936" lon="5.20069">
        <ele>234.22</ele>
        <time>2014-05-15T08:18:28Z</time>
      </trkpt>
      <trkpt lat="43.75942" lon="5.20072">
        <ele>234.22</ele>
        <time>2014-05-15T08:18:34Z</time>
      </trkpt>
      <trkpt lat="43.75946" lon="5.20072">
        <ele>233.74</ele>
        <time>2014-05-15T08:18:39Z</time>
      </trkpt>
      <trkpt lat="43.75948" lon="5.20071">
        <ele>233.74</ele>
        <time>2014-05-15T08:18:41Z</time>
      </trkpt>
      <trkpt lat="43.75951" lon="5.20071">
        <ele>233.74</ele>
        <time>2014-05-15T08:18:44Z</time>
      </trkpt>
      <trkpt lat="43.75955" lon="5.20068">
        <ele>233.74</ele>
        <time>2014-05-15T08:18:48Z</time>
      </trkpt>
      <trkpt lat="43.75968" lon="5.20063">
        <ele>234.7</ele>
        <time>2014-05-15T08:19:01Z</time>
      </trkpt>
      <trkpt lat="43.75975" lon="5.2006">
        <ele>234.7</ele>
        <time>2014-05-15T08:19:07Z</time>
      </trkpt>
      <trkpt lat="43.75988" lon="5.20061">
        <ele>234.7</ele>
        <time>2014-05-15T08:19:21Z</time>
      </trkpt>
      <trkpt lat="43.75989" lon="5.20062">
        <ele>235.18</ele>
        <time>2014-05-15T08:19:39Z</time>
      </trkpt>
      <trkpt lat="43.76003" lon="5.20073">
        <ele>233.74</ele>
        <time>2014-05-15T08:19:54Z</time>
      </trkpt>
      <trkpt lat="43.76006" lon="5.20076">
        <ele>233.26</ele>
        <time>2014-05-15T08:19:57Z</time>
      </trkpt>
      <trkpt lat="43.76016" lon="5.2009">
        <ele>232.78</ele>
        <time>2014-05-15T08:20:11Z</time>
      </trkpt>
      <trkpt lat="43.76017" lon="5.20099">
        <ele>233.74</ele>
        <time>2014-05-15T08:20:18Z</time>
      </trkpt>
      <trkpt lat="43.7602" lon="5.20115">
        <ele>235.66</ele>
        <time>2014-05-15T08:20:30Z</time>
      </trkpt>
      <trkpt lat="43.76022" lon="5.20128">
        <ele>235.66</ele>
        <time>2014-05-15T08:20:39Z</time>
      </trkpt>
      <trkpt lat="43.76023" lon="5.20142">
        <ele>234.7</ele>
        <time>2014-05-15T08:20:49Z</time>
      </trkpt>
      <trkpt lat="43.76026" lon="5.20165">
        <ele>234.7</ele>
        <time>2014-05-15T08:21:06Z</time>
      </trkpt>
      <trkpt lat="43.76027" lon="5.20172">
        <ele>234.7</ele>
        <time>2014-05-15T08:21:11Z</time>
      </trkpt>
      <trkpt lat="43.76027" lon="5.20189">
        <ele>235.18</ele>
        <time>2014-05-15T08:21:22Z</time>
      </trkpt>
      <trkpt lat="43.76036" lon="5.20206">
        <ele>236.62</ele>
        <time>2014-05-15T08:21:36Z</time>
      </trkpt>
      <trkpt lat="43.76037" lon="5.20209">
        <ele>236.62</ele>
        <time>2014-05-15T08:21:38Z</time>
      </trkpt>
      <trkpt lat="43.7604" lon="5.20215">
        <ele>237.1</ele>
        <time>2014-05-15T08:21:44Z</time>
      </trkpt>
      <trkpt lat="43.76043" lon="5.20221">
        <ele>237.1</ele>
        <time>2014-05-15T08:21:49Z</time>
      </trkpt>
      <trkpt lat="43.76049" lon="5.20235">
        <ele>236.14</ele>
        <time>2014-05-15T08:22:02Z</time>
      </trkpt>
      <trkpt lat="43.76053" lon="5.20244">
        <ele>235.66</ele>
        <time>2014-05-15T08:22:09Z</time>
      </trkpt>
      <trkpt lat="43.76056" lon="5.20264">
        <ele>236.62</ele>
        <time>2014-05-15T08:22:23Z</time>
      </trkpt>
      <trkpt lat="43.76058" lon="5.2027">
        <ele>237.1</ele>
        <time>2014-05-15T08:22:28Z</time>
      </trkpt>
      <trkpt lat="43.76059" lon="5.20281">
        <ele>237.58</ele>
        <time>2014-05-15T08:22:36Z</time>
      </trkpt>
      <trkpt lat="43.76059" lon="5.203">
        <ele>238.06</ele>
        <time>2014-05-15T08:22:49Z</time>
      </trkpt>
      <trkpt lat="43.7606" lon="5.20306">
        <ele>238.54</ele>
        <time>2014-05-15T08:23:03Z</time>
      </trkpt>
      <trkpt lat="43.7606" lon="5.20309">
        <ele>238.54</ele>
        <time>2014-05-15T08:23:18Z</time>
      </trkpt>
      <trkpt lat="43.76063" lon="5.2032">
        <ele>241.43</ele>
        <time>2014-05-15T08:23:37Z</time>
      </trkpt>
      <trkpt lat="43.76057" lon="5.2033">
        <ele>243.35</ele>
        <time>2014-05-15T08:23:48Z</time>
      </trkpt>
      <trkpt lat="43.76051" lon="5.20342">
        <ele>245.27</ele>
        <time>2014-05-15T08:24:00Z</time>
      </trkpt>
      <trkpt lat="43.76051" lon="5.20342">
        <ele>245.75</ele>
        <time>2014-05-15T08:24:19Z</time>
      </trkpt>
      <trkpt lat="43.76044" lon="5.20353">
        <ele>246.72</ele>
        <time>2014-05-15T08:24:27Z</time>
      </trkpt>
      <trkpt lat="43.7604" lon="5.20362">
        <ele>247.68</ele>
        <time>2014-05-15T08:24:34Z</time>
      </trkpt>
      <trkpt lat="43.76034" lon="5.20384">
        <ele>249.6</ele>
        <time>2014-05-15T08:24:48Z</time>
      </trkpt>
      <trkpt lat="43.76033" lon="5.20394">
        <ele>250.08</ele>
        <time>2014-05-15T08:25:00Z</time>
      </trkpt>
      <trkpt lat="43.76034" lon="5.20409">
        <ele>252</ele>
        <time>2014-05-15T08:25:13Z</time>
      </trkpt>
      <trkpt lat="43.76035" lon="5.20417">
        <ele>252.96</ele>
        <time>2014-05-15T08:25:21Z</time>
      </trkpt>
      <trkpt lat="43.76036" lon="5.20433">
        <ele>256.33</ele>
        <time>2014-05-15T08:25:36Z</time>
      </trkpt>
      <trkpt lat="43.76042" lon="5.20443">
        <ele>257.77</ele>
        <time>2014-05-15T08:25:50Z</time>
      </trkpt>
      <trkpt lat="43.76044" lon="5.20445">
        <ele>258.73</ele>
        <time>2014-05-15T08:25:55Z</time>
      </trkpt>
      <trkpt lat="43.76051" lon="5.20455">
        <ele>259.21</ele>
        <time>2014-05-15T08:26:08Z</time>
      </trkpt>
      <trkpt lat="43.76057" lon="5.2046">
        <ele>260.17</ele>
        <time>2014-05-15T08:26:16Z</time>
      </trkpt>
      <trkpt lat="43.76068" lon="5.20472">
        <ele>261.14</ele>
        <time>2014-05-15T08:26:31Z</time>
      </trkpt>
      <trkpt lat="43.76079" lon="5.20481">
        <ele>262.58</ele>
        <time>2014-05-15T08:26:44Z</time>
      </trkpt>
      <trkpt lat="43.7609" lon="5.20486">
        <ele>264.02</ele>
        <time>2014-05-15T08:26:58Z</time>
      </trkpt>
      <trkpt lat="43.76099" lon="5.20489">
        <ele>264.98</ele>
        <time>2014-05-15T08:27:13Z</time>
      </trkpt>
      <trkpt lat="43.76106" lon="5.20488">
        <ele>266.9</ele>
        <time>2014-05-15T08:27:23Z</time>
      </trkpt>
      <trkpt lat="43.76117" lon="5.20496">
        <ele>268.35</ele>
        <time>2014-05-15T08:27:37Z</time>
      </trkpt>
      <trkpt lat="43.76121" lon="5.20497">
        <ele>268.35</ele>
        <time>2014-05-15T08:27:41Z</time>
      </trkpt>
      <trkpt lat="43.76126" lon="5.205">
        <ele>267.86</ele>
        <time>2014-05-15T08:27:48Z</time>
      </trkpt>
      <trkpt lat="43.76138" lon="5.20513">
        <ele>268.83</ele>
        <time>2014-05-15T08:28:03Z</time>
      </trkpt>
      <trkpt lat="43.76147" lon="5.20524">
        <ele>268.35</ele>
        <time>2014-05-15T08:28:16Z</time>
      </trkpt>
      <trkpt lat="43.76154" lon="5.20534">
        <ele>268.35</ele>
        <time>2014-05-15T08:28:28Z</time>
      </trkpt>
      <trkpt lat="43.76164" lon="5.20546">
        <ele>269.79</ele>
        <time>2014-05-15T08:28:43Z</time>
      </trkpt>
      <trkpt lat="43.76176" lon="5.20551">
        <ele>271.71</ele>
        <time>2014-05-15T08:28:58Z</time>
      </trkpt>
      <trkpt lat="43.76185" lon="5.20557">
        <ele>271.23</ele>
        <time>2014-05-15T08:29:12Z</time>
      </trkpt>
      <trkpt lat="43.76185" lon="5.20557">
        <ele>272.19</ele>
        <time>2014-05-15T08:29:14Z</time>
      </trkpt>
      <trkpt lat="43.76193" lon="5.20562">
        <ele>273.15</ele>
        <time>2014-05-15T08:29:24Z</time>
      </trkpt>
      <trkpt lat="43.76206" lon="5.2057">
        <ele>276.52</ele>
        <time>2014-05-15T08:29:38Z</time>
      </trkpt>
      <trkpt lat="43.76216" lon="5.20574">
        <ele>278.44</ele>
        <time>2014-05-15T08:29:52Z</time>
      </trkpt>
      <trkpt lat="43.76223" lon="5.20575">
        <ele>279.88</ele>
        <time>2014-05-15T08:30:04Z</time>
      </trkpt>
      <trkpt lat="43.76234" lon="5.2058">
        <ele>280.84</ele>
        <time>2014-05-15T08:30:19Z</time>
      </trkpt>
      <trkpt lat="43.76244" lon="5.20585">
        <ele>283.25</ele>
        <time>2014-05-15T08:30:30Z</time>
      </trkpt>
      <trkpt lat="43.76253" lon="5.2059">
        <ele>284.69</ele>
        <time>2014-05-15T08:30:45Z</time>
      </trkpt>
      <trkpt lat="43.76254" lon="5.20591">
        <ele>284.69</ele>
        <time>2014-05-15T08:30:46Z</time>
      </trkpt>
      <trkpt lat="43.76262" lon="5.20595">
        <ele>287.09</ele>
        <time>2014-05-15T08:30:56Z</time>
      </trkpt>
      <trkpt lat="43.76274" lon="5.20598">
        <ele>288.05</ele>
        <time>2014-05-15T08:31:11Z</time>
      </trkpt>
      <trkpt lat="43.76282" lon="5.20597">
        <ele>289.97</ele>
        <time>2014-05-15T08:31:24Z</time>
      </trkpt>
      <trkpt lat="43.76287" lon="5.20598">
        <ele>292.86</ele>
        <time>2014-05-15T08:31:33Z</time>
      </trkpt>
      <trkpt lat="43.76294" lon="5.20597">
        <ele>294.78</ele>
        <time>2014-05-15T08:31:47Z</time>
      </trkpt>
      <trkpt lat="43.76299" lon="5.20597">
        <ele>296.22</ele>
        <time>2014-05-15T08:32:01Z</time>
      </trkpt>
      <trkpt lat="43.76305" lon="5.20601">
        <ele>298.63</ele>
        <time>2014-05-15T08:32:13Z</time>
      </trkpt>
      <trkpt lat="43.76311" lon="5.20607">
        <ele>299.11</ele>
        <time>2014-05-15T08:32:26Z</time>
      </trkpt>
      <trkpt lat="43.76316" lon="5.20612">
        <ele>300.07</ele>
        <time>2014-05-15T08:32:40Z</time>
      </trkpt>
      <trkpt lat="43.76317" lon="5.20618">
        <ele>297.67</ele>
        <time>2014-05-15T08:32:55Z</time>
      </trkpt>
      <trkpt lat="43.76317" lon="5.20617">
        <ele>299.59</ele>
        <time>2014-05-15T08:33:19Z</time>
      </trkpt>
      <trkpt lat="43.76317" lon="5.20615">
        <ele>300.07</ele>
        <time>2014-05-15T08:33:31Z</time>
      </trkpt>
      <trkpt lat="43.76318" lon="5.20613">
        <ele>300.07</ele>
        <time>2014-05-15T08:33:43Z</time>
      </trkpt>
      <trkpt lat="43.76319" lon="5.20611">
        <ele>300.07</ele>
        <time>2014-05-15T08:34:07Z</time>
      </trkpt>
      <trkpt lat="43.76319" lon="5.20611">
        <ele>299.11</ele>
        <time>2014-05-15T08:34:32Z</time>
      </trkpt>
      <trkpt lat="43.7632" lon="5.20611">
        <ele>301.51</ele>
        <time>2014-05-15T08:34:51Z</time>
      </trkpt>
      <trkpt lat="43.7632" lon="5.20612">
        <ele>301.99</ele>
        <time>2014-05-15T08:35:07Z</time>
      </trkpt>
      <trkpt lat="43.7632" lon="5.20612">
        <ele>298.63</ele>
        <time>2014-05-15T08:35:15Z</time>
      </trkpt>
      <trkpt lat="43.7632" lon="5.20612">
        <ele>302.47</ele>
        <time>2014-05-15T08:35:17Z</time>
      </trkpt>
      <trkpt lat="43.7632" lon="5.20612">
        <ele>298.63</ele>
        <time>2014-05-15T08:35:20Z</time>
      </trkpt>
      <trkpt lat="43.7632" lon="5.20612">
        <ele>300.55</ele>
        <time>2014-05-15T08:35:23Z</time>
      </trkpt>
      <trkpt lat="43.76321" lon="5.20611">
        <ele>303.43</ele>
        <time>2014-05-15T08:35:29Z</time>
      </trkpt>
      <trkpt lat="43.76321" lon="5.20611">
        <ele>300.07</ele>
        <time>2014-05-15T08:35:32Z</time>
      </trkpt>
      <trkpt lat="43.76321" lon="5.20611">
        <ele>300.07</ele>
        <time>2014-05-15T08:35:33Z</time>
      </trkpt>
      <trkpt lat="43.76321" lon="5.20611">
        <ele>302.95</ele>
        <time>2014-05-15T08:35:55Z</time>
      </trkpt>
      <trkpt lat="43.76326" lon="5.20611">
        <ele>303.91</ele>
        <time>2014-05-15T08:36:08Z</time>
      </trkpt>
      <trkpt lat="43.7633" lon="5.20613">
        <ele>304.88</ele>
        <time>2014-05-15T08:36:23Z</time>
      </trkpt>
      <trkpt lat="43.76329" lon="5.20613">
        <ele>305.36</ele>
        <time>2014-05-15T08:36:25Z</time>
      </trkpt>
      <trkpt lat="43.7633" lon="5.20614">
        <ele>303.43</ele>
        <time>2014-05-15T08:36:31Z</time>
      </trkpt>
      <trkpt lat="43.76339" lon="5.20626">
        <ele>304.88</ele>
        <time>2014-05-15T08:36:45Z</time>
      </trkpt>
      <trkpt lat="43.76346" lon="5.20637">
        <ele>307.28</ele>
        <time>2014-05-15T08:37:00Z</time>
      </trkpt>
      <trkpt lat="43.76348" lon="5.20642">
        <ele>308.72</ele>
        <time>2014-05-15T08:37:06Z</time>
      </trkpt>
      <trkpt lat="43.76349" lon="5.20646">
        <ele>310.16</ele>
        <time>2014-05-15T08:37:11Z</time>
      </trkpt>
      <trkpt lat="43.76353" lon="5.2066">
        <ele>312.09</ele>
        <time>2014-05-15T08:37:26Z</time>
      </trkpt>
      <trkpt lat="43.76353" lon="5.20661">
        <ele>312.09</ele>
        <time>2014-05-15T08:37:27Z</time>
      </trkpt>
      <trkpt lat="43.76352" lon="5.20664">
        <ele>313.05</ele>
        <time>2014-05-15T08:37:30Z</time>
      </trkpt>
      <trkpt lat="43.76351" lon="5.20665">
        <ele>313.05</ele>
        <time>2014-05-15T08:37:32Z</time>
      </trkpt>
      <trkpt lat="43.76351" lon="5.20682">
        <ele>315.93</ele>
        <time>2014-05-15T08:37:46Z</time>
      </trkpt>
      <trkpt lat="43.76351" lon="5.207">
        <ele>316.89</ele>
        <time>2014-05-15T08:38:05Z</time>
      </trkpt>
      <trkpt lat="43.76348" lon="5.2072">
        <ele>317.85</ele>
        <time>2014-05-15T08:38:23Z</time>
      </trkpt>
      <trkpt lat="43.7635" lon="5.20735">
        <ele>319.78</ele>
        <time>2014-05-15T08:38:38Z</time>
      </trkpt>
      <trkpt lat="43.76351" lon="5.20738">
        <ele>320.26</ele>
        <time>2014-05-15T08:38:41Z</time>
      </trkpt>
      <trkpt lat="43.76352" lon="5.20742">
        <ele>321.22</ele>
        <time>2014-05-15T08:38:44Z</time>
      </trkpt>
      <trkpt lat="43.76354" lon="5.20749">
        <ele>320.74</ele>
        <time>2014-05-15T08:38:48Z</time>
      </trkpt>
      <trkpt lat="43.76354" lon="5.20754">
        <ele>321.7</ele>
        <time>2014-05-15T08:38:51Z</time>
      </trkpt>
      <trkpt lat="43.76356" lon="5.20756">
        <ele>321.7</ele>
        <time>2014-05-15T08:38:53Z</time>
      </trkpt>
      <trkpt lat="43.76361" lon="5.20771">
        <ele>322.66</ele>
        <time>2014-05-15T08:39:04Z</time>
      </trkpt>
      <trkpt lat="43.76368" lon="5.20788">
        <ele>323.14</ele>
        <time>2014-05-15T08:39:17Z</time>
      </trkpt>
      <trkpt lat="43.76379" lon="5.20802">
        <ele>323.62</ele>
        <time>2014-05-15T08:39:31Z</time>
      </trkpt>
      <trkpt lat="43.76382" lon="5.20804">
        <ele>324.58</ele>
        <time>2014-05-15T08:39:34Z</time>
      </trkpt>
      <trkpt lat="43.7639" lon="5.20812">
        <ele>325.54</ele>
        <time>2014-05-15T08:39:43Z</time>
      </trkpt>
      <trkpt lat="43.764" lon="5.20822">
        <ele>326.99</ele>
        <time>2014-05-15T08:39:55Z</time>
      </trkpt>
      <trkpt lat="43.7641" lon="5.20835">
        <ele>325.54</ele>
        <time>2014-05-15T08:40:09Z</time>
      </trkpt>
      <trkpt lat="43.7642" lon="5.20844">
        <ele>326.02</ele>
        <time>2014-05-15T08:40:21Z</time>
      </trkpt>
      <trkpt lat="43.76424" lon="5.2085">
        <ele>326.02</ele>
        <time>2014-05-15T08:40:29Z</time>
      </trkpt>
      <trkpt lat="43.76433" lon="5.20868">
        <ele>325.54</ele>
        <time>2014-05-15T08:40:42Z</time>
      </trkpt>
      <trkpt lat="43.76435" lon="5.20874">
        <ele>326.02</ele>
        <time>2014-05-15T08:40:48Z</time>
      </trkpt>
      <trkpt lat="43.76437" lon="5.20876">
        <ele>326.5</ele>
        <time>2014-05-15T08:40:50Z</time>
      </trkpt>
      <trkpt lat="43.76446" lon="5.20895">
        <ele>326.02</ele>
        <time>2014-05-15T08:41:04Z</time>
      </trkpt>
      <trkpt lat="43.76454" lon="5.2091">
        <ele>325.54</ele>
        <time>2014-05-15T08:41:16Z</time>
      </trkpt>
      <trkpt lat="43.7646" lon="5.20923">
        <ele>326.02</ele>
        <time>2014-05-15T08:41:26Z</time>
      </trkpt>
      <trkpt lat="43.76465" lon="5.20932">
        <ele>326.99</ele>
        <time>2014-05-15T08:41:33Z</time>
      </trkpt>
      <trkpt lat="43.76475" lon="5.20947">
        <ele>326.99</ele>
        <time>2014-05-15T08:41:46Z</time>
      </trkpt>
      <trkpt lat="43.76486" lon="5.20962">
        <ele>327.47</ele>
        <time>2014-05-15T08:42:01Z</time>
      </trkpt>
      <trkpt lat="43.76489" lon="5.20966">
        <ele>327.95</ele>
        <time>2014-05-15T08:42:09Z</time>
      </trkpt>
      <trkpt lat="43.76501" lon="5.20978">
        <ele>328.91</ele>
        <time>2014-05-15T08:42:21Z</time>
      </trkpt>
      <trkpt lat="43.76513" lon="5.20986">
        <ele>329.87</ele>
        <time>2014-05-15T08:42:34Z</time>
      </trkpt>
      <trkpt lat="43.76527" lon="5.20992">
        <ele>330.35</ele>
        <time>2014-05-15T08:42:47Z</time>
      </trkpt>
      <trkpt lat="43.7653" lon="5.20992">
        <ele>328.91</ele>
        <time>2014-05-15T08:42:50Z</time>
      </trkpt>
      <trkpt lat="43.76537" lon="5.20993">
        <ele>329.87</ele>
        <time>2014-05-15T08:43:00Z</time>
      </trkpt>
      <trkpt lat="43.76538" lon="5.20992">
        <ele>330.35</ele>
        <time>2014-05-15T08:43:15Z</time>
      </trkpt>
      <trkpt lat="43.76546" lon="5.20986">
        <ele>330.83</ele>
        <time>2014-05-15T08:43:26Z</time>
      </trkpt>
      <trkpt lat="43.76546" lon="5.20983">
        <ele>330.83</ele>
        <time>2014-05-15T08:43:28Z</time>
      </trkpt>
      <trkpt lat="43.76557" lon="5.20974">
        <ele>332.27</ele>
        <time>2014-05-15T08:43:40Z</time>
      </trkpt>
      <trkpt lat="43.76566" lon="5.20967">
        <ele>330.83</ele>
        <time>2014-05-15T08:43:53Z</time>
      </trkpt>
      <trkpt lat="43.76571" lon="5.20964">
        <ele>331.31</ele>
        <time>2014-05-15T08:43:59Z</time>
      </trkpt>
      <trkpt lat="43.76575" lon="5.20962">
        <ele>333.71</ele>
        <time>2014-05-15T08:44:04Z</time>
      </trkpt>
      <trkpt lat="43.76583" lon="5.20953">
        <ele>333.23</ele>
        <time>2014-05-15T08:44:17Z</time>
      </trkpt>
      <trkpt lat="43.7659" lon="5.20944">
        <ele>334.68</ele>
        <time>2014-05-15T08:44:29Z</time>
      </trkpt>
      <trkpt lat="43.76595" lon="5.20934">
        <ele>333.71</ele>
        <time>2014-05-15T08:44:37Z</time>
      </trkpt>
      <trkpt lat="43.76604" lon="5.20924">
        <ele>335.64</ele>
        <time>2014-05-15T08:44:52Z</time>
      </trkpt>
      <trkpt lat="43.76616" lon="5.20915">
        <ele>335.64</ele>
        <time>2014-05-15T08:45:07Z</time>
      </trkpt>
      <trkpt lat="43.76624" lon="5.20904">
        <ele>336.6</ele>
        <time>2014-05-15T08:45:19Z</time>
      </trkpt>
      <trkpt lat="43.76632" lon="5.20896">
        <ele>337.08</ele>
        <time>2014-05-15T08:45:29Z</time>
      </trkpt>
      <trkpt lat="43.76636" lon="5.20893">
        <ele>336.6</ele>
        <time>2014-05-15T08:45:33Z</time>
      </trkpt>
      <trkpt lat="43.76649" lon="5.20878">
        <ele>336.6</ele>
        <time>2014-05-15T08:45:49Z</time>
      </trkpt>
      <trkpt lat="43.76655" lon="5.20869">
        <ele>337.08</ele>
        <time>2014-05-15T08:45:57Z</time>
      </trkpt>
      <trkpt lat="43.76661" lon="5.2086">
        <ele>336.6</ele>
        <time>2014-05-15T08:46:05Z</time>
      </trkpt>
      <trkpt lat="43.76672" lon="5.20842">
        <ele>336.6</ele>
        <time>2014-05-15T08:46:19Z</time>
      </trkpt>
      <trkpt lat="43.76678" lon="5.20835">
        <ele>336.12</ele>
        <time>2014-05-15T08:46:26Z</time>
      </trkpt>
      <trkpt lat="43.76682" lon="5.2083">
        <ele>335.64</ele>
        <time>2014-05-15T08:46:31Z</time>
      </trkpt>
      <trkpt lat="43.76699" lon="5.20816">
        <ele>334.68</ele>
        <time>2014-05-15T08:46:47Z</time>
      </trkpt>
      <trkpt lat="43.76711" lon="5.20808">
        <ele>333.23</ele>
        <time>2014-05-15T08:47:00Z</time>
      </trkpt>
      <trkpt lat="43.76712" lon="5.20806">
        <ele>332.75</ele>
        <time>2014-05-15T08:47:02Z</time>
      </trkpt>
      <trkpt lat="43.76726" lon="5.208">
        <ele>330.83</ele>
        <time>2014-05-15T08:47:15Z</time>
      </trkpt>
      <trkpt lat="43.76732" lon="5.20799">
        <ele>331.31</ele>
        <time>2014-05-15T08:47:20Z</time>
      </trkpt>
      <trkpt lat="43.76736" lon="5.20798">
        <ele>332.27</ele>
        <time>2014-05-15T08:47:25Z</time>
      </trkpt>
      <trkpt lat="43.76738" lon="5.20797">
        <ele>331.31</ele>
        <time>2014-05-15T08:47:27Z</time>
      </trkpt>
      <trkpt lat="43.76743" lon="5.20796">
        <ele>329.87</ele>
        <time>2014-05-15T08:47:31Z</time>
      </trkpt>
      <trkpt lat="43.76754" lon="5.20784">
        <ele>328.43</ele>
        <time>2014-05-15T08:47:46Z</time>
      </trkpt>
      <trkpt lat="43.76759" lon="5.20779">
        <ele>327.47</ele>
        <time>2014-05-15T08:47:53Z</time>
      </trkpt>
      <trkpt lat="43.76761" lon="5.20776">
        <ele>326.5</ele>
        <time>2014-05-15T08:47:57Z</time>
      </trkpt>
      <trkpt lat="43.76773" lon="5.20765">
        <ele>323.62</ele>
        <time>2014-05-15T08:48:12Z</time>
      </trkpt>
      <trkpt lat="43.76774" lon="5.20764">
        <ele>323.62</ele>
        <time>2014-05-15T08:48:13Z</time>
      </trkpt>
      <trkpt lat="43.76783" lon="5.20751">
        <ele>322.66</ele>
        <time>2014-05-15T08:48:27Z</time>
      </trkpt>
      <trkpt lat="43.76793" lon="5.20737">
        <ele>320.74</ele>
        <time>2014-05-15T08:48:42Z</time>
      </trkpt>
      <trkpt lat="43.76799" lon="5.20727">
        <ele>317.37</ele>
        <time>2014-05-15T08:48:52Z</time>
      </trkpt>
      <trkpt lat="43.76806" lon="5.20716">
        <ele>317.85</ele>
        <time>2014-05-15T08:49:01Z</time>
      </trkpt>
      <trkpt lat="43.7681" lon="5.2071">
        <ele>319.78</ele>
        <time>2014-05-15T08:49:06Z</time>
      </trkpt>
      <trkpt lat="43.76818" lon="5.20697">
        <ele>319.3</ele>
        <time>2014-05-15T08:49:18Z</time>
      </trkpt>
      <trkpt lat="43.76829" lon="5.20684">
        <ele>318.81</ele>
        <time>2014-05-15T08:49:30Z</time>
      </trkpt>
      <trkpt lat="43.76834" lon="5.20677">
        <ele>320.26</ele>
        <time>2014-05-15T08:49:36Z</time>
      </trkpt>
      <trkpt lat="43.76847" lon="5.20661">
        <ele>318.81</ele>
        <time>2014-05-15T08:49:52Z</time>
      </trkpt>
      <trkpt lat="43.7685" lon="5.20657">
        <ele>319.3</ele>
        <time>2014-05-15T08:49:57Z</time>
      </trkpt>
      <trkpt lat="43.76866" lon="5.2065">
        <ele>319.78</ele>
        <time>2014-05-15T08:50:10Z</time>
      </trkpt>
      <trkpt lat="43.76867" lon="5.2065">
        <ele>319.3</ele>
        <time>2014-05-15T08:50:11Z</time>
      </trkpt>
      <trkpt lat="43.76883" lon="5.20644">
        <ele>319.3</ele>
        <time>2014-05-15T08:50:27Z</time>
      </trkpt>
      <trkpt lat="43.76888" lon="5.20639">
        <ele>318.33</ele>
        <time>2014-05-15T08:50:33Z</time>
      </trkpt>
      <trkpt lat="43.7689" lon="5.20637">
        <ele>318.33</ele>
        <time>2014-05-15T08:50:35Z</time>
      </trkpt>
      <trkpt lat="43.76908" lon="5.2063">
        <ele>316.41</ele>
        <time>2014-05-15T08:50:53Z</time>
      </trkpt>
      <trkpt lat="43.76913" lon="5.20631">
        <ele>317.85</ele>
        <time>2014-05-15T08:50:57Z</time>
      </trkpt>
      <trkpt lat="43.76918" lon="5.20632">
        <ele>316.41</ele>
        <time>2014-05-15T08:51:02Z</time>
      </trkpt>
      <trkpt lat="43.76933" lon="5.20636">
        <ele>314.97</ele>
        <time>2014-05-15T08:51:17Z</time>
      </trkpt>
      <trkpt lat="43.76947" lon="5.20638">
        <ele>314.01</ele>
        <time>2014-05-15T08:51:30Z</time>
      </trkpt>
      <trkpt lat="43.76952" lon="5.20638">
        <ele>314.01</ele>
        <time>2014-05-15T08:51:36Z</time>
      </trkpt>
      <trkpt lat="43.76968" lon="5.20639">
        <ele>313.53</ele>
        <time>2014-05-15T08:51:51Z</time>
      </trkpt>
      <trkpt lat="43.7697" lon="5.20638">
        <ele>313.53</ele>
        <time>2014-05-15T08:51:52Z</time>
      </trkpt>
      <trkpt lat="43.76985" lon="5.20636">
        <ele>312.09</ele>
        <time>2014-05-15T08:52:07Z</time>
      </trkpt>
      <trkpt lat="43.77" lon="5.20636">
        <ele>309.68</ele>
        <time>2014-05-15T08:52:22Z</time>
      </trkpt>
      <trkpt lat="43.77011" lon="5.20635">
        <ele>307.28</ele>
        <time>2014-05-15T08:52:37Z</time>
      </trkpt>
      <trkpt lat="43.77018" lon="5.20632">
        <ele>305.84</ele>
        <time>2014-05-15T08:52:45Z</time>
      </trkpt>
      <trkpt lat="43.77031" lon="5.2063">
        <ele>303.43</ele>
        <time>2014-05-15T08:53:01Z</time>
      </trkpt>
      <trkpt lat="43.77043" lon="5.20618">
        <ele>301.51</ele>
        <time>2014-05-15T08:53:16Z</time>
      </trkpt>
      <trkpt lat="43.77051" lon="5.20606">
        <ele>298.63</ele>
        <time>2014-05-15T08:53:30Z</time>
      </trkpt>
      <trkpt lat="43.77057" lon="5.20594">
        <ele>297.18</ele>
        <time>2014-05-15T08:53:42Z</time>
      </trkpt>
      <trkpt lat="43.77063" lon="5.20588">
        <ele>295.26</ele>
        <time>2014-05-15T08:53:50Z</time>
      </trkpt>
      <trkpt lat="43.77069" lon="5.20577">
        <ele>294.78</ele>
        <time>2014-05-15T08:54:02Z</time>
      </trkpt>
      <trkpt lat="43.77071" lon="5.20575">
        <ele>293.34</ele>
        <time>2014-05-15T08:54:05Z</time>
      </trkpt>
      <trkpt lat="43.77079" lon="5.20567">
        <ele>290.94</ele>
        <time>2014-05-15T08:54:18Z</time>
      </trkpt>
      <trkpt lat="43.77087" lon="5.2056">
        <ele>289.97</ele>
        <time>2014-05-15T08:54:30Z</time>
      </trkpt>
      <trkpt lat="43.7709" lon="5.20548">
        <ele>286.61</ele>
        <time>2014-05-15T08:54:45Z</time>
      </trkpt>
      <trkpt lat="43.77099" lon="5.20538">
        <ele>284.69</ele>
        <time>2014-05-15T08:54:59Z</time>
      </trkpt>
      <trkpt lat="43.77107" lon="5.20533">
        <ele>281.32</ele>
        <time>2014-05-15T08:55:13Z</time>
      </trkpt>
      <trkpt lat="43.77109" lon="5.20532">
        <ele>280.36</ele>
        <time>2014-05-15T08:55:15Z</time>
      </trkpt>
      <trkpt lat="43.77117" lon="5.20529">
        <ele>277</ele>
        <time>2014-05-15T08:55:24Z</time>
      </trkpt>
      <trkpt lat="43.77119" lon="5.20527">
        <ele>276.52</ele>
        <time>2014-05-15T08:55:33Z</time>
      </trkpt>
      <trkpt lat="43.77134" lon="5.20519">
        <ele>275.07</ele>
        <time>2014-05-15T08:55:46Z</time>
      </trkpt>
      <trkpt lat="43.77136" lon="5.20518">
        <ele>273.63</ele>
        <time>2014-05-15T08:55:50Z</time>
      </trkpt>
      <trkpt lat="43.77142" lon="5.20517">
        <ele>272.19</ele>
        <time>2014-05-15T08:55:55Z</time>
      </trkpt>
      <trkpt lat="43.77145" lon="5.20515">
        <ele>270.75</ele>
        <time>2014-05-15T08:55:58Z</time>
      </trkpt>
      <trkpt lat="43.77153" lon="5.20507">
        <ele>271.23</ele>
        <time>2014-05-15T08:56:09Z</time>
      </trkpt>
      <trkpt lat="43.77156" lon="5.20509">
        <ele>270.27</ele>
        <time>2014-05-15T08:56:12Z</time>
      </trkpt>
      <trkpt lat="43.77159" lon="5.2051">
        <ele>268.83</ele>
        <time>2014-05-15T08:56:15Z</time>
      </trkpt>
      <trkpt lat="43.77162" lon="5.20511">
        <ele>267.86</ele>
        <time>2014-05-15T08:56:19Z</time>
      </trkpt>
      <trkpt lat="43.77165" lon="5.20512">
        <ele>266.42</ele>
        <time>2014-05-15T08:56:22Z</time>
      </trkpt>
      <trkpt lat="43.77169" lon="5.20509">
        <ele>268.35</ele>
        <time>2014-05-15T08:56:34Z</time>
      </trkpt>
      <trkpt lat="43.77169" lon="5.2051">
        <ele>269.31</ele>
        <time>2014-05-15T08:56:49Z</time>
      </trkpt>
      <trkpt lat="43.77165" lon="5.2051">
        <ele>269.31</ele>
        <time>2014-05-15T08:57:04Z</time>
      </trkpt>
      <trkpt lat="43.77167" lon="5.20509">
        <ele>269.31</ele>
        <time>2014-05-15T08:57:24Z</time>
      </trkpt>
      <trkpt lat="43.77166" lon="5.20509">
        <ele>268.35</ele>
        <time>2014-05-15T08:57:44Z</time>
      </trkpt>
      <trkpt lat="43.77162" lon="5.20508">
        <ele>268.83</ele>
        <time>2014-05-15T08:57:59Z</time>
      </trkpt>
      <trkpt lat="43.77163" lon="5.20509">
        <ele>268.83</ele>
        <time>2014-05-15T08:58:18Z</time>
      </trkpt>
      <trkpt lat="43.77164" lon="5.20509">
        <ele>268.35</ele>
        <time>2014-05-15T08:58:38Z</time>
      </trkpt>
      <trkpt lat="43.77164" lon="5.20507">
        <ele>269.31</ele>
        <time>2014-05-15T08:58:57Z</time>
      </trkpt>
      <trkpt lat="43.77163" lon="5.20507">
        <ele>270.27</ele>
        <time>2014-05-15T08:59:15Z</time>
      </trkpt>
      <trkpt lat="43.77164" lon="5.20506">
        <ele>268.83</ele>
        <time>2014-05-15T08:59:37Z</time>
      </trkpt>
      <trkpt lat="43.77165" lon="5.20506">
        <ele>269.79</ele>
        <time>2014-05-15T09:00:05Z</time>
      </trkpt>
      <trkpt lat="43.77164" lon="5.20505">
        <ele>269.31</ele>
        <time>2014-05-15T09:00:21Z</time>
      </trkpt>
      <trkpt lat="43.77163" lon="5.20506">
        <ele>269.79</ele>
        <time>2014-05-15T09:00:39Z</time>
      </trkpt>
      <trkpt lat="43.77167" lon="5.205">
        <ele>268.83</ele>
        <time>2014-05-15T09:00:51Z</time>
      </trkpt>
      <trkpt lat="43.77168" lon="5.20493">
        <ele>268.35</ele>
        <time>2014-05-15T09:00:58Z</time>
      </trkpt>
      <trkpt lat="43.77174" lon="5.20477">
        <ele>266.42</ele>
        <time>2014-05-15T09:01:11Z</time>
      </trkpt>
      <trkpt lat="43.77179" lon="5.2046">
        <ele>263.06</ele>
        <time>2014-05-15T09:01:25Z</time>
      </trkpt>
      <trkpt lat="43.77182" lon="5.20443">
        <ele>260.65</ele>
        <time>2014-05-15T09:01:39Z</time>
      </trkpt>
      <trkpt lat="43.77184" lon="5.2043">
        <ele>259.21</ele>
        <time>2014-05-15T09:01:52Z</time>
      </trkpt>
      <trkpt lat="43.77179" lon="5.20417">
        <ele>258.25</ele>
        <time>2014-05-15T09:02:03Z</time>
      </trkpt>
      <trkpt lat="43.77177" lon="5.204">
        <ele>258.25</ele>
        <time>2014-05-15T09:02:18Z</time>
      </trkpt>
      <trkpt lat="43.77177" lon="5.20395">
        <ele>257.77</ele>
        <time>2014-05-15T09:02:21Z</time>
      </trkpt>
      <trkpt lat="43.77175" lon="5.20373">
        <ele>257.77</ele>
        <time>2014-05-15T09:02:36Z</time>
      </trkpt>
      <trkpt lat="43.77179" lon="5.20355">
        <ele>255.85</ele>
        <time>2014-05-15T09:02:49Z</time>
      </trkpt>
      <trkpt lat="43.77179" lon="5.20344">
        <ele>254.41</ele>
        <time>2014-05-15T09:02:57Z</time>
      </trkpt>
      <trkpt lat="43.77194" lon="5.2033">
        <ele>253.44</ele>
        <time>2014-05-15T09:03:11Z</time>
      </trkpt>
      <trkpt lat="43.77205" lon="5.20318">
        <ele>254.89</ele>
        <time>2014-05-15T09:03:25Z</time>
      </trkpt>
      <trkpt lat="43.77208" lon="5.20301">
        <ele>256.81</ele>
        <time>2014-05-15T09:03:39Z</time>
      </trkpt>
      <trkpt lat="43.77209" lon="5.20298">
        <ele>260.17</ele>
        <time>2014-05-15T09:03:42Z</time>
      </trkpt>
      <trkpt lat="43.77209" lon="5.20297">
        <ele>259.21</ele>
        <time>2014-05-15T09:03:43Z</time>
      </trkpt>
      <trkpt lat="43.7721" lon="5.20294">
        <ele>257.29</ele>
        <time>2014-05-15T09:03:45Z</time>
      </trkpt>
      <trkpt lat="43.77209" lon="5.20274">
        <ele>258.25</ele>
        <time>2014-05-15T09:04:00Z</time>
      </trkpt>
      <trkpt lat="43.77211" lon="5.2026">
        <ele>259.21</ele>
        <time>2014-05-15T09:04:10Z</time>
      </trkpt>
      <trkpt lat="43.77213" lon="5.20243">
        <ele>261.62</ele>
        <time>2014-05-15T09:04:27Z</time>
      </trkpt>
      <trkpt lat="43.77213" lon="5.20239">
        <ele>263.54</ele>
        <time>2014-05-15T09:04:31Z</time>
      </trkpt>
      <trkpt lat="43.7722" lon="5.20222">
        <ele>264.98</ele>
        <time>2014-05-15T09:04:46Z</time>
      </trkpt>
      <trkpt lat="43.77219" lon="5.20199">
        <ele>267.86</ele>
        <time>2014-05-15T09:05:07Z</time>
      </trkpt>
      <trkpt lat="43.77221" lon="5.20177">
        <ele>269.31</ele>
        <time>2014-05-15T09:05:25Z</time>
      </trkpt>
      <trkpt lat="43.77221" lon="5.20168">
        <ele>270.75</ele>
        <time>2014-05-15T09:05:35Z</time>
      </trkpt>
      <trkpt lat="43.77225" lon="5.20162">
        <ele>272.19</ele>
        <time>2014-05-15T09:05:46Z</time>
      </trkpt>
      <trkpt lat="43.77232" lon="5.20171">
        <ele>274.11</ele>
        <time>2014-05-15T09:05:57Z</time>
      </trkpt>
      <trkpt lat="43.77234" lon="5.20168">
        <ele>274.59</ele>
        <time>2014-05-15T09:06:00Z</time>
      </trkpt>
      <trkpt lat="43.77234" lon="5.20152">
        <ele>276.52</ele>
        <time>2014-05-15T09:06:13Z</time>
      </trkpt>
      <trkpt lat="43.77237" lon="5.20136">
        <ele>277</ele>
        <time>2014-05-15T09:06:27Z</time>
      </trkpt>
      <trkpt lat="43.77245" lon="5.20123">
        <ele>279.4</ele>
        <time>2014-05-15T09:06:40Z</time>
      </trkpt>
      <trkpt lat="43.77253" lon="5.20121">
        <ele>280.36</ele>
        <time>2014-05-15T09:06:49Z</time>
      </trkpt>
      <trkpt lat="43.77258" lon="5.20117">
        <ele>279.4</ele>
        <time>2014-05-15T09:06:55Z</time>
      </trkpt>
      <trkpt lat="43.77273" lon="5.20112">
        <ele>277.48</ele>
        <time>2014-05-15T09:07:09Z</time>
      </trkpt>
      <trkpt lat="43.77274" lon="5.20111">
        <ele>277.48</ele>
        <time>2014-05-15T09:07:10Z</time>
      </trkpt>
      <trkpt lat="43.77276" lon="5.20106">
        <ele>277.48</ele>
        <time>2014-05-15T09:07:13Z</time>
      </trkpt>
      <trkpt lat="43.77281" lon="5.20084">
        <ele>275.56</ele>
        <time>2014-05-15T09:07:26Z</time>
      </trkpt>
      <trkpt lat="43.7728" lon="5.20062">
        <ele>276.52</ele>
        <time>2014-05-15T09:07:39Z</time>
      </trkpt>
      <trkpt lat="43.77281" lon="5.20057">
        <ele>277</ele>
        <time>2014-05-15T09:07:43Z</time>
      </trkpt>
      <trkpt lat="43.77283" lon="5.20052">
        <ele>277</ele>
        <time>2014-05-15T09:07:47Z</time>
      </trkpt>
      <trkpt lat="43.77281" lon="5.20029">
        <ele>275.56</ele>
        <time>2014-05-15T09:08:01Z</time>
      </trkpt>
      <trkpt lat="43.77281" lon="5.20019">
        <ele>275.07</ele>
        <time>2014-05-15T09:08:06Z</time>
      </trkpt>
      <trkpt lat="43.77282" lon="5.20015">
        <ele>274.11</ele>
        <time>2014-05-15T09:08:15Z</time>
      </trkpt>
      <trkpt lat="43.77279" lon="5.20008">
        <ele>273.63</ele>
        <time>2014-05-15T09:08:30Z</time>
      </trkpt>
      <trkpt lat="43.77277" lon="5.19996">
        <ele>273.15</ele>
        <time>2014-05-15T09:08:40Z</time>
      </trkpt>
      <trkpt lat="43.77271" lon="5.19989">
        <ele>272.19</ele>
        <time>2014-05-15T09:08:45Z</time>
      </trkpt>
      <trkpt lat="43.77271" lon="5.19984">
        <ele>271.71</ele>
        <time>2014-05-15T09:08:47Z</time>
      </trkpt>
      <trkpt lat="43.77272" lon="5.19981">
        <ele>270.75</ele>
        <time>2014-05-15T09:09:03Z</time>
      </trkpt>
      <trkpt lat="43.77272" lon="5.19977">
        <ele>271.23</ele>
        <time>2014-05-15T09:09:07Z</time>
      </trkpt>
      <trkpt lat="43.77275" lon="5.19955">
        <ele>271.71</ele>
        <time>2014-05-15T09:09:19Z</time>
      </trkpt>
      <trkpt lat="43.77276" lon="5.19947">
        <ele>272.19</ele>
        <time>2014-05-15T09:09:25Z</time>
      </trkpt>
      <trkpt lat="43.77276" lon="5.19937">
        <ele>271.23</ele>
        <time>2014-05-15T09:09:32Z</time>
      </trkpt>
      <trkpt lat="43.77282" lon="5.19913">
        <ele>269.31</ele>
        <time>2014-05-15T09:09:44Z</time>
      </trkpt>
      <trkpt lat="43.77286" lon="5.19905">
        <ele>268.83</ele>
        <time>2014-05-15T09:09:50Z</time>
      </trkpt>
      <trkpt lat="43.77292" lon="5.19892">
        <ele>267.86</ele>
        <time>2014-05-15T09:09:58Z</time>
      </trkpt>
      <trkpt lat="43.77299" lon="5.19876">
        <ele>266.42</ele>
        <time>2014-05-15T09:10:08Z</time>
      </trkpt>
      <trkpt lat="43.77308" lon="5.19861">
        <ele>263.06</ele>
        <time>2014-05-15T09:10:22Z</time>
      </trkpt>
      <trkpt lat="43.7731" lon="5.19861">
        <ele>263.06</ele>
        <time>2014-05-15T09:10:25Z</time>
      </trkpt>
      <trkpt lat="43.77323" lon="5.19849">
        <ele>260.17</ele>
        <time>2014-05-15T09:10:41Z</time>
      </trkpt>
      <trkpt lat="43.7733" lon="5.19831">
        <ele>258.25</ele>
        <time>2014-05-15T09:10:57Z</time>
      </trkpt>
      <trkpt lat="43.77337" lon="5.1982">
        <ele>254.89</ele>
        <time>2014-05-15T09:11:09Z</time>
      </trkpt>
      <trkpt lat="43.77342" lon="5.19809">
        <ele>253.93</ele>
        <time>2014-05-15T09:11:22Z</time>
      </trkpt>
      <trkpt lat="43.77346" lon="5.19794">
        <ele>252.48</ele>
        <time>2014-05-15T09:11:34Z</time>
      </trkpt>
      <trkpt lat="43.7735" lon="5.19785">
        <ele>251.52</ele>
        <time>2014-05-15T09:11:41Z</time>
      </trkpt>
      <trkpt lat="43.7735" lon="5.19761">
        <ele>251.04</ele>
        <time>2014-05-15T09:11:56Z</time>
      </trkpt>
      <trkpt lat="43.77349" lon="5.19752">
        <ele>251.04</ele>
        <time>2014-05-15T09:12:02Z</time>
      </trkpt>
      <trkpt lat="43.77351" lon="5.19728">
        <ele>252</ele>
        <time>2014-05-15T09:12:16Z</time>
      </trkpt>
      <trkpt lat="43.77357" lon="5.19723">
        <ele>251.04</ele>
        <time>2014-05-15T09:12:29Z</time>
      </trkpt>
      <trkpt lat="43.77358" lon="5.19718">
        <ele>250.56</ele>
        <time>2014-05-15T09:12:33Z</time>
      </trkpt>
      <trkpt lat="43.77362" lon="5.19708">
        <ele>251.52</ele>
        <time>2014-05-15T09:12:47Z</time>
      </trkpt>
      <trkpt lat="43.77362" lon="5.19708">
        <ele>251.52</ele>
        <time>2014-05-15T09:13:07Z</time>
      </trkpt>
      <trkpt lat="43.77362" lon="5.19699">
        <ele>252</ele>
        <time>2014-05-15T09:13:22Z</time>
      </trkpt>
      <trkpt lat="43.77359" lon="5.19688">
        <ele>252</ele>
        <time>2014-05-15T09:13:35Z</time>
      </trkpt>
      <trkpt lat="43.77353" lon="5.19673">
        <ele>253.93</ele>
        <time>2014-05-15T09:13:50Z</time>
      </trkpt>
      <trkpt lat="43.7735" lon="5.19666">
        <ele>254.41</ele>
        <time>2014-05-15T09:13:55Z</time>
      </trkpt>
      <trkpt lat="43.77346" lon="5.19658">
        <ele>255.37</ele>
        <time>2014-05-15T09:14:01Z</time>
      </trkpt>
      <trkpt lat="43.77338" lon="5.1964">
        <ele>257.77</ele>
        <time>2014-05-15T09:14:16Z</time>
      </trkpt>
      <trkpt lat="43.77334" lon="5.19623">
        <ele>259.69</ele>
        <time>2014-05-15T09:14:29Z</time>
      </trkpt>
      <trkpt lat="43.77329" lon="5.19607">
        <ele>260.17</ele>
        <time>2014-05-15T09:14:42Z</time>
      </trkpt>
      <trkpt lat="43.77324" lon="5.19589">
        <ele>262.58</ele>
        <time>2014-05-15T09:14:58Z</time>
      </trkpt>
      <trkpt lat="43.77317" lon="5.1957">
        <ele>263.06</ele>
        <time>2014-05-15T09:15:14Z</time>
      </trkpt>
      <trkpt lat="43.77311" lon="5.19555">
        <ele>264.98</ele>
        <time>2014-05-15T09:15:28Z</time>
      </trkpt>
      <trkpt lat="43.77306" lon="5.19538">
        <ele>266.42</ele>
        <time>2014-05-15T09:15:45Z</time>
      </trkpt>
      <trkpt lat="43.77308" lon="5.19516">
        <ele>265.46</ele>
        <time>2014-05-15T09:16:02Z</time>
      </trkpt>
      <trkpt lat="43.77308" lon="5.19506">
        <ele>266.42</ele>
        <time>2014-05-15T09:16:09Z</time>
      </trkpt>
      <trkpt lat="43.77308" lon="5.19485">
        <ele>266.42</ele>
        <time>2014-05-15T09:16:25Z</time>
      </trkpt>
      <trkpt lat="43.77306" lon="5.19466">
        <ele>268.35</ele>
        <time>2014-05-15T09:16:40Z</time>
      </trkpt>
      <trkpt lat="43.7731" lon="5.19444">
        <ele>268.83</ele>
        <time>2014-05-15T09:16:54Z</time>
      </trkpt>
      <trkpt lat="43.77311" lon="5.19437">
        <ele>268.83</ele>
        <time>2014-05-15T09:16:59Z</time>
      </trkpt>
      <trkpt lat="43.77311" lon="5.19418">
        <ele>268.35</ele>
        <time>2014-05-15T09:17:12Z</time>
      </trkpt>
      <trkpt lat="43.77314" lon="5.19416">
        <ele>268.35</ele>
        <time>2014-05-15T09:17:15Z</time>
      </trkpt>
      <trkpt lat="43.77331" lon="5.19418">
        <ele>266.42</ele>
        <time>2014-05-15T09:17:30Z</time>
      </trkpt>
      <trkpt lat="43.7734" lon="5.19414">
        <ele>263.54</ele>
        <time>2014-05-15T09:17:44Z</time>
      </trkpt>
      <trkpt lat="43.77342" lon="5.19414">
        <ele>263.06</ele>
        <time>2014-05-15T09:17:46Z</time>
      </trkpt>
      <trkpt lat="43.77344" lon="5.19413">
        <ele>263.06</ele>
        <time>2014-05-15T09:17:48Z</time>
      </trkpt>
      <trkpt lat="43.7736" lon="5.19405">
        <ele>260.65</ele>
        <time>2014-05-15T09:18:06Z</time>
      </trkpt>
      <trkpt lat="43.77364" lon="5.19401">
        <ele>262.1</ele>
        <time>2014-05-15T09:18:11Z</time>
      </trkpt>
      <trkpt lat="43.77386" lon="5.19385">
        <ele>261.62</ele>
        <time>2014-05-15T09:18:32Z</time>
      </trkpt>
      <trkpt lat="43.774" lon="5.19375">
        <ele>262.58</ele>
        <time>2014-05-15T09:18:48Z</time>
      </trkpt>
      <trkpt lat="43.77415" lon="5.19365">
        <ele>262.58</ele>
        <time>2014-05-15T09:19:03Z</time>
      </trkpt>
      <trkpt lat="43.77416" lon="5.19364">
        <ele>263.06</ele>
        <time>2014-05-15T09:19:04Z</time>
      </trkpt>
      <trkpt lat="43.7742" lon="5.1936">
        <ele>265.46</ele>
        <time>2014-05-15T09:19:08Z</time>
      </trkpt>
      <trkpt lat="43.77435" lon="5.1935">
        <ele>265.94</ele>
        <time>2014-05-15T09:19:24Z</time>
      </trkpt>
      <trkpt lat="43.77451" lon="5.19337">
        <ele>265.94</ele>
        <time>2014-05-15T09:19:40Z</time>
      </trkpt>
      <trkpt lat="43.77453" lon="5.19336">
        <ele>265.94</ele>
        <time>2014-05-15T09:19:42Z</time>
      </trkpt>
      <trkpt lat="43.77456" lon="5.19333">
        <ele>266.42</ele>
        <time>2014-05-15T09:19:45Z</time>
      </trkpt>
      <trkpt lat="43.77465" lon="5.19312">
        <ele>264.02</ele>
        <time>2014-05-15T09:20:03Z</time>
      </trkpt>
      <trkpt lat="43.7748" lon="5.19298">
        <ele>264.02</ele>
        <time>2014-05-15T09:20:19Z</time>
      </trkpt>
      <trkpt lat="43.77482" lon="5.19297">
        <ele>264.5</ele>
        <time>2014-05-15T09:20:21Z</time>
      </trkpt>
      <trkpt lat="43.77499" lon="5.19289">
        <ele>263.54</ele>
        <time>2014-05-15T09:20:37Z</time>
      </trkpt>
      <trkpt lat="43.77509" lon="5.19286">
        <ele>264.5</ele>
        <time>2014-05-15T09:20:53Z</time>
      </trkpt>
      <trkpt lat="43.77508" lon="5.19285">
        <ele>262.58</ele>
        <time>2014-05-15T09:21:02Z</time>
      </trkpt>
      <trkpt lat="43.77508" lon="5.19285">
        <ele>264.02</ele>
        <time>2014-05-15T09:21:07Z</time>
      </trkpt>
      <trkpt lat="43.77507" lon="5.19285">
        <ele>264.02</ele>
        <time>2014-05-15T09:21:34Z</time>
      </trkpt>
      <trkpt lat="43.77506" lon="5.19283">
        <ele>264.02</ele>
        <time>2014-05-15T09:21:48Z</time>
      </trkpt>
      <trkpt lat="43.77511" lon="5.19285">
        <ele>264.5</ele>
        <time>2014-05-15T09:22:02Z</time>
      </trkpt>
      <trkpt lat="43.77523" lon="5.19288">
        <ele>264.5</ele>
        <time>2014-05-15T09:22:14Z</time>
      </trkpt>
      <trkpt lat="43.77533" lon="5.1929">
        <ele>263.54</ele>
        <time>2014-05-15T09:22:23Z</time>
      </trkpt>
      <trkpt lat="43.77537" lon="5.19289">
        <ele>262.58</ele>
        <time>2014-05-15T09:22:39Z</time>
      </trkpt>
      <trkpt lat="43.77536" lon="5.19288">
        <ele>261.62</ele>
        <time>2014-05-15T09:22:55Z</time>
      </trkpt>
      <trkpt lat="43.77536" lon="5.19289">
        <ele>263.06</ele>
        <time>2014-05-15T09:23:13Z</time>
      </trkpt>
      <trkpt lat="43.77544" lon="5.1929">
        <ele>262.58</ele>
        <time>2014-05-15T09:23:28Z</time>
      </trkpt>
      <trkpt lat="43.77552" lon="5.1929">
        <ele>262.58</ele>
        <time>2014-05-15T09:23:35Z</time>
      </trkpt>
      <trkpt lat="43.77566" lon="5.19287">
        <ele>262.1</ele>
        <time>2014-05-15T09:23:48Z</time>
      </trkpt>
      <trkpt lat="43.77572" lon="5.19285">
        <ele>262.1</ele>
        <time>2014-05-15T09:23:53Z</time>
      </trkpt>
      <trkpt lat="43.77584" lon="5.1928">
        <ele>260.65</ele>
        <time>2014-05-15T09:24:09Z</time>
      </trkpt>
      <trkpt lat="43.77593" lon="5.19277">
        <ele>259.69</ele>
        <time>2014-05-15T09:24:21Z</time>
      </trkpt>
      <trkpt lat="43.77601" lon="5.19263">
        <ele>260.17</ele>
        <time>2014-05-15T09:24:35Z</time>
      </trkpt>
      <trkpt lat="43.77603" lon="5.19247">
        <ele>260.65</ele>
        <time>2014-05-15T09:24:46Z</time>
      </trkpt>
      <trkpt lat="43.77602" lon="5.1924">
        <ele>260.17</ele>
        <time>2014-05-15T09:24:51Z</time>
      </trkpt>
      <trkpt lat="43.77593" lon="5.19217">
        <ele>258.73</ele>
        <time>2014-05-15T09:25:08Z</time>
      </trkpt>
      <trkpt lat="43.77583" lon="5.19202">
        <ele>257.29</ele>
        <time>2014-05-15T09:25:23Z</time>
      </trkpt>
      <trkpt lat="43.77584" lon="5.19202">
        <ele>256.33</ele>
        <time>2014-05-15T09:25:42Z</time>
      </trkpt>
      <trkpt lat="43.77584" lon="5.19203">
        <ele>256.33</ele>
        <time>2014-05-15T09:26:02Z</time>
      </trkpt>
      <trkpt lat="43.77582" lon="5.19201">
        <ele>256.33</ele>
        <time>2014-05-15T09:26:12Z</time>
      </trkpt>
      <trkpt lat="43.77579" lon="5.192">
        <ele>255.85</ele>
        <time>2014-05-15T09:26:15Z</time>
      </trkpt>
      <trkpt lat="43.77564" lon="5.19188">
        <ele>252.96</ele>
        <time>2014-05-15T09:26:30Z</time>
      </trkpt>
      <trkpt lat="43.77552" lon="5.1918">
        <ele>252.48</ele>
        <time>2014-05-15T09:26:45Z</time>
      </trkpt>
      <trkpt lat="43.77539" lon="5.19166">
        <ele>251.52</ele>
        <time>2014-05-15T09:27:00Z</time>
      </trkpt>
      <trkpt lat="43.77524" lon="5.19154">
        <ele>249.6</ele>
        <time>2014-05-15T09:27:14Z</time>
      </trkpt>
      <trkpt lat="43.77515" lon="5.19154">
        <ele>250.08</ele>
        <time>2014-05-15T09:27:28Z</time>
      </trkpt>
      <trkpt lat="43.77514" lon="5.19151">
        <ele>248.16</ele>
        <time>2014-05-15T09:27:41Z</time>
      </trkpt>
      <trkpt lat="43.77515" lon="5.19142">
        <ele>249.12</ele>
        <time>2014-05-15T09:28:03Z</time>
      </trkpt>
      <trkpt lat="43.77524" lon="5.19133">
        <ele>249.6</ele>
        <time>2014-05-15T09:28:20Z</time>
      </trkpt>
      <trkpt lat="43.77526" lon="5.19128">
        <ele>249.12</ele>
        <time>2014-05-15T09:28:42Z</time>
      </trkpt>
      <trkpt lat="43.77538" lon="5.19115">
        <ele>250.08</ele>
        <time>2014-05-15T09:28:55Z</time>
      </trkpt>
      <trkpt lat="43.77541" lon="5.19115">
        <ele>250.56</ele>
        <time>2014-05-15T09:29:15Z</time>
      </trkpt>
      <trkpt lat="43.77539" lon="5.19114">
        <ele>250.08</ele>
        <time>2014-05-15T09:29:43Z</time>
      </trkpt>
      <trkpt lat="43.77538" lon="5.19113">
        <ele>250.08</ele>
        <time>2014-05-15T09:30:18Z</time>
      </trkpt>
      <trkpt lat="43.77538" lon="5.19112">
        <ele>249.6</ele>
        <time>2014-05-15T09:30:48Z</time>
      </trkpt>
      <trkpt lat="43.77536" lon="5.19111">
        <ele>250.56</ele>
        <time>2014-05-15T09:31:10Z</time>
      </trkpt>
      <trkpt lat="43.77536" lon="5.19112">
        <ele>250.08</ele>
        <time>2014-05-15T09:31:38Z</time>
      </trkpt>
      <trkpt lat="43.77537" lon="5.19113">
        <ele>249.6</ele>
        <time>2014-05-15T09:31:54Z</time>
      </trkpt>
      <trkpt lat="43.77537" lon="5.19112">
        <ele>249.12</ele>
        <time>2014-05-15T09:32:07Z</time>
      </trkpt>
      <trkpt lat="43.7755" lon="5.191">
        <ele>251.04</ele>
        <time>2014-05-15T09:32:21Z</time>
      </trkpt>
      <trkpt lat="43.77552" lon="5.19099">
        <ele>251.04</ele>
        <time>2014-05-15T09:32:23Z</time>
      </trkpt>
      <trkpt lat="43.77564" lon="5.19089">
        <ele>253.93</ele>
        <time>2014-05-15T09:32:38Z</time>
      </trkpt>
      <trkpt lat="43.77582" lon="5.19073">
        <ele>253.44</ele>
        <time>2014-05-15T09:32:57Z</time>
      </trkpt>
      <trkpt lat="43.77597" lon="5.19063">
        <ele>253.44</ele>
        <time>2014-05-15T09:33:11Z</time>
      </trkpt>
      <trkpt lat="43.77602" lon="5.1905">
        <ele>254.89</ele>
        <time>2014-05-15T09:33:27Z</time>
      </trkpt>
      <trkpt lat="43.77602" lon="5.19052">
        <ele>254.41</ele>
        <time>2014-05-15T09:33:51Z</time>
      </trkpt>
      <trkpt lat="43.77613" lon="5.19056">
        <ele>253.93</ele>
        <time>2014-05-15T09:34:07Z</time>
      </trkpt>
      <trkpt lat="43.77629" lon="5.19054">
        <ele>255.37</ele>
        <time>2014-05-15T09:34:21Z</time>
      </trkpt>
      <trkpt lat="43.77644" lon="5.19053">
        <ele>255.85</ele>
        <time>2014-05-15T09:34:36Z</time>
      </trkpt>
      <trkpt lat="43.7766" lon="5.1905">
        <ele>256.33</ele>
        <time>2014-05-15T09:34:52Z</time>
      </trkpt>
      <trkpt lat="43.77673" lon="5.19043">
        <ele>256.33</ele>
        <time>2014-05-15T09:35:08Z</time>
      </trkpt>
      <trkpt lat="43.77685" lon="5.19043">
        <ele>257.29</ele>
        <time>2014-05-15T09:35:22Z</time>
      </trkpt>
      <trkpt lat="43.77693" lon="5.19032">
        <ele>258.25</ele>
        <time>2014-05-15T09:35:36Z</time>
      </trkpt>
      <trkpt lat="43.77707" lon="5.19021">
        <ele>258.25</ele>
        <time>2014-05-15T09:35:50Z</time>
      </trkpt>
      <trkpt lat="43.77719" lon="5.19026">
        <ele>258.25</ele>
        <time>2014-05-15T09:36:00Z</time>
      </trkpt>
      <trkpt lat="43.77722" lon="5.19029">
        <ele>258.25</ele>
        <time>2014-05-15T09:36:03Z</time>
      </trkpt>
      <trkpt lat="43.77732" lon="5.19036">
        <ele>259.21</ele>
        <time>2014-05-15T09:36:15Z</time>
      </trkpt>
      <trkpt lat="43.77747" lon="5.19034">
        <ele>259.69</ele>
        <time>2014-05-15T09:36:29Z</time>
      </trkpt>
      <trkpt lat="43.77765" lon="5.19025">
        <ele>260.65</ele>
        <time>2014-05-15T09:36:47Z</time>
      </trkpt>
      <trkpt lat="43.77777" lon="5.19011">
        <ele>261.62</ele>
        <time>2014-05-15T09:37:03Z</time>
      </trkpt>
      <trkpt lat="43.77789" lon="5.19001">
        <ele>261.14</ele>
        <time>2014-05-15T09:37:19Z</time>
      </trkpt>
      <trkpt lat="43.77804" lon="5.18993">
        <ele>262.58</ele>
        <time>2014-05-15T09:37:37Z</time>
      </trkpt>
      <trkpt lat="43.77822" lon="5.18993">
        <ele>262.58</ele>
        <time>2014-05-15T09:37:55Z</time>
      </trkpt>
      <trkpt lat="43.77831" lon="5.18993">
        <ele>263.54</ele>
        <time>2014-05-15T09:38:03Z</time>
      </trkpt>
      <trkpt lat="43.77845" lon="5.18993">
        <ele>264.5</ele>
        <time>2014-05-15T09:38:19Z</time>
      </trkpt>
      <trkpt lat="43.77858" lon="5.18994">
        <ele>264.98</ele>
        <time>2014-05-15T09:38:36Z</time>
      </trkpt>
      <trkpt lat="43.77876" lon="5.18991">
        <ele>264.98</ele>
        <time>2014-05-15T09:38:53Z</time>
      </trkpt>
      <trkpt lat="43.7789" lon="5.1898">
        <ele>264.98</ele>
        <time>2014-05-15T09:39:12Z</time>
      </trkpt>
      <trkpt lat="43.77905" lon="5.1897">
        <ele>265.46</ele>
        <time>2014-05-15T09:39:29Z</time>
      </trkpt>
      <trkpt lat="43.77915" lon="5.1896">
        <ele>266.9</ele>
        <time>2014-05-15T09:39:45Z</time>
      </trkpt>
      <trkpt lat="43.77925" lon="5.18941">
        <ele>266.42</ele>
        <time>2014-05-15T09:40:02Z</time>
      </trkpt>
      <trkpt lat="43.77933" lon="5.18921">
        <ele>268.35</ele>
        <time>2014-05-15T09:40:20Z</time>
      </trkpt>
      <trkpt lat="43.77945" lon="5.18905">
        <ele>268.83</ele>
        <time>2014-05-15T09:40:35Z</time>
      </trkpt>
      <trkpt lat="43.77951" lon="5.18889">
        <ele>268.83</ele>
        <time>2014-05-15T09:40:52Z</time>
      </trkpt>
      <trkpt lat="43.7795" lon="5.18879">
        <ele>269.79</ele>
        <time>2014-05-15T09:41:07Z</time>
      </trkpt>
      <trkpt lat="43.77947" lon="5.18862">
        <ele>270.27</ele>
        <time>2014-05-15T09:41:26Z</time>
      </trkpt>
      <trkpt lat="43.77948" lon="5.18843">
        <ele>270.75</ele>
        <time>2014-05-15T09:41:43Z</time>
      </trkpt>
      <trkpt lat="43.77958" lon="5.18817">
        <ele>272.19</ele>
        <time>2014-05-15T09:41:59Z</time>
      </trkpt>
      <trkpt lat="43.77972" lon="5.18816">
        <ele>272.67</ele>
        <time>2014-05-15T09:42:16Z</time>
      </trkpt>
      <trkpt lat="43.77987" lon="5.18817">
        <ele>273.15</ele>
        <time>2014-05-15T09:42:31Z</time>
      </trkpt>
      <trkpt lat="43.77997" lon="5.1882">
        <ele>273.15</ele>
        <time>2014-05-15T09:42:46Z</time>
      </trkpt>
      <trkpt lat="43.78009" lon="5.18821">
        <ele>273.63</ele>
        <time>2014-05-15T09:42:59Z</time>
      </trkpt>
      <trkpt lat="43.78021" lon="5.18824">
        <ele>274.59</ele>
        <time>2014-05-15T09:43:13Z</time>
      </trkpt>
      <trkpt lat="43.78024" lon="5.18826">
        <ele>275.07</ele>
        <time>2014-05-15T09:43:17Z</time>
      </trkpt>
      <trkpt lat="43.78036" lon="5.18833">
        <ele>276.52</ele>
        <time>2014-05-15T09:43:28Z</time>
      </trkpt>
      <trkpt lat="43.78044" lon="5.18834">
        <ele>276.52</ele>
        <time>2014-05-15T09:43:40Z</time>
      </trkpt>
      <trkpt lat="43.78054" lon="5.18839">
        <ele>277</ele>
        <time>2014-05-15T09:43:53Z</time>
      </trkpt>
      <trkpt lat="43.78063" lon="5.18845">
        <ele>277.96</ele>
        <time>2014-05-15T09:44:04Z</time>
      </trkpt>
      <trkpt lat="43.78077" lon="5.18855">
        <ele>277.48</ele>
        <time>2014-05-15T09:44:20Z</time>
      </trkpt>
      <trkpt lat="43.78086" lon="5.18862">
        <ele>277.96</ele>
        <time>2014-05-15T09:44:32Z</time>
      </trkpt>
      <trkpt lat="43.78094" lon="5.18873">
        <ele>277.48</ele>
        <time>2014-05-15T09:44:43Z</time>
      </trkpt>
      <trkpt lat="43.78104" lon="5.18881">
        <ele>278.92</ele>
        <time>2014-05-15T09:44:57Z</time>
      </trkpt>
      <trkpt lat="43.78116" lon="5.1889">
        <ele>277.96</ele>
        <time>2014-05-15T09:45:12Z</time>
      </trkpt>
      <trkpt lat="43.78118" lon="5.18891">
        <ele>277.96</ele>
        <time>2014-05-15T09:45:24Z</time>
      </trkpt>
      <trkpt lat="43.78117" lon="5.1889">
        <ele>277</ele>
        <time>2014-05-15T09:45:43Z</time>
      </trkpt>
      <trkpt lat="43.7813" lon="5.18889">
        <ele>279.4</ele>
        <time>2014-05-15T09:45:58Z</time>
      </trkpt>
      <trkpt lat="43.78135" lon="5.18888">
        <ele>278.92</ele>
        <time>2014-05-15T09:46:03Z</time>
      </trkpt>
      <trkpt lat="43.78154" lon="5.18889">
        <ele>280.84</ele>
        <time>2014-05-15T09:46:20Z</time>
      </trkpt>
      <trkpt lat="43.78168" lon="5.18895">
        <ele>281.8</ele>
        <time>2014-05-15T09:46:36Z</time>
      </trkpt>
      <trkpt lat="43.78176" lon="5.18901">
        <ele>282.28</ele>
        <time>2014-05-15T09:46:46Z</time>
      </trkpt>
      <trkpt lat="43.78181" lon="5.18903">
        <ele>282.77</ele>
        <time>2014-05-15T09:46:50Z</time>
      </trkpt>
      <trkpt lat="43.78191" lon="5.18907">
        <ele>283.73</ele>
        <time>2014-05-15T09:47:04Z</time>
      </trkpt>
      <trkpt lat="43.78204" lon="5.18909">
        <ele>283.25</ele>
        <time>2014-05-15T09:47:18Z</time>
      </trkpt>
      <trkpt lat="43.78206" lon="5.18908">
        <ele>283.73</ele>
        <time>2014-05-15T09:47:20Z</time>
      </trkpt>
      <trkpt lat="43.78219" lon="5.18903">
        <ele>284.69</ele>
        <time>2014-05-15T09:47:35Z</time>
      </trkpt>
      <trkpt lat="43.78233" lon="5.189">
        <ele>284.69</ele>
        <time>2014-05-15T09:47:51Z</time>
      </trkpt>
      <trkpt lat="43.78249" lon="5.18904">
        <ele>286.13</ele>
        <time>2014-05-15T09:48:05Z</time>
      </trkpt>
      <trkpt lat="43.78261" lon="5.18902">
        <ele>286.13</ele>
        <time>2014-05-15T09:48:19Z</time>
      </trkpt>
      <trkpt lat="43.78277" lon="5.18901">
        <ele>286.61</ele>
        <time>2014-05-15T09:48:36Z</time>
      </trkpt>
      <trkpt lat="43.7829" lon="5.18898">
        <ele>287.57</ele>
        <time>2014-05-15T09:48:49Z</time>
      </trkpt>
      <trkpt lat="43.78303" lon="5.18895">
        <ele>288.05</ele>
        <time>2014-05-15T09:49:03Z</time>
      </trkpt>
      <trkpt lat="43.78317" lon="5.18894">
        <ele>289.01</ele>
        <time>2014-05-15T09:49:16Z</time>
      </trkpt>
      <trkpt lat="43.78324" lon="5.18889">
        <ele>289.49</ele>
        <time>2014-05-15T09:49:32Z</time>
      </trkpt>
      <trkpt lat="43.7834" lon="5.18885">
        <ele>289.97</ele>
        <time>2014-05-15T09:49:50Z</time>
      </trkpt>
      <trkpt lat="43.78354" lon="5.18888">
        <ele>291.42</ele>
        <time>2014-05-15T09:50:04Z</time>
      </trkpt>
      <trkpt lat="43.78359" lon="5.18892">
        <ele>292.38</ele>
        <time>2014-05-15T09:50:10Z</time>
      </trkpt>
      <trkpt lat="43.78363" lon="5.18894">
        <ele>291.9</ele>
        <time>2014-05-15T09:50:14Z</time>
      </trkpt>
      <trkpt lat="43.78373" lon="5.18908">
        <ele>290.46</ele>
        <time>2014-05-15T09:50:31Z</time>
      </trkpt>
      <trkpt lat="43.78378" lon="5.1892">
        <ele>292.38</ele>
        <time>2014-05-15T09:50:43Z</time>
      </trkpt>
      <trkpt lat="43.78387" lon="5.18941">
        <ele>292.38</ele>
        <time>2014-05-15T09:51:01Z</time>
      </trkpt>
      <trkpt lat="43.78387" lon="5.18959">
        <ele>292.86</ele>
        <time>2014-05-15T09:51:16Z</time>
      </trkpt>
      <trkpt lat="43.78387" lon="5.18977">
        <ele>293.82</ele>
        <time>2014-05-15T09:51:32Z</time>
      </trkpt>
      <trkpt lat="43.78394" lon="5.18996">
        <ele>294.3</ele>
        <time>2014-05-15T09:51:50Z</time>
      </trkpt>
      <trkpt lat="43.78409" lon="5.19002">
        <ele>293.34</ele>
        <time>2014-05-15T09:52:07Z</time>
      </trkpt>
      <trkpt lat="43.78424" lon="5.1901">
        <ele>294.78</ele>
        <time>2014-05-15T09:52:24Z</time>
      </trkpt>
      <trkpt lat="43.78435" lon="5.19019">
        <ele>296.22</ele>
        <time>2014-05-15T09:52:37Z</time>
      </trkpt>
      <trkpt lat="43.78444" lon="5.19032">
        <ele>297.18</ele>
        <time>2014-05-15T09:52:53Z</time>
      </trkpt>
      <trkpt lat="43.78451" lon="5.1905">
        <ele>300.07</ele>
        <time>2014-05-15T09:53:10Z</time>
      </trkpt>
      <trkpt lat="43.7846" lon="5.19068">
        <ele>301.03</ele>
        <time>2014-05-15T09:53:28Z</time>
      </trkpt>
      <trkpt lat="43.78477" lon="5.19082">
        <ele>299.59</ele>
        <time>2014-05-15T09:53:50Z</time>
      </trkpt>
      <trkpt lat="43.785" lon="5.19094">
        <ele>301.99</ele>
        <time>2014-05-15T09:54:11Z</time>
      </trkpt>
      <trkpt lat="43.78513" lon="5.191">
        <ele>303.43</ele>
        <time>2014-05-15T09:54:28Z</time>
      </trkpt>
      <trkpt lat="43.78525" lon="5.19113">
        <ele>304.39</ele>
        <time>2014-05-15T09:54:44Z</time>
      </trkpt>
      <trkpt lat="43.78535" lon="5.19127">
        <ele>304.88</ele>
        <time>2014-05-15T09:55:00Z</time>
      </trkpt>
      <trkpt lat="43.7855" lon="5.19135">
        <ele>305.84</ele>
        <time>2014-05-15T09:55:18Z</time>
      </trkpt>
      <trkpt lat="43.78562" lon="5.19139">
        <ele>307.28</ele>
        <time>2014-05-15T09:55:32Z</time>
      </trkpt>
      <trkpt lat="43.78573" lon="5.19146">
        <ele>307.76</ele>
        <time>2014-05-15T09:55:46Z</time>
      </trkpt>
      <trkpt lat="43.78584" lon="5.19155">
        <ele>307.28</ele>
        <time>2014-05-15T09:56:00Z</time>
      </trkpt>
      <trkpt lat="43.78595" lon="5.19164">
        <ele>308.24</ele>
        <time>2014-05-15T09:56:17Z</time>
      </trkpt>
      <trkpt lat="43.78606" lon="5.19175">
        <ele>308.72</ele>
        <time>2014-05-15T09:56:34Z</time>
      </trkpt>
      <trkpt lat="43.78617" lon="5.19185">
        <ele>310.16</ele>
        <time>2014-05-15T09:56:50Z</time>
      </trkpt>
      <trkpt lat="43.7863" lon="5.19189">
        <ele>310.16</ele>
        <time>2014-05-15T09:57:07Z</time>
      </trkpt>
      <trkpt lat="43.7864" lon="5.19199">
        <ele>310.64</ele>
        <time>2014-05-15T09:57:21Z</time>
      </trkpt>
      <trkpt lat="43.78649" lon="5.19218">
        <ele>312.09</ele>
        <time>2014-05-15T09:57:39Z</time>
      </trkpt>
      <trkpt lat="43.7866" lon="5.19229">
        <ele>314.97</ele>
        <time>2014-05-15T09:57:55Z</time>
      </trkpt>
      <trkpt lat="43.78673" lon="5.19234">
        <ele>314.97</ele>
        <time>2014-05-15T09:58:11Z</time>
      </trkpt>
      <trkpt lat="43.78677" lon="5.19236">
        <ele>314.49</ele>
        <time>2014-05-15T09:58:19Z</time>
      </trkpt>
      <trkpt lat="43.78689" lon="5.19245">
        <ele>314.97</ele>
        <time>2014-05-15T09:58:32Z</time>
      </trkpt>
      <trkpt lat="43.78699" lon="5.19248">
        <ele>315.93</ele>
        <time>2014-05-15T09:58:48Z</time>
      </trkpt>
      <trkpt lat="43.78713" lon="5.19254">
        <ele>316.89</ele>
        <time>2014-05-15T09:59:06Z</time>
      </trkpt>
      <trkpt lat="43.78721" lon="5.19255">
        <ele>317.37</ele>
        <time>2014-05-15T09:59:20Z</time>
      </trkpt>
      <trkpt lat="43.78726" lon="5.19257">
        <ele>318.33</ele>
        <time>2014-05-15T09:59:44Z</time>
      </trkpt>
      <trkpt lat="43.78742" lon="5.19265">
        <ele>320.26</ele>
        <time>2014-05-15T10:00:03Z</time>
      </trkpt>
      <trkpt lat="43.78757" lon="5.19276">
        <ele>321.7</ele>
        <time>2014-05-15T10:00:18Z</time>
      </trkpt>
      <trkpt lat="43.78768" lon="5.19288">
        <ele>322.66</ele>
        <time>2014-05-15T10:00:33Z</time>
      </trkpt>
      <trkpt lat="43.7877" lon="5.1929">
        <ele>322.66</ele>
        <time>2014-05-15T10:00:35Z</time>
      </trkpt>
      <trkpt lat="43.78782" lon="5.1931">
        <ele>323.62</ele>
        <time>2014-05-15T10:00:53Z</time>
      </trkpt>
      <trkpt lat="43.78781" lon="5.19316">
        <ele>324.1</ele>
        <time>2014-05-15T10:01:12Z</time>
      </trkpt>
      <trkpt lat="43.78782" lon="5.19318">
        <ele>324.1</ele>
        <time>2014-05-15T10:01:28Z</time>
      </trkpt>
      <trkpt lat="43.78783" lon="5.19318">
        <ele>323.62</ele>
        <time>2014-05-15T10:01:49Z</time>
      </trkpt>
      <trkpt lat="43.78781" lon="5.19317">
        <ele>324.1</ele>
        <time>2014-05-15T10:02:02Z</time>
      </trkpt>
      <trkpt lat="43.78781" lon="5.19317">
        <ele>324.1</ele>
        <time>2014-05-15T10:02:22Z</time>
      </trkpt>
      <trkpt lat="43.78781" lon="5.19317">
        <ele>324.1</ele>
        <time>2014-05-15T10:02:40Z</time>
      </trkpt>
      <trkpt lat="43.78781" lon="5.19317">
        <ele>323.62</ele>
        <time>2014-05-15T10:03:01Z</time>
      </trkpt>
      <trkpt lat="43.78781" lon="5.19317">
        <ele>323.62</ele>
        <time>2014-05-15T10:03:26Z</time>
      </trkpt>
      <trkpt lat="43.78782" lon="5.19318">
        <ele>324.1</ele>
        <time>2014-05-15T10:03:46Z</time>
      </trkpt>
      <trkpt lat="43.7878" lon="5.19319">
        <ele>324.58</ele>
        <time>2014-05-15T10:03:59Z</time>
      </trkpt>
      <trkpt lat="43.78781" lon="5.19319">
        <ele>324.1</ele>
        <time>2014-05-15T10:04:29Z</time>
      </trkpt>
      <trkpt lat="43.7878" lon="5.19318">
        <ele>324.1</ele>
        <time>2014-05-15T10:04:47Z</time>
      </trkpt>
      <trkpt lat="43.7878" lon="5.19317">
        <ele>324.1</ele>
        <time>2014-05-15T10:05:11Z</time>
      </trkpt>
      <trkpt lat="43.7878" lon="5.19318">
        <ele>324.1</ele>
        <time>2014-05-15T10:05:37Z</time>
      </trkpt>
      <trkpt lat="43.78781" lon="5.1932">
        <ele>322.66</ele>
        <time>2014-05-15T10:06:04Z</time>
      </trkpt>
      <trkpt lat="43.78782" lon="5.19319">
        <ele>323.14</ele>
        <time>2014-05-15T10:06:32Z</time>
      </trkpt>
      <trkpt lat="43.78783" lon="5.1932">
        <ele>323.62</ele>
        <time>2014-05-15T10:07:04Z</time>
      </trkpt>
      <trkpt lat="43.78782" lon="5.19319">
        <ele>323.14</ele>
        <time>2014-05-15T10:07:23Z</time>
      </trkpt>
      <trkpt lat="43.78782" lon="5.19321">
        <ele>322.18</ele>
        <time>2014-05-15T10:07:42Z</time>
      </trkpt>
      <trkpt lat="43.78783" lon="5.19326">
        <ele>321.7</ele>
        <time>2014-05-15T10:07:56Z</time>
      </trkpt>
      <trkpt lat="43.78783" lon="5.19326">
        <ele>321.22</ele>
        <time>2014-05-15T10:08:25Z</time>
      </trkpt>
      <trkpt lat="43.78782" lon="5.19327">
        <ele>322.18</ele>
        <time>2014-05-15T10:08:45Z</time>
      </trkpt>
      <trkpt lat="43.78781" lon="5.19333">
        <ele>322.18</ele>
        <time>2014-05-15T10:08:57Z</time>
      </trkpt>
      <trkpt lat="43.78783" lon="5.19354">
        <ele>323.14</ele>
        <time>2014-05-15T10:09:16Z</time>
      </trkpt>
      <trkpt lat="43.7878" lon="5.19371">
        <ele>324.58</ele>
        <time>2014-05-15T10:09:35Z</time>
      </trkpt>
      <trkpt lat="43.78779" lon="5.19396">
        <ele>325.54</ele>
        <time>2014-05-15T10:09:55Z</time>
      </trkpt>
      <trkpt lat="43.78783" lon="5.19423">
        <ele>325.54</ele>
        <time>2014-05-15T10:10:11Z</time>
      </trkpt>
      <trkpt lat="43.788" lon="5.19435">
        <ele>327.47</ele>
        <time>2014-05-15T10:10:30Z</time>
      </trkpt>
      <trkpt lat="43.78811" lon="5.19444">
        <ele>327.95</ele>
        <time>2014-05-15T10:10:49Z</time>
      </trkpt>
      <trkpt lat="43.78823" lon="5.19454">
        <ele>328.91</ele>
        <time>2014-05-15T10:11:05Z</time>
      </trkpt>
      <trkpt lat="43.78832" lon="5.1946">
        <ele>330.83</ele>
        <time>2014-05-15T10:11:21Z</time>
      </trkpt>
      <trkpt lat="43.78849" lon="5.19474">
        <ele>331.79</ele>
        <time>2014-05-15T10:11:38Z</time>
      </trkpt>
      <trkpt lat="43.78861" lon="5.19484">
        <ele>333.23</ele>
        <time>2014-05-15T10:11:55Z</time>
      </trkpt>
      <trkpt lat="43.78865" lon="5.19491">
        <ele>334.68</ele>
        <time>2014-05-15T10:12:11Z</time>
      </trkpt>
      <trkpt lat="43.78877" lon="5.19489">
        <ele>335.64</ele>
        <time>2014-05-15T10:12:25Z</time>
      </trkpt>
      <trkpt lat="43.78883" lon="5.19484">
        <ele>338.04</ele>
        <time>2014-05-15T10:12:40Z</time>
      </trkpt>
      <trkpt lat="43.78889" lon="5.19478">
        <ele>339.96</ele>
        <time>2014-05-15T10:12:50Z</time>
      </trkpt>
      <trkpt lat="43.78893" lon="5.19467">
        <ele>341.41</ele>
        <time>2014-05-15T10:13:03Z</time>
      </trkpt>
      <trkpt lat="43.78891" lon="5.19453">
        <ele>342.85</ele>
        <time>2014-05-15T10:13:21Z</time>
      </trkpt>
      <trkpt lat="43.78892" lon="5.19447">
        <ele>342.37</ele>
        <time>2014-05-15T10:13:47Z</time>
      </trkpt>
      <trkpt lat="43.78892" lon="5.19446">
        <ele>342.85</ele>
        <time>2014-05-15T10:14:03Z</time>
      </trkpt>
      <trkpt lat="43.78893" lon="5.19447">
        <ele>343.33</ele>
        <time>2014-05-15T10:14:24Z</time>
      </trkpt>
      <trkpt lat="43.78894" lon="5.19447">
        <ele>344.77</ele>
        <time>2014-05-15T10:14:46Z</time>
      </trkpt>
      <trkpt lat="43.78898" lon="5.19438">
        <ele>343.81</ele>
        <time>2014-05-15T10:15:00Z</time>
      </trkpt>
      <trkpt lat="43.789" lon="5.19435">
        <ele>343.81</ele>
        <time>2014-05-15T10:15:04Z</time>
      </trkpt>
      <trkpt lat="43.78911" lon="5.19427">
        <ele>343.81</ele>
        <time>2014-05-15T10:15:23Z</time>
      </trkpt>
      <trkpt lat="43.7893" lon="5.19432">
        <ele>345.73</ele>
        <time>2014-05-15T10:15:43Z</time>
      </trkpt>
      <trkpt lat="43.78944" lon="5.19435">
        <ele>348.13</ele>
        <time>2014-05-15T10:16:00Z</time>
      </trkpt>
      <trkpt lat="43.78954" lon="5.19443">
        <ele>349.58</ele>
        <time>2014-05-15T10:16:13Z</time>
      </trkpt>
      <trkpt lat="43.78966" lon="5.19452">
        <ele>351.5</ele>
        <time>2014-05-15T10:16:30Z</time>
      </trkpt>
      <trkpt lat="43.78979" lon="5.1945">
        <ele>351.98</ele>
        <time>2014-05-15T10:16:44Z</time>
      </trkpt>
      <trkpt lat="43.78987" lon="5.19448">
        <ele>352.46</ele>
        <time>2014-05-15T10:16:58Z</time>
      </trkpt>
      <trkpt lat="43.78998" lon="5.19449">
        <ele>352.94</ele>
        <time>2014-05-15T10:17:11Z</time>
      </trkpt>
      <trkpt lat="43.79005" lon="5.19457">
        <ele>353.9</ele>
        <time>2014-05-15T10:17:24Z</time>
      </trkpt>
      <trkpt lat="43.7901" lon="5.19469">
        <ele>353.9</ele>
        <time>2014-05-15T10:17:36Z</time>
      </trkpt>
      <trkpt lat="43.79013" lon="5.19479">
        <ele>353.9</ele>
        <time>2014-05-15T10:17:48Z</time>
      </trkpt>
      <trkpt lat="43.79014" lon="5.19486">
        <ele>354.38</ele>
        <time>2014-05-15T10:18:02Z</time>
      </trkpt>
      <trkpt lat="43.79025" lon="5.19498">
        <ele>354.86</ele>
        <time>2014-05-15T10:18:16Z</time>
      </trkpt>
      <trkpt lat="43.79027" lon="5.19499">
        <ele>354.86</ele>
        <time>2014-05-15T10:18:18Z</time>
      </trkpt>
      <trkpt lat="43.79034" lon="5.19506">
        <ele>355.34</ele>
        <time>2014-05-15T10:18:28Z</time>
      </trkpt>
      <trkpt lat="43.79044" lon="5.1952">
        <ele>356.31</ele>
        <time>2014-05-15T10:18:42Z</time>
      </trkpt>
      <trkpt lat="43.79045" lon="5.19527">
        <ele>356.31</ele>
        <time>2014-05-15T10:18:51Z</time>
      </trkpt>
      <trkpt lat="43.79054" lon="5.1954">
        <ele>357.27</ele>
        <time>2014-05-15T10:19:08Z</time>
      </trkpt>
      <trkpt lat="43.79064" lon="5.19537">
        <ele>358.23</ele>
        <time>2014-05-15T10:19:17Z</time>
      </trkpt>
      <trkpt lat="43.79079" lon="5.1953">
        <ele>359.19</ele>
        <time>2014-05-15T10:19:31Z</time>
      </trkpt>
      <trkpt lat="43.79089" lon="5.19532">
        <ele>360.15</ele>
        <time>2014-05-15T10:19:44Z</time>
      </trkpt>
      <trkpt lat="43.79103" lon="5.1954">
        <ele>360.63</ele>
        <time>2014-05-15T10:20:01Z</time>
      </trkpt>
      <trkpt lat="43.79111" lon="5.19553">
        <ele>361.11</ele>
        <time>2014-05-15T10:20:16Z</time>
      </trkpt>
      <trkpt lat="43.7912" lon="5.19569">
        <ele>362.55</ele>
        <time>2014-05-15T10:20:31Z</time>
      </trkpt>
      <trkpt lat="43.79125" lon="5.19582">
        <ele>364.48</ele>
        <time>2014-05-15T10:20:45Z</time>
      </trkpt>
      <trkpt lat="43.79126" lon="5.19595">
        <ele>365.44</ele>
        <time>2014-05-15T10:20:59Z</time>
      </trkpt>
      <trkpt lat="43.79125" lon="5.19613">
        <ele>365.92</ele>
        <time>2014-05-15T10:21:12Z</time>
      </trkpt>
      <trkpt lat="43.79121" lon="5.19628">
        <ele>367.36</ele>
        <time>2014-05-15T10:21:27Z</time>
      </trkpt>
      <trkpt lat="43.79124" lon="5.19644">
        <ele>368.8</ele>
        <time>2014-05-15T10:21:41Z</time>
      </trkpt>
      <trkpt lat="43.79134" lon="5.19658">
        <ele>369.76</ele>
        <time>2014-05-15T10:21:59Z</time>
      </trkpt>
      <trkpt lat="43.79129" lon="5.19676">
        <ele>370.73</ele>
        <time>2014-05-15T10:22:15Z</time>
      </trkpt>
      <trkpt lat="43.79125" lon="5.19685">
        <ele>372.17</ele>
        <time>2014-05-15T10:22:31Z</time>
      </trkpt>
      <trkpt lat="43.79123" lon="5.19685">
        <ele>373.61</ele>
        <time>2014-05-15T10:22:49Z</time>
      </trkpt>
      <trkpt lat="43.79121" lon="5.19686">
        <ele>375.53</ele>
        <time>2014-05-15T10:23:06Z</time>
      </trkpt>
      <trkpt lat="43.7912" lon="5.19689">
        <ele>376.01</ele>
        <time>2014-05-15T10:23:21Z</time>
      </trkpt>
      <trkpt lat="43.79106" lon="5.19717">
        <ele>376.97</ele>
        <time>2014-05-15T10:23:36Z</time>
      </trkpt>
      <trkpt lat="43.791" lon="5.19744">
        <ele>378.42</ele>
        <time>2014-05-15T10:23:55Z</time>
      </trkpt>
      <trkpt lat="43.79089" lon="5.19783">
        <ele>381.3</ele>
        <time>2014-05-15T10:24:13Z</time>
      </trkpt>
      <trkpt lat="43.79093" lon="5.19815">
        <ele>383.22</ele>
        <time>2014-05-15T10:24:32Z</time>
      </trkpt>
      <trkpt lat="43.79096" lon="5.19835">
        <ele>384.18</ele>
        <time>2014-05-15T10:24:49Z</time>
      </trkpt>
      <trkpt lat="43.79102" lon="5.19854">
        <ele>385.15</ele>
        <time>2014-05-15T10:25:07Z</time>
      </trkpt>
      <trkpt lat="43.79104" lon="5.1987">
        <ele>386.59</ele>
        <time>2014-05-15T10:25:23Z</time>
      </trkpt>
      <trkpt lat="43.79104" lon="5.1989">
        <ele>388.99</ele>
        <time>2014-05-15T10:25:41Z</time>
      </trkpt>
      <trkpt lat="43.7911" lon="5.19912">
        <ele>389.95</ele>
        <time>2014-05-15T10:26:00Z</time>
      </trkpt>
      <trkpt lat="43.7911" lon="5.19925">
        <ele>391.87</ele>
        <time>2014-05-15T10:26:18Z</time>
      </trkpt>
      <trkpt lat="43.79102" lon="5.19942">
        <ele>394.76</ele>
        <time>2014-05-15T10:26:38Z</time>
      </trkpt>
      <trkpt lat="43.79096" lon="5.1996">
        <ele>397.16</ele>
        <time>2014-05-15T10:26:58Z</time>
      </trkpt>
      <trkpt lat="43.79093" lon="5.19989">
        <ele>398.6</ele>
        <time>2014-05-15T10:27:16Z</time>
      </trkpt>
      <trkpt lat="43.791" lon="5.19995">
        <ele>401.49</ele>
        <time>2014-05-15T10:27:37Z</time>
      </trkpt>
      <trkpt lat="43.79109" lon="5.20005">
        <ele>403.41</ele>
        <time>2014-05-15T10:27:58Z</time>
      </trkpt>
      <trkpt lat="43.79125" lon="5.20019">
        <ele>405.81</ele>
        <time>2014-05-15T10:28:12Z</time>
      </trkpt>
      <trkpt lat="43.7913" lon="5.20035">
        <ele>406.77</ele>
        <time>2014-05-15T10:28:30Z</time>
      </trkpt>
      <trkpt lat="43.79137" lon="5.20057">
        <ele>408.7</ele>
        <time>2014-05-15T10:28:51Z</time>
      </trkpt>
      <trkpt lat="43.79146" lon="5.20075">
        <ele>410.14</ele>
        <time>2014-05-15T10:29:09Z</time>
      </trkpt>
      <trkpt lat="43.79145" lon="5.2008">
        <ele>411.1</ele>
        <time>2014-05-15T10:29:23Z</time>
      </trkpt>
      <trkpt lat="43.79149" lon="5.20083">
        <ele>410.62</ele>
        <time>2014-05-15T10:29:53Z</time>
      </trkpt>
      <trkpt lat="43.7915" lon="5.20085">
        <ele>410.14</ele>
        <time>2014-05-15T10:30:17Z</time>
      </trkpt>
      <trkpt lat="43.79153" lon="5.20084">
        <ele>410.14</ele>
        <time>2014-05-15T10:30:37Z</time>
      </trkpt>
      <trkpt lat="43.79152" lon="5.20086">
        <ele>409.66</ele>
        <time>2014-05-15T10:31:00Z</time>
      </trkpt>
      <trkpt lat="43.79152" lon="5.20086">
        <ele>410.14</ele>
        <time>2014-05-15T10:31:25Z</time>
      </trkpt>
      <trkpt lat="43.79153" lon="5.20089">
        <ele>410.14</ele>
        <time>2014-05-15T10:31:47Z</time>
      </trkpt>
      <trkpt lat="43.79153" lon="5.20092">
        <ele>410.14</ele>
        <time>2014-05-15T10:32:06Z</time>
      </trkpt>
      <trkpt lat="43.79154" lon="5.20103">
        <ele>410.62</ele>
        <time>2014-05-15T10:32:23Z</time>
      </trkpt>
      <trkpt lat="43.79164" lon="5.20126">
        <ele>412.54</ele>
        <time>2014-05-15T10:32:43Z</time>
      </trkpt>
      <trkpt lat="43.79167" lon="5.20146">
        <ele>413.5</ele>
        <time>2014-05-15T10:33:00Z</time>
      </trkpt>
      <trkpt lat="43.79166" lon="5.20162">
        <ele>415.43</ele>
        <time>2014-05-15T10:33:20Z</time>
      </trkpt>
      <trkpt lat="43.79163" lon="5.20194">
        <ele>416.39</ele>
        <time>2014-05-15T10:33:38Z</time>
      </trkpt>
      <trkpt lat="43.79165" lon="5.20226">
        <ele>418.79</ele>
        <time>2014-05-15T10:33:58Z</time>
      </trkpt>
      <trkpt lat="43.7917" lon="5.20245">
        <ele>421.19</ele>
        <time>2014-05-15T10:34:17Z</time>
      </trkpt>
      <trkpt lat="43.79174" lon="5.20261">
        <ele>423.6</ele>
        <time>2014-05-15T10:34:34Z</time>
      </trkpt>
      <trkpt lat="43.79181" lon="5.20282">
        <ele>426.48</ele>
        <time>2014-05-15T10:34:51Z</time>
      </trkpt>
      <trkpt lat="43.79184" lon="5.20304">
        <ele>428.4</ele>
        <time>2014-05-15T10:35:09Z</time>
      </trkpt>
      <trkpt lat="43.79193" lon="5.20315">
        <ele>429.85</ele>
        <time>2014-05-15T10:35:25Z</time>
      </trkpt>
      <trkpt lat="43.79204" lon="5.20327">
        <ele>431.77</ele>
        <time>2014-05-15T10:35:42Z</time>
      </trkpt>
      <trkpt lat="43.79204" lon="5.20334">
        <ele>429.85</ele>
        <time>2014-05-15T10:36:01Z</time>
      </trkpt>
      <trkpt lat="43.79201" lon="5.20341">
        <ele>431.77</ele>
        <time>2014-05-15T10:36:19Z</time>
      </trkpt>
      <trkpt lat="43.79201" lon="5.20373">
        <ele>432.73</ele>
        <time>2014-05-15T10:36:37Z</time>
      </trkpt>
      <trkpt lat="43.79191" lon="5.20402">
        <ele>435.13</ele>
        <time>2014-05-15T10:36:58Z</time>
      </trkpt>
      <trkpt lat="43.79189" lon="5.2042">
        <ele>438.02</ele>
        <time>2014-05-15T10:37:15Z</time>
      </trkpt>
      <trkpt lat="43.7919" lon="5.2043">
        <ele>440.42</ele>
        <time>2014-05-15T10:37:27Z</time>
      </trkpt>
      <trkpt lat="43.79196" lon="5.20436">
        <ele>440.9</ele>
        <time>2014-05-15T10:37:42Z</time>
      </trkpt>
      <trkpt lat="43.79195" lon="5.20455">
        <ele>440.9</ele>
        <time>2014-05-15T10:38:02Z</time>
      </trkpt>
      <trkpt lat="43.79198" lon="5.20474">
        <ele>441.38</ele>
        <time>2014-05-15T10:38:22Z</time>
      </trkpt>
      <trkpt lat="43.792" lon="5.20492">
        <ele>444.75</ele>
        <time>2014-05-15T10:38:39Z</time>
      </trkpt>
      <trkpt lat="43.79203" lon="5.20504">
        <ele>447.63</ele>
        <time>2014-05-15T10:38:52Z</time>
      </trkpt>
      <trkpt lat="43.79208" lon="5.20521">
        <ele>451.48</ele>
        <time>2014-05-15T10:39:07Z</time>
      </trkpt>
      <trkpt lat="43.79214" lon="5.20537">
        <ele>454.36</ele>
        <time>2014-05-15T10:39:28Z</time>
      </trkpt>
      <trkpt lat="43.79213" lon="5.20545">
        <ele>455.32</ele>
        <time>2014-05-15T10:39:38Z</time>
      </trkpt>
      <trkpt lat="43.79209" lon="5.20557">
        <ele>456.76</ele>
        <time>2014-05-15T10:39:53Z</time>
      </trkpt>
      <trkpt lat="43.79202" lon="5.20571">
        <ele>457.72</ele>
        <time>2014-05-15T10:40:06Z</time>
      </trkpt>
      <trkpt lat="43.79201" lon="5.20587">
        <ele>461.09</ele>
        <time>2014-05-15T10:40:21Z</time>
      </trkpt>
      <trkpt lat="43.79201" lon="5.20597">
        <ele>462.53</ele>
        <time>2014-05-15T10:40:32Z</time>
      </trkpt>
      <trkpt lat="43.79195" lon="5.20609">
        <ele>463.97</ele>
        <time>2014-05-15T10:40:45Z</time>
      </trkpt>
      <trkpt lat="43.79194" lon="5.20615">
        <ele>466.38</ele>
        <time>2014-05-15T10:41:02Z</time>
      </trkpt>
      <trkpt lat="43.79193" lon="5.20634">
        <ele>466.38</ele>
        <time>2014-05-15T10:41:17Z</time>
      </trkpt>
      <trkpt lat="43.79194" lon="5.20649">
        <ele>468.3</ele>
        <time>2014-05-15T10:41:35Z</time>
      </trkpt>
      <trkpt lat="43.79191" lon="5.20663">
        <ele>469.74</ele>
        <time>2014-05-15T10:41:55Z</time>
      </trkpt>
      <trkpt lat="43.79188" lon="5.20678">
        <ele>471.18</ele>
        <time>2014-05-15T10:42:13Z</time>
      </trkpt>
      <trkpt lat="43.79188" lon="5.20707">
        <ele>473.11</ele>
        <time>2014-05-15T10:42:31Z</time>
      </trkpt>
      <trkpt lat="43.79186" lon="5.20737">
        <ele>473.11</ele>
        <time>2014-05-15T10:42:47Z</time>
      </trkpt>
      <trkpt lat="43.79191" lon="5.20757">
        <ele>475.03</ele>
        <time>2014-05-15T10:43:04Z</time>
      </trkpt>
      <trkpt lat="43.79194" lon="5.20768">
        <ele>475.99</ele>
        <time>2014-05-15T10:43:19Z</time>
      </trkpt>
      <trkpt lat="43.79194" lon="5.20784">
        <ele>477.43</ele>
        <time>2014-05-15T10:43:37Z</time>
      </trkpt>
      <trkpt lat="43.79194" lon="5.20797">
        <ele>479.35</ele>
        <time>2014-05-15T10:43:53Z</time>
      </trkpt>
      <trkpt lat="43.79201" lon="5.20806">
        <ele>482.72</ele>
        <time>2014-05-15T10:44:07Z</time>
      </trkpt>
      <trkpt lat="43.79207" lon="5.2082">
        <ele>485.6</ele>
        <time>2014-05-15T10:44:22Z</time>
      </trkpt>
      <trkpt lat="43.79212" lon="5.20831">
        <ele>487.53</ele>
        <time>2014-05-15T10:44:40Z</time>
      </trkpt>
      <trkpt lat="43.79215" lon="5.2084">
        <ele>490.89</ele>
        <time>2014-05-15T10:44:54Z</time>
      </trkpt>
      <trkpt lat="43.7922" lon="5.20846">
        <ele>493.77</ele>
        <time>2014-05-15T10:45:08Z</time>
      </trkpt>
      <trkpt lat="43.79223" lon="5.2085">
        <ele>496.66</ele>
        <time>2014-05-15T10:45:27Z</time>
      </trkpt>
      <trkpt lat="43.79226" lon="5.20859">
        <ele>499.54</ele>
        <time>2014-05-15T10:45:42Z</time>
      </trkpt>
      <trkpt lat="43.79233" lon="5.20865">
        <ele>501.46</ele>
        <time>2014-05-15T10:45:57Z</time>
      </trkpt>
      <trkpt lat="43.79235" lon="5.20863">
        <ele>500.02</ele>
        <time>2014-05-15T10:46:21Z</time>
      </trkpt>
      <trkpt lat="43.79236" lon="5.20863">
        <ele>500.98</ele>
        <time>2014-05-15T10:46:37Z</time>
      </trkpt>
      <trkpt lat="43.79238" lon="5.20863">
        <ele>502.43</ele>
        <time>2014-05-15T10:46:53Z</time>
      </trkpt>
      <trkpt lat="43.79239" lon="5.20865">
        <ele>500.5</ele>
        <time>2014-05-15T10:47:12Z</time>
      </trkpt>
      <trkpt lat="43.79239" lon="5.20866">
        <ele>499.54</ele>
        <time>2014-05-15T10:47:40Z</time>
      </trkpt>
      <trkpt lat="43.79239" lon="5.20866">
        <ele>500.98</ele>
        <time>2014-05-15T10:48:10Z</time>
      </trkpt>
      <trkpt lat="43.79238" lon="5.20867">
        <ele>500.5</ele>
        <time>2014-05-15T10:48:37Z</time>
      </trkpt>
      <trkpt lat="43.79239" lon="5.2087">
        <ele>500.02</ele>
        <time>2014-05-15T10:49:00Z</time>
      </trkpt>
      <trkpt lat="43.79238" lon="5.20869">
        <ele>500.5</ele>
        <time>2014-05-15T10:49:24Z</time>
      </trkpt>
      <trkpt lat="43.79237" lon="5.20869">
        <ele>501.46</ele>
        <time>2014-05-15T10:49:52Z</time>
      </trkpt>
      <trkpt lat="43.79237" lon="5.20869">
        <ele>501.46</ele>
        <time>2014-05-15T10:50:11Z</time>
      </trkpt>
      <trkpt lat="43.79237" lon="5.20869">
        <ele>501.46</ele>
        <time>2014-05-15T10:50:30Z</time>
      </trkpt>
      <trkpt lat="43.79237" lon="5.20868">
        <ele>500.98</ele>
        <time>2014-05-15T10:50:45Z</time>
      </trkpt>
      <trkpt lat="43.79236" lon="5.20869">
        <ele>500.98</ele>
        <time>2014-05-15T10:51:05Z</time>
      </trkpt>
      <trkpt lat="43.79236" lon="5.20871">
        <ele>501.46</ele>
        <time>2014-05-15T10:51:29Z</time>
      </trkpt>
      <trkpt lat="43.79237" lon="5.20872">
        <ele>501.46</ele>
        <time>2014-05-15T10:51:56Z</time>
      </trkpt>
      <trkpt lat="43.79237" lon="5.20872">
        <ele>502.43</ele>
        <time>2014-05-15T10:52:23Z</time>
      </trkpt>
      <trkpt lat="43.79238" lon="5.20874">
        <ele>501.46</ele>
        <time>2014-05-15T10:52:47Z</time>
      </trkpt>
      <trkpt lat="43.79243" lon="5.20885">
        <ele>502.91</ele>
        <time>2014-05-15T10:53:01Z</time>
      </trkpt>
      <trkpt lat="43.79247" lon="5.20905">
        <ele>504.83</ele>
        <time>2014-05-15T10:53:16Z</time>
      </trkpt>
      <trkpt lat="43.79253" lon="5.20919">
        <ele>505.79</ele>
        <time>2014-05-15T10:53:33Z</time>
      </trkpt>
      <trkpt lat="43.79257" lon="5.20933">
        <ele>509.16</ele>
        <time>2014-05-15T10:53:50Z</time>
      </trkpt>
      <trkpt lat="43.79264" lon="5.20951">
        <ele>511.08</ele>
        <time>2014-05-15T10:54:09Z</time>
      </trkpt>
      <trkpt lat="43.79263" lon="5.20972">
        <ele>511.56</ele>
        <time>2014-05-15T10:54:26Z</time>
      </trkpt>
      <trkpt lat="43.79267" lon="5.20995">
        <ele>513.48</ele>
        <time>2014-05-15T10:54:44Z</time>
      </trkpt>
      <trkpt lat="43.79271" lon="5.21018">
        <ele>514.92</ele>
        <time>2014-05-15T10:55:04Z</time>
      </trkpt>
      <trkpt lat="43.79277" lon="5.21027">
        <ele>517.33</ele>
        <time>2014-05-15T10:55:21Z</time>
      </trkpt>
      <trkpt lat="43.7928" lon="5.21047">
        <ele>519.73</ele>
        <time>2014-05-15T10:55:38Z</time>
      </trkpt>
      <trkpt lat="43.79268" lon="5.21066">
        <ele>518.77</ele>
        <time>2014-05-15T10:55:58Z</time>
      </trkpt>
      <trkpt lat="43.79259" lon="5.21077">
        <ele>522.13</ele>
        <time>2014-05-15T10:56:14Z</time>
      </trkpt>
      <trkpt lat="43.79254" lon="5.21091">
        <ele>522.61</ele>
        <time>2014-05-15T10:56:32Z</time>
      </trkpt>
      <trkpt lat="43.79252" lon="5.21112">
        <ele>523.09</ele>
        <time>2014-05-15T10:56:51Z</time>
      </trkpt>
      <trkpt lat="43.7925" lon="5.21131">
        <ele>524.06</ele>
        <time>2014-05-15T10:57:06Z</time>
      </trkpt>
      <trkpt lat="43.79245" lon="5.21151">
        <ele>526.94</ele>
        <time>2014-05-15T10:57:19Z</time>
      </trkpt>
      <trkpt lat="43.79247" lon="5.21162">
        <ele>527.9</ele>
        <time>2014-05-15T10:57:35Z</time>
      </trkpt>
      <trkpt lat="43.79252" lon="5.21177">
        <ele>528.38</ele>
        <time>2014-05-15T10:57:53Z</time>
      </trkpt>
      <trkpt lat="43.79252" lon="5.21188">
        <ele>530.79</ele>
        <time>2014-05-15T10:58:08Z</time>
      </trkpt>
      <trkpt lat="43.79247" lon="5.2121">
        <ele>533.67</ele>
        <time>2014-05-15T10:58:24Z</time>
      </trkpt>
      <trkpt lat="43.79242" lon="5.21233">
        <ele>534.63</ele>
        <time>2014-05-15T10:58:44Z</time>
      </trkpt>
      <trkpt lat="43.7924" lon="5.21241">
        <ele>536.55</ele>
        <time>2014-05-15T10:58:51Z</time>
      </trkpt>
      <trkpt lat="43.79249" lon="5.2127">
        <ele>538.48</ele>
        <time>2014-05-15T10:59:07Z</time>
      </trkpt>
      <trkpt lat="43.79253" lon="5.21278">
        <ele>538.96</ele>
        <time>2014-05-15T10:59:23Z</time>
      </trkpt>
      <trkpt lat="43.79248" lon="5.21288">
        <ele>540.4</ele>
        <time>2014-05-15T10:59:40Z</time>
      </trkpt>
      <trkpt lat="43.79235" lon="5.21301">
        <ele>542.8</ele>
        <time>2014-05-15T10:59:58Z</time>
      </trkpt>
      <trkpt lat="43.79231" lon="5.21305">
        <ele>546.17</ele>
        <time>2014-05-15T11:00:09Z</time>
      </trkpt>
      <trkpt lat="43.79222" lon="5.21303">
        <ele>549.05</ele>
        <time>2014-05-15T11:00:25Z</time>
      </trkpt>
      <trkpt lat="43.79218" lon="5.21303">
        <ele>548.09</ele>
        <time>2014-05-15T11:00:40Z</time>
      </trkpt>
      <trkpt lat="43.79217" lon="5.21304">
        <ele>549.05</ele>
        <time>2014-05-15T11:00:54Z</time>
      </trkpt>
      <trkpt lat="43.79215" lon="5.21304">
        <ele>547.61</ele>
        <time>2014-05-15T11:01:07Z</time>
      </trkpt>
      <trkpt lat="43.79215" lon="5.21304">
        <ele>547.61</ele>
        <time>2014-05-15T11:01:21Z</time>
      </trkpt>
      <trkpt lat="43.79215" lon="5.21302">
        <ele>548.57</ele>
        <time>2014-05-15T11:01:41Z</time>
      </trkpt>
      <trkpt lat="43.79216" lon="5.213">
        <ele>547.13</ele>
        <time>2014-05-15T11:01:48Z</time>
      </trkpt>
      <trkpt lat="43.79217" lon="5.213">
        <ele>549.05</ele>
        <time>2014-05-15T11:01:53Z</time>
      </trkpt>
      <trkpt lat="43.79216" lon="5.21299">
        <ele>548.57</ele>
        <time>2014-05-15T11:02:15Z</time>
      </trkpt>
      <trkpt lat="43.79216" lon="5.21299">
        <ele>548.57</ele>
        <time>2014-05-15T11:02:19Z</time>
      </trkpt>
      <trkpt lat="43.79212" lon="5.21308">
        <ele>546.65</ele>
        <time>2014-05-15T11:02:32Z</time>
      </trkpt>
      <trkpt lat="43.79212" lon="5.21309">
        <ele>545.69</ele>
        <time>2014-05-15T11:02:43Z</time>
      </trkpt>
      <trkpt lat="43.79213" lon="5.21306">
        <ele>546.65</ele>
        <time>2014-05-15T11:03:02Z</time>
      </trkpt>
      <trkpt lat="43.7921" lon="5.21298">
        <ele>545.2</ele>
        <time>2014-05-15T11:03:15Z</time>
      </trkpt>
      <trkpt lat="43.79208" lon="5.21293">
        <ele>546.65</ele>
        <time>2014-05-15T11:03:18Z</time>
      </trkpt>
      <trkpt lat="43.79201" lon="5.21286">
        <ele>548.57</ele>
        <time>2014-05-15T11:03:40Z</time>
      </trkpt>
      <trkpt lat="43.79197" lon="5.21273">
        <ele>550.49</ele>
        <time>2014-05-15T11:03:56Z</time>
      </trkpt>
      <trkpt lat="43.79201" lon="5.21278">
        <ele>549.05</ele>
        <time>2014-05-15T11:04:04Z</time>
      </trkpt>
      <trkpt lat="43.79204" lon="5.21282">
        <ele>549.05</ele>
        <time>2014-05-15T11:04:16Z</time>
      </trkpt>
      <trkpt lat="43.79205" lon="5.21285">
        <ele>546.17</ele>
        <time>2014-05-15T11:04:23Z</time>
      </trkpt>
      <trkpt lat="43.79206" lon="5.21288">
        <ele>547.61</ele>
        <time>2014-05-15T11:04:26Z</time>
      </trkpt>
      <trkpt lat="43.79204" lon="5.21291">
        <ele>545.69</ele>
        <time>2014-05-15T11:04:40Z</time>
      </trkpt>
      <trkpt lat="43.79203" lon="5.2129">
        <ele>544.72</ele>
        <time>2014-05-15T11:04:50Z</time>
      </trkpt>
      <trkpt lat="43.79203" lon="5.2129">
        <ele>546.17</ele>
        <time>2014-05-15T11:04:53Z</time>
      </trkpt>
      <trkpt lat="43.79204" lon="5.21283">
        <ele>548.09</ele>
        <time>2014-05-15T11:05:01Z</time>
      </trkpt>
      <trkpt lat="43.792" lon="5.21272">
        <ele>551.45</ele>
        <time>2014-05-15T11:05:12Z</time>
      </trkpt>
      <trkpt lat="43.79199" lon="5.21258">
        <ele>551.93</ele>
        <time>2014-05-15T11:05:26Z</time>
      </trkpt>
      <trkpt lat="43.79197" lon="5.2125">
        <ele>555.78</ele>
        <time>2014-05-15T11:05:36Z</time>
      </trkpt>
      <trkpt lat="43.79197" lon="5.21249">
        <ele>555.78</ele>
        <time>2014-05-15T11:05:37Z</time>
      </trkpt>
      <trkpt lat="43.79194" lon="5.21241">
        <ele>558.18</ele>
        <time>2014-05-15T11:05:51Z</time>
      </trkpt>
      <trkpt lat="43.79191" lon="5.21233">
        <ele>560.59</ele>
        <time>2014-05-15T11:06:08Z</time>
      </trkpt>
      <trkpt lat="43.79186" lon="5.21227">
        <ele>562.51</ele>
        <time>2014-05-15T11:06:23Z</time>
      </trkpt>
      <trkpt lat="43.79183" lon="5.21225">
        <ele>562.03</ele>
        <time>2014-05-15T11:06:50Z</time>
      </trkpt>
      <trkpt lat="43.79179" lon="5.21225">
        <ele>562.03</ele>
        <time>2014-05-15T11:07:10Z</time>
      </trkpt>
      <trkpt lat="43.79181" lon="5.21224">
        <ele>562.03</ele>
        <time>2014-05-15T11:07:16Z</time>
      </trkpt>
      <trkpt lat="43.79184" lon="5.21225">
        <ele>561.55</ele>
        <time>2014-05-15T11:07:33Z</time>
      </trkpt>
      <trkpt lat="43.79186" lon="5.21225">
        <ele>561.55</ele>
        <time>2014-05-15T11:07:58Z</time>
      </trkpt>
      <trkpt lat="43.79181" lon="5.21226">
        <ele>561.55</ele>
        <time>2014-05-15T11:08:17Z</time>
      </trkpt>
      <trkpt lat="43.79181" lon="5.21226">
        <ele>561.55</ele>
        <time>2014-05-15T11:08:32Z</time>
      </trkpt>
      <trkpt lat="43.79181" lon="5.21224">
        <ele>562.03</ele>
        <time>2014-05-15T11:08:50Z</time>
      </trkpt>
      <trkpt lat="43.7918" lon="5.21223">
        <ele>561.55</ele>
        <time>2014-05-15T11:08:52Z</time>
      </trkpt>
      <trkpt lat="43.79181" lon="5.21215">
        <ele>564.43</ele>
        <time>2014-05-15T11:09:06Z</time>
      </trkpt>
      <trkpt lat="43.79183" lon="5.21209">
        <ele>564.91</ele>
        <time>2014-05-15T11:09:21Z</time>
      </trkpt>
      <trkpt lat="43.79186" lon="5.21205">
        <ele>565.87</ele>
        <time>2014-05-15T11:09:25Z</time>
      </trkpt>
      <trkpt lat="43.7919" lon="5.21202">
        <ele>563.47</ele>
        <time>2014-05-15T11:09:39Z</time>
      </trkpt>
      <trkpt lat="43.79189" lon="5.21202">
        <ele>565.87</ele>
        <time>2014-05-15T11:09:48Z</time>
      </trkpt>
      <trkpt lat="43.79184" lon="5.21206">
        <ele>569.72</ele>
        <time>2014-05-15T11:10:00Z</time>
      </trkpt>
      <trkpt lat="43.79183" lon="5.21207">
        <ele>565.87</ele>
        <time>2014-05-15T11:10:11Z</time>
      </trkpt>
      <trkpt lat="43.79181" lon="5.21203">
        <ele>567.8</ele>
        <time>2014-05-15T11:10:18Z</time>
      </trkpt>
      <trkpt lat="43.7918" lon="5.21201">
        <ele>567.8</ele>
        <time>2014-05-15T11:10:20Z</time>
      </trkpt>
      <trkpt lat="43.79175" lon="5.21197">
        <ele>570.2</ele>
        <time>2014-05-15T11:10:28Z</time>
      </trkpt>
      <trkpt lat="43.79173" lon="5.21196">
        <ele>568.76</ele>
        <time>2014-05-15T11:10:37Z</time>
      </trkpt>
      <trkpt lat="43.79176" lon="5.21194">
        <ele>569.72</ele>
        <time>2014-05-15T11:10:41Z</time>
      </trkpt>
      <trkpt lat="43.79176" lon="5.21194">
        <ele>570.68</ele>
        <time>2014-05-15T11:10:42Z</time>
      </trkpt>
      <trkpt lat="43.79173" lon="5.21192">
        <ele>571.16</ele>
        <time>2014-05-15T11:10:45Z</time>
      </trkpt>
      <trkpt lat="43.79167" lon="5.2118">
        <ele>574.53</ele>
        <time>2014-05-15T11:10:55Z</time>
      </trkpt>
      <trkpt lat="43.79167" lon="5.21181">
        <ele>574.53</ele>
        <time>2014-05-15T11:10:56Z</time>
      </trkpt>
      <trkpt lat="43.79167" lon="5.21182">
        <ele>573.56</ele>
        <time>2014-05-15T11:11:07Z</time>
      </trkpt>
      <trkpt lat="43.79166" lon="5.2118">
        <ele>573.56</ele>
        <time>2014-05-15T11:11:09Z</time>
      </trkpt>
      <trkpt lat="43.79164" lon="5.21178">
        <ele>575.01</ele>
        <time>2014-05-15T11:11:11Z</time>
      </trkpt>
      <trkpt lat="43.79162" lon="5.21174">
        <ele>575.01</ele>
        <time>2014-05-15T11:11:15Z</time>
      </trkpt>
      <trkpt lat="43.79157" lon="5.21158">
        <ele>574.53</ele>
        <time>2014-05-15T11:11:31Z</time>
      </trkpt>
      <trkpt lat="43.79153" lon="5.21145">
        <ele>574.53</ele>
        <time>2014-05-15T11:11:44Z</time>
      </trkpt>
      <trkpt lat="43.79154" lon="5.21145">
        <ele>572.12</ele>
        <time>2014-05-15T11:11:57Z</time>
      </trkpt>
      <trkpt lat="43.79153" lon="5.21144">
        <ele>574.04</ele>
        <time>2014-05-15T11:12:00Z</time>
      </trkpt>
      <trkpt lat="43.79152" lon="5.21144">
        <ele>574.04</ele>
        <time>2014-05-15T11:12:02Z</time>
      </trkpt>
      <trkpt lat="43.7915" lon="5.21142">
        <ele>575.49</ele>
        <time>2014-05-15T11:12:04Z</time>
      </trkpt>
      <trkpt lat="43.79149" lon="5.21141">
        <ele>573.08</ele>
        <time>2014-05-15T11:12:07Z</time>
      </trkpt>
      <trkpt lat="43.79142" lon="5.21139">
        <ele>571.16</ele>
        <time>2014-05-15T11:12:19Z</time>
      </trkpt>
      <trkpt lat="43.79141" lon="5.2114">
        <ele>568.76</ele>
        <time>2014-05-15T11:12:29Z</time>
      </trkpt>
      <trkpt lat="43.79141" lon="5.21146">
        <ele>570.2</ele>
        <time>2014-05-15T11:12:44Z</time>
      </trkpt>
      <trkpt lat="43.79141" lon="5.21146">
        <ele>570.68</ele>
        <time>2014-05-15T11:12:57Z</time>
      </trkpt>
      <trkpt lat="43.79141" lon="5.21146">
        <ele>570.68</ele>
        <time>2014-05-15T11:13:22Z</time>
      </trkpt>
      <trkpt lat="43.79142" lon="5.21145">
        <ele>571.16</ele>
        <time>2014-05-15T11:13:24Z</time>
      </trkpt>
      <trkpt lat="43.79142" lon="5.21145">
        <ele>570.2</ele>
        <time>2014-05-15T11:13:26Z</time>
      </trkpt>
      <trkpt lat="43.79141" lon="5.21145">
        <ele>571.64</ele>
        <time>2014-05-15T11:13:43Z</time>
      </trkpt>
      <trkpt lat="43.79141" lon="5.21147">
        <ele>571.64</ele>
        <time>2014-05-15T11:13:56Z</time>
      </trkpt>
      <trkpt lat="43.7914" lon="5.21144">
        <ele>570.68</ele>
        <time>2014-05-15T11:14:00Z</time>
      </trkpt>
      <trkpt lat="43.79139" lon="5.21133">
        <ele>571.16</ele>
        <time>2014-05-15T11:14:15Z</time>
      </trkpt>
      <trkpt lat="43.79139" lon="5.21138">
        <ele>569.72</ele>
        <time>2014-05-15T11:14:21Z</time>
      </trkpt>
      <trkpt lat="43.79141" lon="5.21148">
        <ele>570.68</ele>
        <time>2014-05-15T11:14:34Z</time>
      </trkpt>
      <trkpt lat="43.79141" lon="5.21147">
        <ele>570.68</ele>
        <time>2014-05-15T11:14:46Z</time>
      </trkpt>
      <trkpt lat="43.79141" lon="5.21146">
        <ele>569.24</ele>
        <time>2014-05-15T11:14:58Z</time>
      </trkpt>
      <trkpt lat="43.79141" lon="5.21147">
        <ele>570.2</ele>
        <time>2014-05-15T11:15:22Z</time>
      </trkpt>
      <trkpt lat="43.7914" lon="5.21147">
        <ele>571.16</ele>
        <time>2014-05-15T11:15:47Z</time>
      </trkpt>
      <trkpt lat="43.7914" lon="5.21147">
        <ele>570.68</ele>
        <time>2014-05-15T11:15:48Z</time>
      </trkpt>
      <trkpt lat="43.7914" lon="5.21147">
        <ele>570.68</ele>
        <time>2014-05-15T11:15:53Z</time>
      </trkpt>
      <trkpt lat="43.79141" lon="5.21147">
        <ele>571.16</ele>
        <time>2014-05-15T11:16:09Z</time>
      </trkpt>
      <trkpt lat="43.79141" lon="5.21147">
        <ele>572.6</ele>
        <time>2014-05-15T11:16:13Z</time>
      </trkpt>
      <trkpt lat="43.79141" lon="5.21147">
        <ele>573.08</ele>
        <time>2014-05-15T11:16:26Z</time>
      </trkpt>
      <trkpt lat="43.7914" lon="5.21147">
        <ele>574.04</ele>
        <time>2014-05-15T11:16:45Z</time>
      </trkpt>
      <trkpt lat="43.79141" lon="5.21147">
        <ele>570.68</ele>
        <time>2014-05-15T11:16:52Z</time>
      </trkpt>
      <trkpt lat="43.79141" lon="5.21147">
        <ele>573.08</ele>
        <time>2014-05-15T11:17:08Z</time>
      </trkpt>
      <trkpt lat="43.7914" lon="5.21144">
        <ele>569.72</ele>
        <time>2014-05-15T11:17:17Z</time>
      </trkpt>
      <trkpt lat="43.7914" lon="5.21143">
        <ele>569.72</ele>
        <time>2014-05-15T11:17:18Z</time>
      </trkpt>
      <trkpt lat="43.7914" lon="5.21141">
        <ele>569.72</ele>
        <time>2014-05-15T11:17:23Z</time>
      </trkpt>
      <trkpt lat="43.7914" lon="5.21141">
        <ele>572.6</ele>
        <time>2014-05-15T11:17:28Z</time>
      </trkpt>
      <trkpt lat="43.7914" lon="5.21141">
        <ele>571.16</ele>
        <time>2014-05-15T11:17:31Z</time>
      </trkpt>
      <trkpt lat="43.79141" lon="5.21145">
        <ele>571.16</ele>
        <time>2014-05-15T11:17:49Z</time>
      </trkpt>
      <trkpt lat="43.79141" lon="5.21145">
        <ele>569.24</ele>
        <time>2014-05-15T11:17:58Z</time>
      </trkpt>
      <trkpt lat="43.79141" lon="5.21146">
        <ele>571.16</ele>
        <time>2014-05-15T11:18:19Z</time>
      </trkpt>
      <trkpt lat="43.79141" lon="5.21147">
        <ele>571.64</ele>
        <time>2014-05-15T11:18:41Z</time>
      </trkpt>
      <trkpt lat="43.79141" lon="5.21147">
        <ele>571.16</ele>
        <time>2014-05-15T11:18:51Z</time>
      </trkpt>
      <trkpt lat="43.79141" lon="5.21147">
        <ele>570.68</ele>
        <time>2014-05-15T11:19:16Z</time>
      </trkpt>
      <trkpt lat="43.79141" lon="5.21147">
        <ele>571.64</ele>
        <time>2014-05-15T11:19:34Z</time>
      </trkpt>
      <trkpt lat="43.79141" lon="5.21147">
        <ele>571.64</ele>
        <time>2014-05-15T11:19:51Z</time>
      </trkpt>
      <trkpt lat="43.79141" lon="5.21147">
        <ele>569.72</ele>
        <time>2014-05-15T11:20:02Z</time>
      </trkpt>
      <trkpt lat="43.79141" lon="5.21147">
        <ele>570.68</ele>
        <time>2014-05-15T11:20:07Z</time>
      </trkpt>
      <trkpt lat="43.79141" lon="5.21147">
        <ele>571.16</ele>
        <time>2014-05-15T11:20:12Z</time>
      </trkpt>
      <trkpt lat="43.79141" lon="5.21147">
        <ele>570.2</ele>
        <time>2014-05-15T11:20:36Z</time>
      </trkpt>
      <trkpt lat="43.79141" lon="5.21147">
        <ele>570.68</ele>
        <time>2014-05-15T11:20:59Z</time>
      </trkpt>
      <trkpt lat="43.79141" lon="5.21147">
        <ele>570.68</ele>
        <time>2014-05-15T11:21:25Z</time>
      </trkpt>
      <trkpt lat="43.79141" lon="5.21147">
        <ele>572.12</ele>
        <time>2014-05-15T11:21:28Z</time>
      </trkpt>
      <trkpt lat="43.79141" lon="5.21147">
        <ele>570.2</ele>
        <time>2014-05-15T11:21:37Z</time>
      </trkpt>
      <trkpt lat="43.79142" lon="5.21147">
        <ele>572.12</ele>
        <time>2014-05-15T11:22:05Z</time>
      </trkpt>
      <trkpt lat="43.79142" lon="5.21147">
        <ele>573.56</ele>
        <time>2014-05-15T11:22:16Z</time>
      </trkpt>
      <trkpt lat="43.79142" lon="5.21147">
        <ele>570.68</ele>
        <time>2014-05-15T11:22:19Z</time>
      </trkpt>
      <trkpt lat="43.79142" lon="5.21147">
        <ele>572.6</ele>
        <time>2014-05-15T11:22:22Z</time>
      </trkpt>
      <trkpt lat="43.79141" lon="5.21147">
        <ele>573.08</ele>
        <time>2014-05-15T11:22:47Z</time>
      </trkpt>
      <trkpt lat="43.79141" lon="5.21146">
        <ele>573.08</ele>
        <time>2014-05-15T11:23:17Z</time>
      </trkpt>
      <trkpt lat="43.79141" lon="5.21146">
        <ele>572.12</ele>
        <time>2014-05-15T11:23:53Z</time>
      </trkpt>
      <trkpt lat="43.79141" lon="5.21146">
        <ele>574.04</ele>
        <time>2014-05-15T11:24:02Z</time>
      </trkpt>
      <trkpt lat="43.79141" lon="5.21146">
        <ele>573.56</ele>
        <time>2014-05-15T11:24:06Z</time>
      </trkpt>
      <trkpt lat="43.79141" lon="5.21146">
        <ele>573.56</ele>
        <time>2014-05-15T11:24:43Z</time>
      </trkpt>
      <trkpt lat="43.7914" lon="5.21146">
        <ele>572.12</ele>
        <time>2014-05-15T11:25:11Z</time>
      </trkpt>
      <trkpt lat="43.7914" lon="5.21146">
        <ele>571.16</ele>
        <time>2014-05-15T11:25:21Z</time>
      </trkpt>
      <trkpt lat="43.79141" lon="5.21146">
        <ele>571.64</ele>
        <time>2014-05-15T11:25:46Z</time>
      </trkpt>
      <trkpt lat="43.7914" lon="5.21145">
        <ele>572.12</ele>
        <time>2014-05-15T11:26:14Z</time>
      </trkpt>
      <trkpt lat="43.79141" lon="5.21145">
        <ele>573.08</ele>
        <time>2014-05-15T11:26:21Z</time>
      </trkpt>
      <trkpt lat="43.7914" lon="5.21145">
        <ele>572.12</ele>
        <time>2014-05-15T11:26:43Z</time>
      </trkpt>
      <trkpt lat="43.7914" lon="5.21146">
        <ele>573.08</ele>
        <time>2014-05-15T11:27:04Z</time>
      </trkpt>
      <trkpt lat="43.7914" lon="5.21146">
        <ele>575.49</ele>
        <time>2014-05-15T11:27:11Z</time>
      </trkpt>
      <trkpt lat="43.79141" lon="5.21145">
        <ele>572.12</ele>
        <time>2014-05-15T11:27:19Z</time>
      </trkpt>
      <trkpt lat="43.7914" lon="5.21146">
        <ele>574.04</ele>
        <time>2014-05-15T11:27:24Z</time>
      </trkpt>
      <trkpt lat="43.7914" lon="5.21146">
        <ele>574.04</ele>
        <time>2014-05-15T11:27:29Z</time>
      </trkpt>
      <trkpt lat="43.7914" lon="5.21146">
        <ele>572.6</ele>
        <time>2014-05-15T11:27:51Z</time>
      </trkpt>
      <trkpt lat="43.7914" lon="5.21146">
        <ele>573.56</ele>
        <time>2014-05-15T11:28:17Z</time>
      </trkpt>
      <trkpt lat="43.7914" lon="5.21146">
        <ele>573.56</ele>
        <time>2014-05-15T11:28:43Z</time>
      </trkpt>
      <trkpt lat="43.7914" lon="5.21146">
        <ele>572.6</ele>
        <time>2014-05-15T11:29:06Z</time>
      </trkpt>
      <trkpt lat="43.79141" lon="5.21146">
        <ele>573.08</ele>
        <time>2014-05-15T11:29:27Z</time>
      </trkpt>
      <trkpt lat="43.79141" lon="5.21147">
        <ele>573.08</ele>
        <time>2014-05-15T11:29:54Z</time>
      </trkpt>
      <trkpt lat="43.79141" lon="5.21147">
        <ele>573.56</ele>
        <time>2014-05-15T11:30:20Z</time>
      </trkpt>
      <trkpt lat="43.79141" lon="5.21147">
        <ele>573.08</ele>
        <time>2014-05-15T11:30:47Z</time>
      </trkpt>
      <trkpt lat="43.79141" lon="5.21146">
        <ele>572.6</ele>
        <time>2014-05-15T11:31:19Z</time>
      </trkpt>
      <trkpt lat="43.79141" lon="5.21147">
        <ele>573.08</ele>
        <time>2014-05-15T11:31:50Z</time>
      </trkpt>
      <trkpt lat="43.79141" lon="5.21146">
        <ele>572.6</ele>
        <time>2014-05-15T11:32:17Z</time>
      </trkpt>
      <trkpt lat="43.79141" lon="5.21146">
        <ele>574.53</ele>
        <time>2014-05-15T11:32:44Z</time>
      </trkpt>
      <trkpt lat="43.79141" lon="5.21145">
        <ele>573.08</ele>
        <time>2014-05-15T11:33:14Z</time>
      </trkpt>
      <trkpt lat="43.79141" lon="5.21145">
        <ele>574.04</ele>
        <time>2014-05-15T11:33:42Z</time>
      </trkpt>
      <trkpt lat="43.79141" lon="5.21145">
        <ele>574.04</ele>
        <time>2014-05-15T11:34:09Z</time>
      </trkpt>
      <trkpt lat="43.79141" lon="5.21145">
        <ele>573.56</ele>
        <time>2014-05-15T11:34:10Z</time>
      </trkpt>
      <trkpt lat="43.79141" lon="5.21144">
        <ele>573.56</ele>
        <time>2014-05-15T11:34:38Z</time>
      </trkpt>
      <trkpt lat="43.79141" lon="5.21144">
        <ele>572.12</ele>
        <time>2014-05-15T11:35:09Z</time>
      </trkpt>
      <trkpt lat="43.79141" lon="5.21144">
        <ele>573.56</ele>
        <time>2014-05-15T11:35:40Z</time>
      </trkpt>
      <trkpt lat="43.79141" lon="5.21144">
        <ele>573.08</ele>
        <time>2014-05-15T11:36:00Z</time>
      </trkpt>
      <trkpt lat="43.79141" lon="5.21144">
        <ele>574.53</ele>
        <time>2014-05-15T11:36:28Z</time>
      </trkpt>
      <trkpt lat="43.79141" lon="5.21144">
        <ele>575.97</ele>
        <time>2014-05-15T11:36:55Z</time>
      </trkpt>
      <trkpt lat="43.79141" lon="5.21144">
        <ele>573.56</ele>
        <time>2014-05-15T11:37:23Z</time>
      </trkpt>
      <trkpt lat="43.79141" lon="5.21144">
        <ele>574.53</ele>
        <time>2014-05-15T11:37:51Z</time>
      </trkpt>
      <trkpt lat="43.79141" lon="5.21144">
        <ele>575.49</ele>
        <time>2014-05-15T11:37:53Z</time>
      </trkpt>
      <trkpt lat="43.79141" lon="5.21145">
        <ele>573.56</ele>
        <time>2014-05-15T11:37:59Z</time>
      </trkpt>
      <trkpt lat="43.79141" lon="5.21145">
        <ele>575.49</ele>
        <time>2014-05-15T11:38:05Z</time>
      </trkpt>
      <trkpt lat="43.79141" lon="5.21145">
        <ele>575.01</ele>
        <time>2014-05-15T11:38:13Z</time>
      </trkpt>
      <trkpt lat="43.79138" lon="5.21147">
        <ele>575.49</ele>
        <time>2014-05-15T11:38:39Z</time>
      </trkpt>
      <trkpt lat="43.79139" lon="5.21147">
        <ele>573.56</ele>
        <time>2014-05-15T11:38:55Z</time>
      </trkpt>
      <trkpt lat="43.79139" lon="5.21147">
        <ele>574.04</ele>
        <time>2014-05-15T11:39:06Z</time>
      </trkpt>
      <trkpt lat="43.7914" lon="5.21146">
        <ele>574.53</ele>
        <time>2014-05-15T11:39:32Z</time>
      </trkpt>
      <trkpt lat="43.7914" lon="5.21146">
        <ele>575.01</ele>
        <time>2014-05-15T11:39:39Z</time>
      </trkpt>
      <trkpt lat="43.7914" lon="5.21145">
        <ele>574.53</ele>
        <time>2014-05-15T11:39:50Z</time>
      </trkpt>
      <trkpt lat="43.7914" lon="5.21145">
        <ele>577.89</ele>
        <time>2014-05-15T11:39:57Z</time>
      </trkpt>
      <trkpt lat="43.7914" lon="5.21145">
        <ele>577.41</ele>
        <time>2014-05-15T11:39:58Z</time>
      </trkpt>
      <trkpt lat="43.7914" lon="5.21145">
        <ele>576.45</ele>
        <time>2014-05-15T11:40:00Z</time>
      </trkpt>
      <trkpt lat="43.7914" lon="5.21146">
        <ele>576.45</ele>
        <time>2014-05-15T11:40:10Z</time>
      </trkpt>
      <trkpt lat="43.79141" lon="5.21145">
        <ele>574.53</ele>
        <time>2014-05-15T11:40:33Z</time>
      </trkpt>
      <trkpt lat="43.79141" lon="5.21145">
        <ele>576.45</ele>
        <time>2014-05-15T11:41:04Z</time>
      </trkpt>
      <trkpt lat="43.79141" lon="5.21145">
        <ele>576.45</ele>
        <time>2014-05-15T11:41:08Z</time>
      </trkpt>
      <trkpt lat="43.79141" lon="5.21145">
        <ele>577.89</ele>
        <time>2014-05-15T11:41:11Z</time>
      </trkpt>
      <trkpt lat="43.79141" lon="5.21145">
        <ele>578.37</ele>
        <time>2014-05-15T11:41:21Z</time>
      </trkpt>
      <trkpt lat="43.79141" lon="5.21145">
        <ele>575.01</ele>
        <time>2014-05-15T11:41:36Z</time>
      </trkpt>
      <trkpt lat="43.79141" lon="5.21145">
        <ele>576.93</ele>
        <time>2014-05-15T11:41:43Z</time>
      </trkpt>
      <trkpt lat="43.79141" lon="5.21146">
        <ele>576.45</ele>
        <time>2014-05-15T11:41:51Z</time>
      </trkpt>
      <trkpt lat="43.79141" lon="5.21146">
        <ele>577.41</ele>
        <time>2014-05-15T11:42:01Z</time>
      </trkpt>
      <trkpt lat="43.79141" lon="5.21146">
        <ele>575.97</ele>
        <time>2014-05-15T11:42:04Z</time>
      </trkpt>
      <trkpt lat="43.79141" lon="5.21146">
        <ele>577.89</ele>
        <time>2014-05-15T11:42:31Z</time>
      </trkpt>
      <trkpt lat="43.79141" lon="5.21146">
        <ele>577.89</ele>
        <time>2014-05-15T11:42:44Z</time>
      </trkpt>
      <trkpt lat="43.79141" lon="5.21146">
        <ele>575.01</ele>
        <time>2014-05-15T11:43:04Z</time>
      </trkpt>
      <trkpt lat="43.79141" lon="5.21146">
        <ele>577.41</ele>
        <time>2014-05-15T11:43:13Z</time>
      </trkpt>
      <trkpt lat="43.79141" lon="5.21146">
        <ele>575.97</ele>
        <time>2014-05-15T11:43:43Z</time>
      </trkpt>
      <trkpt lat="43.79141" lon="5.21146">
        <ele>576.45</ele>
        <time>2014-05-15T11:44:15Z</time>
      </trkpt>
      <trkpt lat="43.79141" lon="5.21146">
        <ele>575.49</ele>
        <time>2014-05-15T11:44:43Z</time>
      </trkpt>
      <trkpt lat="43.79141" lon="5.21146">
        <ele>576.45</ele>
        <time>2014-05-15T11:44:49Z</time>
      </trkpt>
      <trkpt lat="43.79141" lon="5.21146">
        <ele>575.01</ele>
        <time>2014-05-15T11:44:51Z</time>
      </trkpt>
      <trkpt lat="43.79141" lon="5.21146">
        <ele>575.97</ele>
        <time>2014-05-15T11:44:59Z</time>
      </trkpt>
      <trkpt lat="43.79141" lon="5.21146">
        <ele>576.45</ele>
        <time>2014-05-15T11:45:12Z</time>
      </trkpt>
      <trkpt lat="43.79141" lon="5.21145">
        <ele>578.37</ele>
        <time>2014-05-15T11:45:16Z</time>
      </trkpt>
      <trkpt lat="43.79141" lon="5.21144">
        <ele>577.41</ele>
        <time>2014-05-15T11:45:24Z</time>
      </trkpt>
      <trkpt lat="43.7914" lon="5.21142">
        <ele>575.97</ele>
        <time>2014-05-15T11:45:27Z</time>
      </trkpt>
      <trkpt lat="43.79141" lon="5.21139">
        <ele>577.89</ele>
        <time>2014-05-15T11:45:44Z</time>
      </trkpt>
      <trkpt lat="43.7914" lon="5.21144">
        <ele>579.33</ele>
        <time>2014-05-15T11:45:57Z</time>
      </trkpt>
      <trkpt lat="43.7914" lon="5.21146">
        <ele>575.97</ele>
        <time>2014-05-15T11:46:04Z</time>
      </trkpt>
      <trkpt lat="43.79141" lon="5.21147">
        <ele>576.93</ele>
        <time>2014-05-15T11:46:17Z</time>
      </trkpt>
      <trkpt lat="43.79141" lon="5.21147">
        <ele>575.49</ele>
        <time>2014-05-15T11:46:21Z</time>
      </trkpt>
      <trkpt lat="43.79142" lon="5.21147">
        <ele>576.45</ele>
        <time>2014-05-15T11:46:42Z</time>
      </trkpt>
      <trkpt lat="43.79142" lon="5.21147">
        <ele>577.89</ele>
        <time>2014-05-15T11:47:04Z</time>
      </trkpt>
      <trkpt lat="43.79141" lon="5.21147">
        <ele>576.45</ele>
        <time>2014-05-15T11:47:35Z</time>
      </trkpt>
      <trkpt lat="43.79141" lon="5.21147">
        <ele>575.01</ele>
        <time>2014-05-15T11:47:38Z</time>
      </trkpt>
      <trkpt lat="43.79141" lon="5.21147">
        <ele>575.97</ele>
        <time>2014-05-15T11:47:44Z</time>
      </trkpt>
      <trkpt lat="43.79141" lon="5.21147">
        <ele>574.53</ele>
        <time>2014-05-15T11:48:00Z</time>
      </trkpt>
      <trkpt lat="43.79141" lon="5.21147">
        <ele>575.97</ele>
        <time>2014-05-15T11:48:02Z</time>
      </trkpt>
      <trkpt lat="43.79141" lon="5.21147">
        <ele>575.01</ele>
        <time>2014-05-15T11:48:32Z</time>
      </trkpt>
      <trkpt lat="43.7914" lon="5.21147">
        <ele>574.53</ele>
        <time>2014-05-15T11:48:52Z</time>
      </trkpt>
      <trkpt lat="43.79141" lon="5.21147">
        <ele>575.97</ele>
        <time>2014-05-15T11:49:08Z</time>
      </trkpt>
      <trkpt lat="43.79141" lon="5.21147">
        <ele>575.97</ele>
        <time>2014-05-15T11:49:20Z</time>
      </trkpt>
      <trkpt lat="43.79141" lon="5.21147">
        <ele>575.49</ele>
        <time>2014-05-15T11:49:30Z</time>
      </trkpt>
      <trkpt lat="43.79141" lon="5.21147">
        <ele>577.41</ele>
        <time>2014-05-15T11:49:59Z</time>
      </trkpt>
      <trkpt lat="43.79141" lon="5.21147">
        <ele>575.49</ele>
        <time>2014-05-15T11:50:03Z</time>
      </trkpt>
      <trkpt lat="43.79141" lon="5.21147">
        <ele>576.45</ele>
        <time>2014-05-15T11:50:36Z</time>
      </trkpt>
      <trkpt lat="43.79141" lon="5.21147">
        <ele>575.49</ele>
        <time>2014-05-15T11:50:42Z</time>
      </trkpt>
      <trkpt lat="43.79141" lon="5.21147">
        <ele>575.97</ele>
        <time>2014-05-15T11:51:13Z</time>
      </trkpt>
      <trkpt lat="43.79141" lon="5.21148">
        <ele>575.49</ele>
        <time>2014-05-15T11:51:51Z</time>
      </trkpt>
      <trkpt lat="43.79141" lon="5.21148">
        <ele>575.49</ele>
        <time>2014-05-15T11:51:59Z</time>
      </trkpt>
      <trkpt lat="43.79141" lon="5.21148">
        <ele>576.93</ele>
        <time>2014-05-15T11:52:06Z</time>
      </trkpt>
      <trkpt lat="43.79141" lon="5.21148">
        <ele>575.97</ele>
        <time>2014-05-15T11:52:32Z</time>
      </trkpt>
      <trkpt lat="43.79141" lon="5.21148">
        <ele>574.53</ele>
        <time>2014-05-15T11:53:02Z</time>
      </trkpt>
      <trkpt lat="43.79141" lon="5.21148">
        <ele>578.37</ele>
        <time>2014-05-15T11:53:25Z</time>
      </trkpt>
      <trkpt lat="43.79141" lon="5.21148">
        <ele>578.85</ele>
        <time>2014-05-15T11:53:26Z</time>
      </trkpt>
      <trkpt lat="43.79141" lon="5.21148">
        <ele>575.49</ele>
        <time>2014-05-15T11:53:29Z</time>
      </trkpt>
      <trkpt lat="43.79141" lon="5.21148">
        <ele>577.41</ele>
        <time>2014-05-15T11:53:31Z</time>
      </trkpt>
      <trkpt lat="43.79141" lon="5.21148">
        <ele>575.97</ele>
        <time>2014-05-15T11:53:57Z</time>
      </trkpt>
      <trkpt lat="43.79141" lon="5.21148">
        <ele>577.41</ele>
        <time>2014-05-15T11:54:05Z</time>
      </trkpt>
      <trkpt lat="43.79141" lon="5.21148">
        <ele>575.49</ele>
        <time>2014-05-15T11:54:37Z</time>
      </trkpt>
      <trkpt lat="43.79141" lon="5.21148">
        <ele>576.93</ele>
        <time>2014-05-15T11:54:56Z</time>
      </trkpt>
      <trkpt lat="43.79141" lon="5.21148">
        <ele>575.01</ele>
        <time>2014-05-15T11:54:58Z</time>
      </trkpt>
      <trkpt lat="43.79141" lon="5.21148">
        <ele>575.97</ele>
        <time>2014-05-15T11:55:26Z</time>
      </trkpt>
      <trkpt lat="43.79141" lon="5.21148">
        <ele>576.93</ele>
        <time>2014-05-15T11:55:55Z</time>
      </trkpt>
      <trkpt lat="43.79141" lon="5.21148">
        <ele>576.93</ele>
        <time>2014-05-15T11:55:56Z</time>
      </trkpt>
      <trkpt lat="43.79141" lon="5.21148">
        <ele>575.01</ele>
        <time>2014-05-15T11:56:21Z</time>
      </trkpt>
      <trkpt lat="43.79141" lon="5.21148">
        <ele>575.97</ele>
        <time>2014-05-15T11:56:30Z</time>
      </trkpt>
      <trkpt lat="43.79141" lon="5.21148">
        <ele>576.45</ele>
        <time>2014-05-15T11:57:02Z</time>
      </trkpt>
      <trkpt lat="43.79141" lon="5.21148">
        <ele>576.45</ele>
        <time>2014-05-15T11:57:09Z</time>
      </trkpt>
      <trkpt lat="43.79141" lon="5.21148">
        <ele>578.37</ele>
        <time>2014-05-15T11:57:19Z</time>
      </trkpt>
      <trkpt lat="43.79141" lon="5.21148">
        <ele>574.53</ele>
        <time>2014-05-15T11:57:30Z</time>
      </trkpt>
      <trkpt lat="43.79141" lon="5.21148">
        <ele>576.45</ele>
        <time>2014-05-15T11:57:33Z</time>
      </trkpt>
      <trkpt lat="43.79141" lon="5.21148">
        <ele>574.53</ele>
        <time>2014-05-15T11:58:04Z</time>
      </trkpt>
      <trkpt lat="43.79141" lon="5.21149">
        <ele>577.41</ele>
        <time>2014-05-15T11:58:37Z</time>
      </trkpt>
      <trkpt lat="43.79141" lon="5.21149">
        <ele>576.45</ele>
        <time>2014-05-15T11:59:15Z</time>
      </trkpt>
      <trkpt lat="43.79141" lon="5.21149">
        <ele>576.93</ele>
        <time>2014-05-15T11:59:46Z</time>
      </trkpt>
      <trkpt lat="43.79141" lon="5.21149">
        <ele>577.89</ele>
        <time>2014-05-15T12:00:09Z</time>
      </trkpt>
      <trkpt lat="43.79141" lon="5.21149">
        <ele>577.89</ele>
        <time>2014-05-15T12:00:38Z</time>
      </trkpt>
      <trkpt lat="43.79141" lon="5.21149">
        <ele>577.89</ele>
        <time>2014-05-15T12:00:49Z</time>
      </trkpt>
      <trkpt lat="43.7914" lon="5.21148">
        <ele>576.93</ele>
        <time>2014-05-15T12:01:06Z</time>
      </trkpt>
      <trkpt lat="43.79139" lon="5.21148">
        <ele>575.49</ele>
        <time>2014-05-15T12:01:09Z</time>
      </trkpt>
      <trkpt lat="43.79139" lon="5.21149">
        <ele>577.89</ele>
        <time>2014-05-15T12:01:13Z</time>
      </trkpt>
      <trkpt lat="43.7914" lon="5.2115">
        <ele>575.97</ele>
        <time>2014-05-15T12:01:39Z</time>
      </trkpt>
      <trkpt lat="43.7914" lon="5.2115">
        <ele>575.97</ele>
        <time>2014-05-15T12:02:12Z</time>
      </trkpt>
      <trkpt lat="43.7914" lon="5.21149">
        <ele>575.01</ele>
        <time>2014-05-15T12:02:17Z</time>
      </trkpt>
      <trkpt lat="43.7914" lon="5.21149">
        <ele>576.45</ele>
        <time>2014-05-15T12:02:32Z</time>
      </trkpt>
      <trkpt lat="43.7914" lon="5.21149">
        <ele>576.93</ele>
        <time>2014-05-15T12:02:41Z</time>
      </trkpt>
      <trkpt lat="43.7914" lon="5.21149">
        <ele>576.45</ele>
        <time>2014-05-15T12:02:58Z</time>
      </trkpt>
      <trkpt lat="43.7914" lon="5.21149">
        <ele>574.53</ele>
        <time>2014-05-15T12:03:12Z</time>
      </trkpt>
      <trkpt lat="43.7914" lon="5.21149">
        <ele>576.45</ele>
        <time>2014-05-15T12:03:20Z</time>
      </trkpt>
      <trkpt lat="43.79141" lon="5.21148">
        <ele>575.49</ele>
        <time>2014-05-15T12:03:55Z</time>
      </trkpt>
      <trkpt lat="43.79141" lon="5.21148">
        <ele>576.45</ele>
        <time>2014-05-15T12:04:28Z</time>
      </trkpt>
      <trkpt lat="43.79141" lon="5.21148">
        <ele>576.93</ele>
        <time>2014-05-15T12:04:46Z</time>
      </trkpt>
      <trkpt lat="43.79141" lon="5.21148">
        <ele>575.97</ele>
        <time>2014-05-15T12:05:25Z</time>
      </trkpt>
      <trkpt lat="43.79141" lon="5.21148">
        <ele>575.49</ele>
        <time>2014-05-15T12:06:07Z</time>
      </trkpt>
      <trkpt lat="43.79141" lon="5.21148">
        <ele>575.49</ele>
        <time>2014-05-15T12:06:19Z</time>
      </trkpt>
      <trkpt lat="43.79141" lon="5.21148">
        <ele>576.45</ele>
        <time>2014-05-15T12:06:31Z</time>
      </trkpt>
      <trkpt lat="43.79141" lon="5.21148">
        <ele>575.97</ele>
        <time>2014-05-15T12:07:09Z</time>
      </trkpt>
      <trkpt lat="43.79141" lon="5.21148">
        <ele>576.45</ele>
        <time>2014-05-15T12:07:43Z</time>
      </trkpt>
      <trkpt lat="43.79141" lon="5.21148">
        <ele>576.45</ele>
        <time>2014-05-15T12:08:09Z</time>
      </trkpt>
      <trkpt lat="43.79141" lon="5.21148">
        <ele>576.93</ele>
        <time>2014-05-15T12:08:19Z</time>
      </trkpt>
      <trkpt lat="43.79141" lon="5.21148">
        <ele>577.41</ele>
        <time>2014-05-15T12:08:43Z</time>
      </trkpt>
      <trkpt lat="43.79141" lon="5.21148">
        <ele>576.93</ele>
        <time>2014-05-15T12:09:20Z</time>
      </trkpt>
      <trkpt lat="43.79141" lon="5.21148">
        <ele>575.97</ele>
        <time>2014-05-15T12:09:39Z</time>
      </trkpt>
      <trkpt lat="43.79141" lon="5.21148">
        <ele>577.41</ele>
        <time>2014-05-15T12:09:46Z</time>
      </trkpt>
      <trkpt lat="43.79141" lon="5.21148">
        <ele>578.37</ele>
        <time>2014-05-15T12:10:25Z</time>
      </trkpt>
      <trkpt lat="43.79141" lon="5.21148">
        <ele>578.37</ele>
        <time>2014-05-15T12:10:58Z</time>
      </trkpt>
      <trkpt lat="43.79141" lon="5.21148">
        <ele>577.41</ele>
        <time>2014-05-15T12:11:34Z</time>
      </trkpt>
      <trkpt lat="43.79141" lon="5.21148">
        <ele>576.45</ele>
        <time>2014-05-15T12:11:36Z</time>
      </trkpt>
      <trkpt lat="43.79141" lon="5.21148">
        <ele>577.89</ele>
        <time>2014-05-15T12:11:38Z</time>
      </trkpt>
      <trkpt lat="43.79141" lon="5.21148">
        <ele>577.89</ele>
        <time>2014-05-15T12:11:48Z</time>
      </trkpt>
      <trkpt lat="43.79141" lon="5.21148">
        <ele>577.89</ele>
        <time>2014-05-15T12:12:36Z</time>
      </trkpt>
      <trkpt lat="43.79141" lon="5.21148">
        <ele>577.89</ele>
        <time>2014-05-15T12:12:51Z</time>
      </trkpt>
      <trkpt lat="43.79141" lon="5.21148">
        <ele>577.41</ele>
        <time>2014-05-15T12:13:15Z</time>
      </trkpt>
      <trkpt lat="43.79141" lon="5.21148">
        <ele>577.89</ele>
        <time>2014-05-15T12:13:53Z</time>
      </trkpt>
      <trkpt lat="43.79141" lon="5.21148">
        <ele>577.89</ele>
        <time>2014-05-15T12:14:13Z</time>
      </trkpt>
      <trkpt lat="43.79141" lon="5.21148">
        <ele>577.89</ele>
        <time>2014-05-15T12:14:30Z</time>
      </trkpt>
      <trkpt lat="43.79141" lon="5.21148">
        <ele>578.85</ele>
        <time>2014-05-15T12:14:35Z</time>
      </trkpt>
      <trkpt lat="43.79141" lon="5.21147">
        <ele>579.81</ele>
        <time>2014-05-15T12:14:45Z</time>
      </trkpt>
      <trkpt lat="43.79141" lon="5.21146">
        <ele>578.85</ele>
        <time>2014-05-15T12:15:05Z</time>
      </trkpt>
      <trkpt lat="43.79141" lon="5.21146">
        <ele>578.85</ele>
        <time>2014-05-15T12:15:06Z</time>
      </trkpt>
      <trkpt lat="43.79141" lon="5.21146">
        <ele>578.37</ele>
        <time>2014-05-15T12:15:29Z</time>
      </trkpt>
      <trkpt lat="43.79141" lon="5.21147">
        <ele>578.37</ele>
        <time>2014-05-15T12:15:45Z</time>
      </trkpt>
      <trkpt lat="43.7914" lon="5.21147">
        <ele>577.89</ele>
        <time>2014-05-15T12:16:07Z</time>
      </trkpt>
      <trkpt lat="43.7914" lon="5.21147">
        <ele>577.89</ele>
        <time>2014-05-15T12:16:14Z</time>
      </trkpt>
      <trkpt lat="43.79141" lon="5.21147">
        <ele>579.81</ele>
        <time>2014-05-15T12:16:16Z</time>
      </trkpt>
      <trkpt lat="43.79141" lon="5.21147">
        <ele>577.89</ele>
        <time>2014-05-15T12:16:30Z</time>
      </trkpt>
      <trkpt lat="43.79142" lon="5.21147">
        <ele>580.77</ele>
        <time>2014-05-15T12:16:48Z</time>
      </trkpt>
      <trkpt lat="43.79142" lon="5.21147">
        <ele>581.25</ele>
        <time>2014-05-15T12:16:49Z</time>
      </trkpt>
      <trkpt lat="43.79144" lon="5.21153">
        <ele>581.73</ele>
        <time>2014-05-15T12:17:04Z</time>
      </trkpt>
      <trkpt lat="43.79145" lon="5.21154">
        <ele>581.73</ele>
        <time>2014-05-15T12:17:25Z</time>
      </trkpt>
      <trkpt lat="43.79145" lon="5.21154">
        <ele>581.25</ele>
        <time>2014-05-15T12:17:47Z</time>
      </trkpt>
      <trkpt lat="43.79145" lon="5.21153">
        <ele>580.77</ele>
        <time>2014-05-15T12:17:56Z</time>
      </trkpt>
      <trkpt lat="43.79145" lon="5.21152">
        <ele>578.85</ele>
        <time>2014-05-15T12:18:05Z</time>
      </trkpt>
      <trkpt lat="43.79144" lon="5.21151">
        <ele>578.37</ele>
        <time>2014-05-15T12:18:18Z</time>
      </trkpt>
      <trkpt lat="43.79143" lon="5.21148">
        <ele>578.37</ele>
        <time>2014-05-15T12:18:33Z</time>
      </trkpt>
      <trkpt lat="43.79143" lon="5.21149">
        <ele>578.85</ele>
        <time>2014-05-15T12:18:43Z</time>
      </trkpt>
      <trkpt lat="43.79143" lon="5.21148">
        <ele>580.29</ele>
        <time>2014-05-15T12:18:55Z</time>
      </trkpt>
      <trkpt lat="43.79148" lon="5.21144">
        <ele>583.66</ele>
        <time>2014-05-15T12:19:06Z</time>
      </trkpt>
      <trkpt lat="43.79148" lon="5.21144">
        <ele>583.66</ele>
        <time>2014-05-15T12:19:07Z</time>
      </trkpt>
      <trkpt lat="43.79152" lon="5.21136">
        <ele>583.18</ele>
        <time>2014-05-15T12:19:19Z</time>
      </trkpt>
      <trkpt lat="43.79155" lon="5.21128">
        <ele>582.22</ele>
        <time>2014-05-15T12:19:32Z</time>
      </trkpt>
      <trkpt lat="43.79158" lon="5.21117">
        <ele>583.18</ele>
        <time>2014-05-15T12:19:47Z</time>
      </trkpt>
      <trkpt lat="43.79158" lon="5.21117">
        <ele>581.73</ele>
        <time>2014-05-15T12:19:50Z</time>
      </trkpt>
      <trkpt lat="43.79159" lon="5.21116">
        <ele>581.25</ele>
        <time>2014-05-15T12:20:10Z</time>
      </trkpt>
      <trkpt lat="43.79159" lon="5.21116">
        <ele>582.22</ele>
        <time>2014-05-15T12:20:28Z</time>
      </trkpt>
      <trkpt lat="43.79159" lon="5.21115">
        <ele>582.22</ele>
        <time>2014-05-15T12:20:38Z</time>
      </trkpt>
      <trkpt lat="43.79157" lon="5.21105">
        <ele>584.14</ele>
        <time>2014-05-15T12:20:49Z</time>
      </trkpt>
      <trkpt lat="43.79155" lon="5.21094">
        <ele>584.62</ele>
        <time>2014-05-15T12:21:00Z</time>
      </trkpt>
      <trkpt lat="43.79152" lon="5.21083">
        <ele>583.18</ele>
        <time>2014-05-15T12:21:07Z</time>
      </trkpt>
      <trkpt lat="43.79149" lon="5.21072">
        <ele>585.1</ele>
        <time>2014-05-15T12:21:15Z</time>
      </trkpt>
      <trkpt lat="43.79148" lon="5.21067">
        <ele>584.14</ele>
        <time>2014-05-15T12:21:18Z</time>
      </trkpt>
      <trkpt lat="43.79147" lon="5.21055">
        <ele>583.66</ele>
        <time>2014-05-15T12:21:28Z</time>
      </trkpt>
      <trkpt lat="43.79146" lon="5.21038">
        <ele>583.18</ele>
        <time>2014-05-15T12:21:40Z</time>
      </trkpt>
      <trkpt lat="43.79146" lon="5.21034">
        <ele>581.73</ele>
        <time>2014-05-15T12:21:43Z</time>
      </trkpt>
      <trkpt lat="43.79145" lon="5.21031">
        <ele>583.18</ele>
        <time>2014-05-15T12:21:46Z</time>
      </trkpt>
      <trkpt lat="43.79139" lon="5.21024">
        <ele>585.1</ele>
        <time>2014-05-15T12:21:55Z</time>
      </trkpt>
      <trkpt lat="43.79137" lon="5.21023">
        <ele>585.58</ele>
        <time>2014-05-15T12:21:57Z</time>
      </trkpt>
      <trkpt lat="43.79123" lon="5.2102">
        <ele>587.02</ele>
        <time>2014-05-15T12:22:14Z</time>
      </trkpt>
      <trkpt lat="43.79115" lon="5.21024">
        <ele>588.95</ele>
        <time>2014-05-15T12:22:29Z</time>
      </trkpt>
      <trkpt lat="43.79114" lon="5.21024">
        <ele>589.43</ele>
        <time>2014-05-15T12:22:36Z</time>
      </trkpt>
      <trkpt lat="43.79114" lon="5.21024">
        <ele>587.5</ele>
        <time>2014-05-15T12:22:39Z</time>
      </trkpt>
      <trkpt lat="43.79111" lon="5.21016">
        <ele>585.1</ele>
        <time>2014-05-15T12:22:52Z</time>
      </trkpt>
      <trkpt lat="43.79101" lon="5.20997">
        <ele>582.7</ele>
        <time>2014-05-15T12:23:08Z</time>
      </trkpt>
      <trkpt lat="43.79093" lon="5.20979">
        <ele>579.81</ele>
        <time>2014-05-15T12:23:22Z</time>
      </trkpt>
      <trkpt lat="43.79089" lon="5.20959">
        <ele>577.41</ele>
        <time>2014-05-15T12:23:36Z</time>
      </trkpt>
      <trkpt lat="43.79086" lon="5.20937">
        <ele>575.01</ele>
        <time>2014-05-15T12:23:51Z</time>
      </trkpt>
      <trkpt lat="43.79086" lon="5.20931">
        <ele>573.56</ele>
        <time>2014-05-15T12:24:07Z</time>
      </trkpt>
      <trkpt lat="43.79083" lon="5.20927">
        <ele>573.56</ele>
        <time>2014-05-15T12:24:24Z</time>
      </trkpt>
      <trkpt lat="43.79071" lon="5.20922">
        <ele>572.6</ele>
        <time>2014-05-15T12:24:40Z</time>
      </trkpt>
      <trkpt lat="43.79064" lon="5.20919">
        <ele>569.24</ele>
        <time>2014-05-15T12:24:52Z</time>
      </trkpt>
      <trkpt lat="43.79055" lon="5.20907">
        <ele>566.35</ele>
        <time>2014-05-15T12:25:05Z</time>
      </trkpt>
      <trkpt lat="43.79051" lon="5.20901">
        <ele>564.91</ele>
        <time>2014-05-15T12:25:11Z</time>
      </trkpt>
      <trkpt lat="43.79038" lon="5.20891">
        <ele>562.51</ele>
        <time>2014-05-15T12:25:28Z</time>
      </trkpt>
      <trkpt lat="43.7903" lon="5.20886">
        <ele>560.59</ele>
        <time>2014-05-15T12:25:38Z</time>
      </trkpt>
      <trkpt lat="43.79015" lon="5.20879">
        <ele>559.62</ele>
        <time>2014-05-15T12:25:54Z</time>
      </trkpt>
      <trkpt lat="43.79004" lon="5.20873">
        <ele>559.14</ele>
        <time>2014-05-15T12:26:09Z</time>
      </trkpt>
      <trkpt lat="43.79" lon="5.20873">
        <ele>557.7</ele>
        <time>2014-05-15T12:26:18Z</time>
      </trkpt>
      <trkpt lat="43.78985" lon="5.20876">
        <ele>556.74</ele>
        <time>2014-05-15T12:26:35Z</time>
      </trkpt>
      <trkpt lat="43.78983" lon="5.20875">
        <ele>556.26</ele>
        <time>2014-05-15T12:26:37Z</time>
      </trkpt>
      <trkpt lat="43.7897" lon="5.20872">
        <ele>555.78</ele>
        <time>2014-05-15T12:26:52Z</time>
      </trkpt>
      <trkpt lat="43.7896" lon="5.20874">
        <ele>554.82</ele>
        <time>2014-05-15T12:27:06Z</time>
      </trkpt>
      <trkpt lat="43.78958" lon="5.20873">
        <ele>554.34</ele>
        <time>2014-05-15T12:27:10Z</time>
      </trkpt>
      <trkpt lat="43.78947" lon="5.20874">
        <ele>552.41</ele>
        <time>2014-05-15T12:27:25Z</time>
      </trkpt>
      <trkpt lat="43.7894" lon="5.20877">
        <ele>551.93</ele>
        <time>2014-05-15T12:27:32Z</time>
      </trkpt>
      <trkpt lat="43.78936" lon="5.20881">
        <ele>551.45</ele>
        <time>2014-05-15T12:27:37Z</time>
      </trkpt>
      <trkpt lat="43.7892" lon="5.20884">
        <ele>552.41</ele>
        <time>2014-05-15T12:27:54Z</time>
      </trkpt>
      <trkpt lat="43.78918" lon="5.20885">
        <ele>552.41</ele>
        <time>2014-05-15T12:27:56Z</time>
      </trkpt>
      <trkpt lat="43.7891" lon="5.20894">
        <ele>551.93</ele>
        <time>2014-05-15T12:28:09Z</time>
      </trkpt>
      <trkpt lat="43.78898" lon="5.20896">
        <ele>551.93</ele>
        <time>2014-05-15T12:28:24Z</time>
      </trkpt>
      <trkpt lat="43.78887" lon="5.20911">
        <ele>550.49</ele>
        <time>2014-05-15T12:28:40Z</time>
      </trkpt>
      <trkpt lat="43.78881" lon="5.20913">
        <ele>549.05</ele>
        <time>2014-05-15T12:28:46Z</time>
      </trkpt>
      <trkpt lat="43.78873" lon="5.20921">
        <ele>548.09</ele>
        <time>2014-05-15T12:29:02Z</time>
      </trkpt>
      <trkpt lat="43.78873" lon="5.20924">
        <ele>548.09</ele>
        <time>2014-05-15T12:29:24Z</time>
      </trkpt>
      <trkpt lat="43.7887" lon="5.20927">
        <ele>546.17</ele>
        <time>2014-05-15T12:29:41Z</time>
      </trkpt>
      <trkpt lat="43.7887" lon="5.20927">
        <ele>547.13</ele>
        <time>2014-05-15T12:30:05Z</time>
      </trkpt>
      <trkpt lat="43.78873" lon="5.20918">
        <ele>546.17</ele>
        <time>2014-05-15T12:30:33Z</time>
      </trkpt>
      <trkpt lat="43.78868" lon="5.20924">
        <ele>542.8</ele>
        <time>2014-05-15T12:30:53Z</time>
      </trkpt>
      <trkpt lat="43.78861" lon="5.20941">
        <ele>541.36</ele>
        <time>2014-05-15T12:31:01Z</time>
      </trkpt>
      <trkpt lat="43.78851" lon="5.20948">
        <ele>539.92</ele>
        <time>2014-05-15T12:31:09Z</time>
      </trkpt>
      <trkpt lat="43.78842" lon="5.20961">
        <ele>536.07</ele>
        <time>2014-05-15T12:31:23Z</time>
      </trkpt>
      <trkpt lat="43.78834" lon="5.2097">
        <ele>533.67</ele>
        <time>2014-05-15T12:31:42Z</time>
      </trkpt>
      <trkpt lat="43.78833" lon="5.20973">
        <ele>532.71</ele>
        <time>2014-05-15T12:31:45Z</time>
      </trkpt>
      <trkpt lat="43.78821" lon="5.20985">
        <ele>528.86</ele>
        <time>2014-05-15T12:32:08Z</time>
      </trkpt>
      <trkpt lat="43.78805" lon="5.20988">
        <ele>525.98</ele>
        <time>2014-05-15T12:32:28Z</time>
      </trkpt>
      <trkpt lat="43.78793" lon="5.20997">
        <ele>524.06</ele>
        <time>2014-05-15T12:32:44Z</time>
      </trkpt>
      <trkpt lat="43.78788" lon="5.21">
        <ele>522.61</ele>
        <time>2014-05-15T12:32:49Z</time>
      </trkpt>
      <trkpt lat="43.78782" lon="5.21004">
        <ele>518.77</ele>
        <time>2014-05-15T12:32:59Z</time>
      </trkpt>
      <trkpt lat="43.78781" lon="5.21005">
        <ele>518.77</ele>
        <time>2014-05-15T12:33:00Z</time>
      </trkpt>
      <trkpt lat="43.78774" lon="5.21004">
        <ele>515.4</ele>
        <time>2014-05-15T12:33:15Z</time>
      </trkpt>
      <trkpt lat="43.78758" lon="5.20993">
        <ele>512.04</ele>
        <time>2014-05-15T12:33:35Z</time>
      </trkpt>
      <trkpt lat="43.78742" lon="5.20991">
        <ele>509.16</ele>
        <time>2014-05-15T12:33:57Z</time>
      </trkpt>
      <trkpt lat="43.78723" lon="5.20989">
        <ele>505.79</ele>
        <time>2014-05-15T12:34:18Z</time>
      </trkpt>
      <trkpt lat="43.78719" lon="5.20995">
        <ele>502.91</ele>
        <time>2014-05-15T12:34:27Z</time>
      </trkpt>
      <trkpt lat="43.78719" lon="5.20995">
        <ele>506.27</ele>
        <time>2014-05-15T12:34:28Z</time>
      </trkpt>
      <trkpt lat="43.78717" lon="5.20999">
        <ele>502.91</ele>
        <time>2014-05-15T12:34:37Z</time>
      </trkpt>
      <trkpt lat="43.78704" lon="5.20994">
        <ele>500.5</ele>
        <time>2014-05-15T12:34:57Z</time>
      </trkpt>
      <trkpt lat="43.787" lon="5.20988">
        <ele>499.06</ele>
        <time>2014-05-15T12:35:14Z</time>
      </trkpt>
      <trkpt lat="43.787" lon="5.20988">
        <ele>498.58</ele>
        <time>2014-05-15T12:35:37Z</time>
      </trkpt>
      <trkpt lat="43.78701" lon="5.20988">
        <ele>498.58</ele>
        <time>2014-05-15T12:36:09Z</time>
      </trkpt>
      <trkpt lat="43.78701" lon="5.20988">
        <ele>499.06</ele>
        <time>2014-05-15T12:36:37Z</time>
      </trkpt>
      <trkpt lat="43.787" lon="5.20988">
        <ele>498.58</ele>
        <time>2014-05-15T12:37:03Z</time>
      </trkpt>
      <trkpt lat="43.787" lon="5.20989">
        <ele>498.58</ele>
        <time>2014-05-15T12:37:30Z</time>
      </trkpt>
      <trkpt lat="43.787" lon="5.20989">
        <ele>499.54</ele>
        <time>2014-05-15T12:37:54Z</time>
      </trkpt>
      <trkpt lat="43.787" lon="5.20989">
        <ele>498.58</ele>
        <time>2014-05-15T12:38:19Z</time>
      </trkpt>
      <trkpt lat="43.787" lon="5.20989">
        <ele>499.06</ele>
        <time>2014-05-15T12:38:47Z</time>
      </trkpt>
      <trkpt lat="43.787" lon="5.20989">
        <ele>499.06</ele>
        <time>2014-05-15T12:39:14Z</time>
      </trkpt>
      <trkpt lat="43.787" lon="5.2099">
        <ele>499.54</ele>
        <time>2014-05-15T12:39:41Z</time>
      </trkpt>
      <trkpt lat="43.787" lon="5.2099">
        <ele>499.06</ele>
        <time>2014-05-15T12:40:08Z</time>
      </trkpt>
      <trkpt lat="43.787" lon="5.2099">
        <ele>499.06</ele>
        <time>2014-05-15T12:40:35Z</time>
      </trkpt>
      <trkpt lat="43.78698" lon="5.20985">
        <ele>497.14</ele>
        <time>2014-05-15T12:40:55Z</time>
      </trkpt>
      <trkpt lat="43.78697" lon="5.20984">
        <ele>495.7</ele>
        <time>2014-05-15T12:40:58Z</time>
      </trkpt>
      <trkpt lat="43.78683" lon="5.20966">
        <ele>494.74</ele>
        <time>2014-05-15T12:41:15Z</time>
      </trkpt>
      <trkpt lat="43.78677" lon="5.20955">
        <ele>492.33</ele>
        <time>2014-05-15T12:41:28Z</time>
      </trkpt>
      <trkpt lat="43.7867" lon="5.20951">
        <ele>489.45</ele>
        <time>2014-05-15T12:41:37Z</time>
      </trkpt>
      <trkpt lat="43.78656" lon="5.20945">
        <ele>487.05</ele>
        <time>2014-05-15T12:41:54Z</time>
      </trkpt>
      <trkpt lat="43.78652" lon="5.2094">
        <ele>485.12</ele>
        <time>2014-05-15T12:42:01Z</time>
      </trkpt>
      <trkpt lat="43.78644" lon="5.20941">
        <ele>483.68</ele>
        <time>2014-05-15T12:42:14Z</time>
      </trkpt>
      <trkpt lat="43.78628" lon="5.20934">
        <ele>480.8</ele>
        <time>2014-05-15T12:42:33Z</time>
      </trkpt>
      <trkpt lat="43.78618" lon="5.20934">
        <ele>477.43</ele>
        <time>2014-05-15T12:42:44Z</time>
      </trkpt>
      <trkpt lat="43.78607" lon="5.2093">
        <ele>474.55</ele>
        <time>2014-05-15T12:42:58Z</time>
      </trkpt>
      <trkpt lat="43.78593" lon="5.20925">
        <ele>472.63</ele>
        <time>2014-05-15T12:43:13Z</time>
      </trkpt>
      <trkpt lat="43.78583" lon="5.20923">
        <ele>470.22</ele>
        <time>2014-05-15T12:43:24Z</time>
      </trkpt>
      <trkpt lat="43.78581" lon="5.20921">
        <ele>469.74</ele>
        <time>2014-05-15T12:43:26Z</time>
      </trkpt>
      <trkpt lat="43.78566" lon="5.20916">
        <ele>468.3</ele>
        <time>2014-05-15T12:43:43Z</time>
      </trkpt>
      <trkpt lat="43.78558" lon="5.20913">
        <ele>466.86</ele>
        <time>2014-05-15T12:43:52Z</time>
      </trkpt>
      <trkpt lat="43.78546" lon="5.20906">
        <ele>463.97</ele>
        <time>2014-05-15T12:44:07Z</time>
      </trkpt>
      <trkpt lat="43.78542" lon="5.20906">
        <ele>463.49</ele>
        <time>2014-05-15T12:44:11Z</time>
      </trkpt>
      <trkpt lat="43.78532" lon="5.20906">
        <ele>462.53</ele>
        <time>2014-05-15T12:44:22Z</time>
      </trkpt>
      <trkpt lat="43.78521" lon="5.20907">
        <ele>461.09</ele>
        <time>2014-05-15T12:44:33Z</time>
      </trkpt>
      <trkpt lat="43.78519" lon="5.20907">
        <ele>460.61</ele>
        <time>2014-05-15T12:44:35Z</time>
      </trkpt>
      <trkpt lat="43.78508" lon="5.20903">
        <ele>459.17</ele>
        <time>2014-05-15T12:44:47Z</time>
      </trkpt>
      <trkpt lat="43.78494" lon="5.20907">
        <ele>458.69</ele>
        <time>2014-05-15T12:45:01Z</time>
      </trkpt>
      <trkpt lat="43.78492" lon="5.20906">
        <ele>460.61</ele>
        <time>2014-05-15T12:45:15Z</time>
      </trkpt>
      <trkpt lat="43.78492" lon="5.20906">
        <ele>460.61</ele>
        <time>2014-05-15T12:45:16Z</time>
      </trkpt>
      <trkpt lat="43.78492" lon="5.20907">
        <ele>458.69</ele>
        <time>2014-05-15T12:45:20Z</time>
      </trkpt>
      <trkpt lat="43.7849" lon="5.20906">
        <ele>460.13</ele>
        <time>2014-05-15T12:45:28Z</time>
      </trkpt>
      <trkpt lat="43.78482" lon="5.20913">
        <ele>459.65</ele>
        <time>2014-05-15T12:45:43Z</time>
      </trkpt>
      <trkpt lat="43.78468" lon="5.20921">
        <ele>461.09</ele>
        <time>2014-05-15T12:45:58Z</time>
      </trkpt>
      <trkpt lat="43.78466" lon="5.20922">
        <ele>460.61</ele>
        <time>2014-05-15T12:46:00Z</time>
      </trkpt>
      <trkpt lat="43.78459" lon="5.20927">
        <ele>461.09</ele>
        <time>2014-05-15T12:46:10Z</time>
      </trkpt>
      <trkpt lat="43.78444" lon="5.20933">
        <ele>462.05</ele>
        <time>2014-05-15T12:46:25Z</time>
      </trkpt>
      <trkpt lat="43.78432" lon="5.20939">
        <ele>462.05</ele>
        <time>2014-05-15T12:46:38Z</time>
      </trkpt>
      <trkpt lat="43.7842" lon="5.20945">
        <ele>461.09</ele>
        <time>2014-05-15T12:46:51Z</time>
      </trkpt>
      <trkpt lat="43.78417" lon="5.20945">
        <ele>462.53</ele>
        <time>2014-05-15T12:46:55Z</time>
      </trkpt>
      <trkpt lat="43.78414" lon="5.20946">
        <ele>462.05</ele>
        <time>2014-05-15T12:46:57Z</time>
      </trkpt>
      <trkpt lat="43.78402" lon="5.20959">
        <ele>461.09</ele>
        <time>2014-05-15T12:47:14Z</time>
      </trkpt>
      <trkpt lat="43.78401" lon="5.20961">
        <ele>460.61</ele>
        <time>2014-05-15T12:47:16Z</time>
      </trkpt>
      <trkpt lat="43.784" lon="5.20964">
        <ele>460.13</ele>
        <time>2014-05-15T12:47:18Z</time>
      </trkpt>
      <trkpt lat="43.78396" lon="5.20968">
        <ele>459.17</ele>
        <time>2014-05-15T12:47:23Z</time>
      </trkpt>
      <trkpt lat="43.78389" lon="5.20974">
        <ele>457.24</ele>
        <time>2014-05-15T12:47:32Z</time>
      </trkpt>
      <trkpt lat="43.7838" lon="5.20977">
        <ele>456.76</ele>
        <time>2014-05-15T12:47:43Z</time>
      </trkpt>
      <trkpt lat="43.78365" lon="5.20976">
        <ele>453.88</ele>
        <time>2014-05-15T12:48:00Z</time>
      </trkpt>
      <trkpt lat="43.78351" lon="5.20979">
        <ele>451.96</ele>
        <time>2014-05-15T12:48:17Z</time>
      </trkpt>
      <trkpt lat="43.78341" lon="5.20974">
        <ele>448.59</ele>
        <time>2014-05-15T12:48:28Z</time>
      </trkpt>
      <trkpt lat="43.78334" lon="5.20968">
        <ele>445.71</ele>
        <time>2014-05-15T12:48:41Z</time>
      </trkpt>
      <trkpt lat="43.78331" lon="5.20969">
        <ele>443.31</ele>
        <time>2014-05-15T12:48:59Z</time>
      </trkpt>
      <trkpt lat="43.78309" lon="5.20962">
        <ele>439.94</ele>
        <time>2014-05-15T12:49:18Z</time>
      </trkpt>
      <trkpt lat="43.78286" lon="5.20949">
        <ele>436.1</ele>
        <time>2014-05-15T12:49:38Z</time>
      </trkpt>
      <trkpt lat="43.78285" lon="5.20949">
        <ele>436.1</ele>
        <time>2014-05-15T12:49:39Z</time>
      </trkpt>
      <trkpt lat="43.78268" lon="5.20949">
        <ele>434.65</ele>
        <time>2014-05-15T12:49:58Z</time>
      </trkpt>
      <trkpt lat="43.78263" lon="5.20947">
        <ele>435.61</ele>
        <time>2014-05-15T12:50:14Z</time>
      </trkpt>
      <trkpt lat="43.78262" lon="5.20946">
        <ele>435.61</ele>
        <time>2014-05-15T12:50:38Z</time>
      </trkpt>
      <trkpt lat="43.78261" lon="5.20946">
        <ele>436.1</ele>
        <time>2014-05-15T12:51:03Z</time>
      </trkpt>
      <trkpt lat="43.78261" lon="5.20946">
        <ele>434.17</ele>
        <time>2014-05-15T12:51:33Z</time>
      </trkpt>
      <trkpt lat="43.78261" lon="5.20946">
        <ele>433.21</ele>
        <time>2014-05-15T12:51:56Z</time>
      </trkpt>
      <trkpt lat="43.78258" lon="5.20939">
        <ele>434.17</ele>
        <time>2014-05-15T12:52:16Z</time>
      </trkpt>
      <trkpt lat="43.78257" lon="5.20938">
        <ele>436.58</ele>
        <time>2014-05-15T12:52:35Z</time>
      </trkpt>
      <trkpt lat="43.78254" lon="5.20936">
        <ele>437.54</ele>
        <time>2014-05-15T12:52:44Z</time>
      </trkpt>
      <trkpt lat="43.78246" lon="5.20937">
        <ele>437.06</ele>
        <time>2014-05-15T12:52:59Z</time>
      </trkpt>
      <trkpt lat="43.78237" lon="5.20933">
        <ele>438.98</ele>
        <time>2014-05-15T12:53:14Z</time>
      </trkpt>
      <trkpt lat="43.78228" lon="5.20935">
        <ele>436.58</ele>
        <time>2014-05-15T12:53:27Z</time>
      </trkpt>
      <trkpt lat="43.78214" lon="5.2094">
        <ele>433.69</ele>
        <time>2014-05-15T12:53:42Z</time>
      </trkpt>
      <trkpt lat="43.78201" lon="5.2094">
        <ele>431.77</ele>
        <time>2014-05-15T12:53:57Z</time>
      </trkpt>
      <trkpt lat="43.78197" lon="5.20942">
        <ele>431.29</ele>
        <time>2014-05-15T12:54:01Z</time>
      </trkpt>
      <trkpt lat="43.78182" lon="5.2095">
        <ele>429.37</ele>
        <time>2014-05-15T12:54:13Z</time>
      </trkpt>
      <trkpt lat="43.78174" lon="5.20957">
        <ele>430.33</ele>
        <time>2014-05-15T12:54:28Z</time>
      </trkpt>
      <trkpt lat="43.78163" lon="5.20969">
        <ele>430.81</ele>
        <time>2014-05-15T12:54:45Z</time>
      </trkpt>
      <trkpt lat="43.78162" lon="5.2097">
        <ele>432.25</ele>
        <time>2014-05-15T12:54:50Z</time>
      </trkpt>
      <trkpt lat="43.78148" lon="5.20979">
        <ele>431.77</ele>
        <time>2014-05-15T12:55:03Z</time>
      </trkpt>
      <trkpt lat="43.78136" lon="5.20987">
        <ele>432.25</ele>
        <time>2014-05-15T12:55:17Z</time>
      </trkpt>
      <trkpt lat="43.78125" lon="5.20988">
        <ele>432.73</ele>
        <time>2014-05-15T12:55:29Z</time>
      </trkpt>
      <trkpt lat="43.78119" lon="5.20986">
        <ele>430.33</ele>
        <time>2014-05-15T12:55:34Z</time>
      </trkpt>
      <trkpt lat="43.78104" lon="5.20976">
        <ele>428.4</ele>
        <time>2014-05-15T12:55:51Z</time>
      </trkpt>
      <trkpt lat="43.7809" lon="5.20974">
        <ele>426.48</ele>
        <time>2014-05-15T12:56:07Z</time>
      </trkpt>
      <trkpt lat="43.78078" lon="5.20975">
        <ele>426.96</ele>
        <time>2014-05-15T12:56:24Z</time>
      </trkpt>
      <trkpt lat="43.78068" lon="5.20978">
        <ele>427.44</ele>
        <time>2014-05-15T12:56:39Z</time>
      </trkpt>
      <trkpt lat="43.78064" lon="5.20979">
        <ele>425.52</ele>
        <time>2014-05-15T12:56:44Z</time>
      </trkpt>
      <trkpt lat="43.78053" lon="5.20976">
        <ele>426.48</ele>
        <time>2014-05-15T12:56:55Z</time>
      </trkpt>
      <trkpt lat="43.78044" lon="5.20973">
        <ele>428.89</ele>
        <time>2014-05-15T12:57:03Z</time>
      </trkpt>
      <trkpt lat="43.78038" lon="5.20972">
        <ele>428.89</ele>
        <time>2014-05-15T12:57:07Z</time>
      </trkpt>
      <trkpt lat="43.78036" lon="5.20972">
        <ele>429.85</ele>
        <time>2014-05-15T12:57:09Z</time>
      </trkpt>
      <trkpt lat="43.78033" lon="5.20972">
        <ele>431.29</ele>
        <time>2014-05-15T12:57:12Z</time>
      </trkpt>
      <trkpt lat="43.78027" lon="5.20972">
        <ele>429.85</ele>
        <time>2014-05-15T12:57:19Z</time>
      </trkpt>
      <trkpt lat="43.78023" lon="5.20973">
        <ele>430.81</ele>
        <time>2014-05-15T12:57:22Z</time>
      </trkpt>
      <trkpt lat="43.78014" lon="5.20974">
        <ele>428.89</ele>
        <time>2014-05-15T12:57:32Z</time>
      </trkpt>
      <trkpt lat="43.78005" lon="5.20965">
        <ele>427.92</ele>
        <time>2014-05-15T12:57:44Z</time>
      </trkpt>
      <trkpt lat="43.78002" lon="5.20964">
        <ele>426.48</ele>
        <time>2014-05-15T12:57:47Z</time>
      </trkpt>
      <trkpt lat="43.78001" lon="5.20963">
        <ele>426.48</ele>
        <time>2014-05-15T12:57:48Z</time>
      </trkpt>
      <trkpt lat="43.77987" lon="5.20952">
        <ele>423.6</ele>
        <time>2014-05-15T12:58:02Z</time>
      </trkpt>
      <trkpt lat="43.77986" lon="5.2095">
        <ele>423.6</ele>
        <time>2014-05-15T12:58:04Z</time>
      </trkpt>
      <trkpt lat="43.77979" lon="5.20946">
        <ele>422.16</ele>
        <time>2014-05-15T12:58:10Z</time>
      </trkpt>
      <trkpt lat="43.7797" lon="5.20938">
        <ele>419.75</ele>
        <time>2014-05-15T12:58:22Z</time>
      </trkpt>
      <trkpt lat="43.77959" lon="5.20933">
        <ele>416.87</ele>
        <time>2014-05-15T12:58:34Z</time>
      </trkpt>
      <trkpt lat="43.77958" lon="5.20933">
        <ele>416.39</ele>
        <time>2014-05-15T12:58:35Z</time>
      </trkpt>
      <trkpt lat="43.77952" lon="5.20932">
        <ele>414.47</ele>
        <time>2014-05-15T12:58:40Z</time>
      </trkpt>
      <trkpt lat="43.77945" lon="5.20932">
        <ele>413.02</ele>
        <time>2014-05-15T12:58:58Z</time>
      </trkpt>
      <trkpt lat="43.77935" lon="5.20933">
        <ele>410.14</ele>
        <time>2014-05-15T12:59:08Z</time>
      </trkpt>
      <trkpt lat="43.77934" lon="5.20933">
        <ele>409.18</ele>
        <time>2014-05-15T12:59:10Z</time>
      </trkpt>
      <trkpt lat="43.7792" lon="5.20931">
        <ele>407.26</ele>
        <time>2014-05-15T12:59:24Z</time>
      </trkpt>
      <trkpt lat="43.77916" lon="5.2093">
        <ele>405.33</ele>
        <time>2014-05-15T12:59:43Z</time>
      </trkpt>
      <trkpt lat="43.77916" lon="5.2093">
        <ele>404.85</ele>
        <time>2014-05-15T13:00:08Z</time>
      </trkpt>
      <trkpt lat="43.77916" lon="5.20931">
        <ele>406.29</ele>
        <time>2014-05-15T13:00:23Z</time>
      </trkpt>
      <trkpt lat="43.77916" lon="5.20931">
        <ele>405.81</ele>
        <time>2014-05-15T13:00:29Z</time>
      </trkpt>
      <trkpt lat="43.77915" lon="5.2093">
        <ele>405.81</ele>
        <time>2014-05-15T13:00:48Z</time>
      </trkpt>
      <trkpt lat="43.77916" lon="5.2093">
        <ele>404.85</ele>
        <time>2014-05-15T13:01:08Z</time>
      </trkpt>
      <trkpt lat="43.77916" lon="5.2093">
        <ele>406.29</ele>
        <time>2014-05-15T13:01:26Z</time>
      </trkpt>
      <trkpt lat="43.77914" lon="5.2093">
        <ele>404.37</ele>
        <time>2014-05-15T13:01:33Z</time>
      </trkpt>
      <trkpt lat="43.77899" lon="5.20926">
        <ele>401.97</ele>
        <time>2014-05-15T13:01:49Z</time>
      </trkpt>
      <trkpt lat="43.77888" lon="5.20921">
        <ele>399.57</ele>
        <time>2014-05-15T13:02:02Z</time>
      </trkpt>
      <trkpt lat="43.77875" lon="5.20914">
        <ele>397.64</ele>
        <time>2014-05-15T13:02:17Z</time>
      </trkpt>
      <trkpt lat="43.77869" lon="5.20905">
        <ele>394.28</ele>
        <time>2014-05-15T13:02:28Z</time>
      </trkpt>
      <trkpt lat="43.77867" lon="5.20904">
        <ele>392.84</ele>
        <time>2014-05-15T13:02:31Z</time>
      </trkpt>
      <trkpt lat="43.77856" lon="5.20903">
        <ele>389.95</ele>
        <time>2014-05-15T13:02:48Z</time>
      </trkpt>
      <trkpt lat="43.77848" lon="5.20904">
        <ele>387.07</ele>
        <time>2014-05-15T13:02:57Z</time>
      </trkpt>
      <trkpt lat="43.77837" lon="5.20906">
        <ele>384.18</ele>
        <time>2014-05-15T13:03:11Z</time>
      </trkpt>
      <trkpt lat="43.77833" lon="5.20907">
        <ele>382.74</ele>
        <time>2014-05-15T13:03:18Z</time>
      </trkpt>
      <trkpt lat="43.77825" lon="5.20909">
        <ele>382.74</ele>
        <time>2014-05-15T13:03:32Z</time>
      </trkpt>
      <trkpt lat="43.77822" lon="5.2091">
        <ele>382.74</ele>
        <time>2014-05-15T13:03:34Z</time>
      </trkpt>
      <trkpt lat="43.77802" lon="5.20918">
        <ele>379.38</ele>
        <time>2014-05-15T13:03:52Z</time>
      </trkpt>
      <trkpt lat="43.77795" lon="5.20925">
        <ele>379.38</ele>
        <time>2014-05-15T13:04:04Z</time>
      </trkpt>
      <trkpt lat="43.7778" lon="5.20931">
        <ele>376.01</ele>
        <time>2014-05-15T13:04:19Z</time>
      </trkpt>
      <trkpt lat="43.77766" lon="5.20934">
        <ele>374.57</ele>
        <time>2014-05-15T13:04:34Z</time>
      </trkpt>
      <trkpt lat="43.7775" lon="5.20943">
        <ele>372.17</ele>
        <time>2014-05-15T13:04:51Z</time>
      </trkpt>
      <trkpt lat="43.77747" lon="5.20944">
        <ele>373.13</ele>
        <time>2014-05-15T13:04:55Z</time>
      </trkpt>
      <trkpt lat="43.77731" lon="5.20953">
        <ele>370.73</ele>
        <time>2014-05-15T13:05:12Z</time>
      </trkpt>
      <trkpt lat="43.77728" lon="5.20954">
        <ele>371.21</ele>
        <time>2014-05-15T13:05:15Z</time>
      </trkpt>
      <trkpt lat="43.77721" lon="5.20956">
        <ele>367.84</ele>
        <time>2014-05-15T13:05:22Z</time>
      </trkpt>
      <trkpt lat="43.7771" lon="5.20961">
        <ele>368.8</ele>
        <time>2014-05-15T13:05:33Z</time>
      </trkpt>
      <trkpt lat="43.777" lon="5.20971">
        <ele>366.88</ele>
        <time>2014-05-15T13:05:46Z</time>
      </trkpt>
      <trkpt lat="43.77695" lon="5.20973">
        <ele>366.4</ele>
        <time>2014-05-15T13:05:52Z</time>
      </trkpt>
      <trkpt lat="43.77681" lon="5.20979">
        <ele>367.84</ele>
        <time>2014-05-15T13:06:09Z</time>
      </trkpt>
      <trkpt lat="43.77681" lon="5.20979">
        <ele>366.4</ele>
        <time>2014-05-15T13:06:13Z</time>
      </trkpt>
      <trkpt lat="43.77677" lon="5.20985">
        <ele>366.4</ele>
        <time>2014-05-15T13:06:25Z</time>
      </trkpt>
      <trkpt lat="43.77676" lon="5.20984">
        <ele>368.32</ele>
        <time>2014-05-15T13:06:29Z</time>
      </trkpt>
      <trkpt lat="43.77675" lon="5.20984">
        <ele>365.44</ele>
        <time>2014-05-15T13:06:40Z</time>
      </trkpt>
      <trkpt lat="43.77675" lon="5.20984">
        <ele>365.44</ele>
        <time>2014-05-15T13:06:41Z</time>
      </trkpt>
      <trkpt lat="43.77675" lon="5.20984">
        <ele>368.32</ele>
        <time>2014-05-15T13:06:44Z</time>
      </trkpt>
      <trkpt lat="43.77675" lon="5.20984">
        <ele>369.28</ele>
        <time>2014-05-15T13:06:46Z</time>
      </trkpt>
      <trkpt lat="43.77675" lon="5.20984">
        <ele>371.21</ele>
        <time>2014-05-15T13:06:50Z</time>
      </trkpt>
      <trkpt lat="43.77667" lon="5.20993">
        <ele>372.17</ele>
        <time>2014-05-15T13:07:05Z</time>
      </trkpt>
      <trkpt lat="43.77666" lon="5.20993">
        <ele>374.09</ele>
        <time>2014-05-15T13:07:15Z</time>
      </trkpt>
      <trkpt lat="43.77649" lon="5.20995">
        <ele>373.13</ele>
        <time>2014-05-15T13:07:30Z</time>
      </trkpt>
      <trkpt lat="43.77628" lon="5.20994">
        <ele>375.53</ele>
        <time>2014-05-15T13:07:44Z</time>
      </trkpt>
      <trkpt lat="43.77616" lon="5.20994">
        <ele>376.97</ele>
        <time>2014-05-15T13:07:58Z</time>
      </trkpt>
      <trkpt lat="43.77609" lon="5.20993">
        <ele>376.01</ele>
        <time>2014-05-15T13:08:05Z</time>
      </trkpt>
      <trkpt lat="43.77601" lon="5.20998">
        <ele>375.05</ele>
        <time>2014-05-15T13:08:19Z</time>
      </trkpt>
      <trkpt lat="43.7759" lon="5.21016">
        <ele>374.09</ele>
        <time>2014-05-15T13:08:36Z</time>
      </trkpt>
      <trkpt lat="43.7758" lon="5.21018">
        <ele>371.69</ele>
        <time>2014-05-15T13:08:50Z</time>
      </trkpt>
      <trkpt lat="43.77573" lon="5.21019">
        <ele>370.24</ele>
        <time>2014-05-15T13:08:59Z</time>
      </trkpt>
      <trkpt lat="43.77561" lon="5.21028">
        <ele>367.84</ele>
        <time>2014-05-15T13:09:16Z</time>
      </trkpt>
      <trkpt lat="43.77557" lon="5.21026">
        <ele>366.88</ele>
        <time>2014-05-15T13:09:22Z</time>
      </trkpt>
      <trkpt lat="43.77553" lon="5.21025">
        <ele>365.44</ele>
        <time>2014-05-15T13:09:26Z</time>
      </trkpt>
      <trkpt lat="43.7754" lon="5.21034">
        <ele>367.36</ele>
        <time>2014-05-15T13:09:39Z</time>
      </trkpt>
      <trkpt lat="43.77532" lon="5.21047">
        <ele>370.73</ele>
        <time>2014-05-15T13:09:55Z</time>
      </trkpt>
      <trkpt lat="43.77524" lon="5.21053">
        <ele>370.73</ele>
        <time>2014-05-15T13:10:10Z</time>
      </trkpt>
      <trkpt lat="43.77519" lon="5.2106">
        <ele>370.73</ele>
        <time>2014-05-15T13:10:20Z</time>
      </trkpt>
      <trkpt lat="43.77509" lon="5.2108">
        <ele>372.17</ele>
        <time>2014-05-15T13:10:35Z</time>
      </trkpt>
      <trkpt lat="43.77496" lon="5.21083">
        <ele>369.76</ele>
        <time>2014-05-15T13:10:47Z</time>
      </trkpt>
      <trkpt lat="43.77482" lon="5.21089">
        <ele>367.36</ele>
        <time>2014-05-15T13:11:03Z</time>
      </trkpt>
      <trkpt lat="43.7748" lon="5.21091">
        <ele>365.92</ele>
        <time>2014-05-15T13:11:06Z</time>
      </trkpt>
      <trkpt lat="43.77475" lon="5.21092">
        <ele>365.92</ele>
        <time>2014-05-15T13:11:12Z</time>
      </trkpt>
      <trkpt lat="43.77462" lon="5.21103">
        <ele>362.55</ele>
        <time>2014-05-15T13:11:30Z</time>
      </trkpt>
      <trkpt lat="43.77447" lon="5.21111">
        <ele>359.67</ele>
        <time>2014-05-15T13:11:46Z</time>
      </trkpt>
      <trkpt lat="43.77437" lon="5.21119">
        <ele>358.23</ele>
        <time>2014-05-15T13:11:59Z</time>
      </trkpt>
      <trkpt lat="43.77423" lon="5.21133">
        <ele>357.27</ele>
        <time>2014-05-15T13:12:15Z</time>
      </trkpt>
      <trkpt lat="43.77404" lon="5.21146">
        <ele>355.83</ele>
        <time>2014-05-15T13:12:35Z</time>
      </trkpt>
      <trkpt lat="43.77391" lon="5.21158">
        <ele>353.9</ele>
        <time>2014-05-15T13:12:50Z</time>
      </trkpt>
      <trkpt lat="43.77383" lon="5.21167">
        <ele>351.98</ele>
        <time>2014-05-15T13:12:59Z</time>
      </trkpt>
      <trkpt lat="43.77373" lon="5.21175">
        <ele>351.5</ele>
        <time>2014-05-15T13:13:11Z</time>
      </trkpt>
      <trkpt lat="43.77358" lon="5.21197">
        <ele>351.5</ele>
        <time>2014-05-15T13:13:28Z</time>
      </trkpt>
      <trkpt lat="43.77345" lon="5.21206">
        <ele>349.58</ele>
        <time>2014-05-15T13:13:43Z</time>
      </trkpt>
      <trkpt lat="43.77342" lon="5.21206">
        <ele>349.1</ele>
        <time>2014-05-15T13:13:48Z</time>
      </trkpt>
      <trkpt lat="43.77338" lon="5.21206">
        <ele>348.13</ele>
        <time>2014-05-15T13:13:51Z</time>
      </trkpt>
      <trkpt lat="43.77321" lon="5.21207">
        <ele>350.06</ele>
        <time>2014-05-15T13:14:05Z</time>
      </trkpt>
      <trkpt lat="43.77303" lon="5.21208">
        <ele>348.62</ele>
        <time>2014-05-15T13:14:22Z</time>
      </trkpt>
      <trkpt lat="43.77289" lon="5.21209">
        <ele>346.69</ele>
        <time>2014-05-15T13:14:37Z</time>
      </trkpt>
      <trkpt lat="43.7728" lon="5.21211">
        <ele>344.29</ele>
        <time>2014-05-15T13:14:48Z</time>
      </trkpt>
      <trkpt lat="43.77269" lon="5.21209">
        <ele>341.89</ele>
        <time>2014-05-15T13:14:58Z</time>
      </trkpt>
      <trkpt lat="43.77258" lon="5.21213">
        <ele>339</ele>
        <time>2014-05-15T13:15:14Z</time>
      </trkpt>
      <trkpt lat="43.77249" lon="5.2122">
        <ele>336.6</ele>
        <time>2014-05-15T13:15:26Z</time>
      </trkpt>
      <trkpt lat="43.77236" lon="5.21229">
        <ele>334.68</ele>
        <time>2014-05-15T13:15:40Z</time>
      </trkpt>
      <trkpt lat="43.77226" lon="5.21238">
        <ele>331.31</ele>
        <time>2014-05-15T13:15:54Z</time>
      </trkpt>
      <trkpt lat="43.77215" lon="5.21251">
        <ele>329.87</ele>
        <time>2014-05-15T13:16:14Z</time>
      </trkpt>
      <trkpt lat="43.77208" lon="5.21265">
        <ele>328.43</ele>
        <time>2014-05-15T13:16:27Z</time>
      </trkpt>
      <trkpt lat="43.772" lon="5.21283">
        <ele>326.5</ele>
        <time>2014-05-15T13:16:43Z</time>
      </trkpt>
      <trkpt lat="43.77193" lon="5.213">
        <ele>323.14</ele>
        <time>2014-05-15T13:16:59Z</time>
      </trkpt>
      <trkpt lat="43.77183" lon="5.21317">
        <ele>320.26</ele>
        <time>2014-05-15T13:17:13Z</time>
      </trkpt>
      <trkpt lat="43.77181" lon="5.21322">
        <ele>319.78</ele>
        <time>2014-05-15T13:17:18Z</time>
      </trkpt>
      <trkpt lat="43.77169" lon="5.21342">
        <ele>316.41</ele>
        <time>2014-05-15T13:17:35Z</time>
      </trkpt>
      <trkpt lat="43.77166" lon="5.21338">
        <ele>316.41</ele>
        <time>2014-05-15T13:17:53Z</time>
      </trkpt>
      <trkpt lat="43.77168" lon="5.21343">
        <ele>314.97</ele>
        <time>2014-05-15T13:18:11Z</time>
      </trkpt>
      <trkpt lat="43.77163" lon="5.21344">
        <ele>313.53</ele>
        <time>2014-05-15T13:18:26Z</time>
      </trkpt>
      <trkpt lat="43.77162" lon="5.21345">
        <ele>315.45</ele>
        <time>2014-05-15T13:18:46Z</time>
      </trkpt>
      <trkpt lat="43.77163" lon="5.21346">
        <ele>315.93</ele>
        <time>2014-05-15T13:19:06Z</time>
      </trkpt>
      <trkpt lat="43.7716" lon="5.21346">
        <ele>315.93</ele>
        <time>2014-05-15T13:19:23Z</time>
      </trkpt>
      <trkpt lat="43.77164" lon="5.21335">
        <ele>315.93</ele>
        <time>2014-05-15T13:19:42Z</time>
      </trkpt>
      <trkpt lat="43.77166" lon="5.21333">
        <ele>315.45</ele>
        <time>2014-05-15T13:20:04Z</time>
      </trkpt>
      <trkpt lat="43.77165" lon="5.21333">
        <ele>315.45</ele>
        <time>2014-05-15T13:20:25Z</time>
      </trkpt>
      <trkpt lat="43.77165" lon="5.2134">
        <ele>315.93</ele>
        <time>2014-05-15T13:20:49Z</time>
      </trkpt>
      <trkpt lat="43.77166" lon="5.21337">
        <ele>315.93</ele>
        <time>2014-05-15T13:21:09Z</time>
      </trkpt>
      <trkpt lat="43.77167" lon="5.21335">
        <ele>315.45</ele>
        <time>2014-05-15T13:21:29Z</time>
      </trkpt>
      <trkpt lat="43.77167" lon="5.21335">
        <ele>315.93</ele>
        <time>2014-05-15T13:21:50Z</time>
      </trkpt>
      <trkpt lat="43.77166" lon="5.21335">
        <ele>315.93</ele>
        <time>2014-05-15T13:22:08Z</time>
      </trkpt>
      <trkpt lat="43.77167" lon="5.21333">
        <ele>315.93</ele>
        <time>2014-05-15T13:22:23Z</time>
      </trkpt>
      <trkpt lat="43.77166" lon="5.21334">
        <ele>316.41</ele>
        <time>2014-05-15T13:22:44Z</time>
      </trkpt>
      <trkpt lat="43.77166" lon="5.21334">
        <ele>315.93</ele>
        <time>2014-05-15T13:23:05Z</time>
      </trkpt>
      <trkpt lat="43.77167" lon="5.21335">
        <ele>315.45</ele>
        <time>2014-05-15T13:23:36Z</time>
      </trkpt>
      <trkpt lat="43.77167" lon="5.21335">
        <ele>314.97</ele>
        <time>2014-05-15T13:23:57Z</time>
      </trkpt>
      <trkpt lat="43.77166" lon="5.21334">
        <ele>315.45</ele>
        <time>2014-05-15T13:24:24Z</time>
      </trkpt>
      <trkpt lat="43.77166" lon="5.21334">
        <ele>315.45</ele>
        <time>2014-05-15T13:24:50Z</time>
      </trkpt>
      <trkpt lat="43.77165" lon="5.21333">
        <ele>315.93</ele>
        <time>2014-05-15T13:25:15Z</time>
      </trkpt>
      <trkpt lat="43.77165" lon="5.21333">
        <ele>315.45</ele>
        <time>2014-05-15T13:25:33Z</time>
      </trkpt>
      <trkpt lat="43.77165" lon="5.21333">
        <ele>314.97</ele>
        <time>2014-05-15T13:26:02Z</time>
      </trkpt>
      <trkpt lat="43.77164" lon="5.21332">
        <ele>314.97</ele>
        <time>2014-05-15T13:26:23Z</time>
      </trkpt>
      <trkpt lat="43.77163" lon="5.2133">
        <ele>313.53</ele>
        <time>2014-05-15T13:26:39Z</time>
      </trkpt>
      <trkpt lat="43.77163" lon="5.2133">
        <ele>314.49</ele>
        <time>2014-05-15T13:27:07Z</time>
      </trkpt>
      <trkpt lat="43.77163" lon="5.2133">
        <ele>314.49</ele>
        <time>2014-05-15T13:27:30Z</time>
      </trkpt>
      <trkpt lat="43.77164" lon="5.2133">
        <ele>315.93</ele>
        <time>2014-05-15T13:27:48Z</time>
      </trkpt>
      <trkpt lat="43.77166" lon="5.2133">
        <ele>316.41</ele>
        <time>2014-05-15T13:27:50Z</time>
      </trkpt>
      <trkpt lat="43.7717" lon="5.21331">
        <ele>315.45</ele>
        <time>2014-05-15T13:27:53Z</time>
      </trkpt>
      <trkpt lat="43.7717" lon="5.21336">
        <ele>315.45</ele>
        <time>2014-05-15T13:28:12Z</time>
      </trkpt>
      <trkpt lat="43.77171" lon="5.21333">
        <ele>314.49</ele>
        <time>2014-05-15T13:28:34Z</time>
      </trkpt>
      <trkpt lat="43.77174" lon="5.21326">
        <ele>314.97</ele>
        <time>2014-05-15T13:28:43Z</time>
      </trkpt>
      <trkpt lat="43.77166" lon="5.21334">
        <ele>315.45</ele>
        <time>2014-05-15T13:29:05Z</time>
      </trkpt>
      <trkpt lat="43.77165" lon="5.21332">
        <ele>314.01</ele>
        <time>2014-05-15T13:29:25Z</time>
      </trkpt>
      <trkpt lat="43.77163" lon="5.21333">
        <ele>313.53</ele>
        <time>2014-05-15T13:29:44Z</time>
      </trkpt>
      <trkpt lat="43.77163" lon="5.2133">
        <ele>313.53</ele>
        <time>2014-05-15T13:30:02Z</time>
      </trkpt>
      <trkpt lat="43.77152" lon="5.21327">
        <ele>311.6</ele>
        <time>2014-05-15T13:30:20Z</time>
      </trkpt>
      <trkpt lat="43.77149" lon="5.21326">
        <ele>310.16</ele>
        <time>2014-05-15T13:30:40Z</time>
      </trkpt>
      <trkpt lat="43.7714" lon="5.21323">
        <ele>306.8</ele>
        <time>2014-05-15T13:30:50Z</time>
      </trkpt>
      <trkpt lat="43.77121" lon="5.21318">
        <ele>306.8</ele>
        <time>2014-05-15T13:31:09Z</time>
      </trkpt>
      <trkpt lat="43.77103" lon="5.21317">
        <ele>304.88</ele>
        <time>2014-05-15T13:31:21Z</time>
      </trkpt>
      <trkpt lat="43.77095" lon="5.21316">
        <ele>305.36</ele>
        <time>2014-05-15T13:31:26Z</time>
      </trkpt>
      <trkpt lat="43.77074" lon="5.21312">
        <ele>304.88</ele>
        <time>2014-05-15T13:31:42Z</time>
      </trkpt>
      <trkpt lat="43.77057" lon="5.21307">
        <ele>305.84</ele>
        <time>2014-05-15T13:31:57Z</time>
      </trkpt>
      <trkpt lat="43.7704" lon="5.21302">
        <ele>307.76</ele>
        <time>2014-05-15T13:32:13Z</time>
      </trkpt>
      <trkpt lat="43.77027" lon="5.21301">
        <ele>309.2</ele>
        <time>2014-05-15T13:32:27Z</time>
      </trkpt>
      <trkpt lat="43.77017" lon="5.21293">
        <ele>311.12</ele>
        <time>2014-05-15T13:32:42Z</time>
      </trkpt>
      <trkpt lat="43.77007" lon="5.21293">
        <ele>310.64</ele>
        <time>2014-05-15T13:32:54Z</time>
      </trkpt>
      <trkpt lat="43.77005" lon="5.21291">
        <ele>311.12</ele>
        <time>2014-05-15T13:32:56Z</time>
      </trkpt>
      <trkpt lat="43.76992" lon="5.21274">
        <ele>311.12</ele>
        <time>2014-05-15T13:33:15Z</time>
      </trkpt>
      <trkpt lat="43.76979" lon="5.21267">
        <ele>313.05</ele>
        <time>2014-05-15T13:33:28Z</time>
      </trkpt>
      <trkpt lat="43.76967" lon="5.21258">
        <ele>312.57</ele>
        <time>2014-05-15T13:33:42Z</time>
      </trkpt>
      <trkpt lat="43.76953" lon="5.21245">
        <ele>311.6</ele>
        <time>2014-05-15T13:33:58Z</time>
      </trkpt>
      <trkpt lat="43.76952" lon="5.21244">
        <ele>311.6</ele>
        <time>2014-05-15T13:33:59Z</time>
      </trkpt>
      <trkpt lat="43.76935" lon="5.21238">
        <ele>312.57</ele>
        <time>2014-05-15T13:34:15Z</time>
      </trkpt>
      <trkpt lat="43.76922" lon="5.21232">
        <ele>313.53</ele>
        <time>2014-05-15T13:34:29Z</time>
      </trkpt>
      <trkpt lat="43.76911" lon="5.21224">
        <ele>315.45</ele>
        <time>2014-05-15T13:34:41Z</time>
      </trkpt>
      <trkpt lat="43.769" lon="5.2121">
        <ele>314.97</ele>
        <time>2014-05-15T13:34:57Z</time>
      </trkpt>
      <trkpt lat="43.76889" lon="5.21191">
        <ele>315.93</ele>
        <time>2014-05-15T13:35:13Z</time>
      </trkpt>
      <trkpt lat="43.76876" lon="5.21186">
        <ele>314.97</ele>
        <time>2014-05-15T13:35:29Z</time>
      </trkpt>
      <trkpt lat="43.76865" lon="5.21191">
        <ele>316.89</ele>
        <time>2014-05-15T13:35:43Z</time>
      </trkpt>
      <trkpt lat="43.76853" lon="5.21201">
        <ele>318.33</ele>
        <time>2014-05-15T13:35:58Z</time>
      </trkpt>
      <trkpt lat="43.76844" lon="5.2121">
        <ele>318.81</ele>
        <time>2014-05-15T13:36:12Z</time>
      </trkpt>
      <trkpt lat="43.76832" lon="5.21219">
        <ele>320.74</ele>
        <time>2014-05-15T13:36:26Z</time>
      </trkpt>
      <trkpt lat="43.76827" lon="5.21222">
        <ele>321.22</ele>
        <time>2014-05-15T13:36:32Z</time>
      </trkpt>
      <trkpt lat="43.76816" lon="5.2123">
        <ele>323.14</ele>
        <time>2014-05-15T13:36:47Z</time>
      </trkpt>
      <trkpt lat="43.76803" lon="5.21241">
        <ele>325.06</ele>
        <time>2014-05-15T13:37:01Z</time>
      </trkpt>
      <trkpt lat="43.76796" lon="5.21248">
        <ele>325.54</ele>
        <time>2014-05-15T13:37:10Z</time>
      </trkpt>
      <trkpt lat="43.76783" lon="5.21255">
        <ele>327.47</ele>
        <time>2014-05-15T13:37:24Z</time>
      </trkpt>
      <trkpt lat="43.76772" lon="5.21256">
        <ele>328.43</ele>
        <time>2014-05-15T13:37:37Z</time>
      </trkpt>
      <trkpt lat="43.76762" lon="5.21262">
        <ele>328.91</ele>
        <time>2014-05-15T13:37:46Z</time>
      </trkpt>
      <trkpt lat="43.76746" lon="5.21264">
        <ele>329.39</ele>
        <time>2014-05-15T13:38:01Z</time>
      </trkpt>
      <trkpt lat="43.7673" lon="5.21263">
        <ele>330.83</ele>
        <time>2014-05-15T13:38:16Z</time>
      </trkpt>
      <trkpt lat="43.76721" lon="5.21258">
        <ele>332.27</ele>
        <time>2014-05-15T13:38:25Z</time>
      </trkpt>
      <trkpt lat="43.76717" lon="5.21255">
        <ele>331.79</ele>
        <time>2014-05-15T13:38:39Z</time>
      </trkpt>
      <trkpt lat="43.7672" lon="5.21254">
        <ele>334.68</ele>
        <time>2014-05-15T13:38:56Z</time>
      </trkpt>
      <trkpt lat="43.76719" lon="5.21253">
        <ele>334.68</ele>
        <time>2014-05-15T13:38:57Z</time>
      </trkpt>
      <trkpt lat="43.76716" lon="5.21251">
        <ele>332.75</ele>
        <time>2014-05-15T13:39:01Z</time>
      </trkpt>
      <trkpt lat="43.76712" lon="5.21248">
        <ele>332.75</ele>
        <time>2014-05-15T13:39:07Z</time>
      </trkpt>
      <trkpt lat="43.76695" lon="5.21235">
        <ele>333.71</ele>
        <time>2014-05-15T13:39:26Z</time>
      </trkpt>
      <trkpt lat="43.76682" lon="5.21232">
        <ele>332.27</ele>
        <time>2014-05-15T13:39:40Z</time>
      </trkpt>
      <trkpt lat="43.76675" lon="5.21223">
        <ele>334.68</ele>
        <time>2014-05-15T13:39:54Z</time>
      </trkpt>
      <trkpt lat="43.7666" lon="5.21213">
        <ele>334.68</ele>
        <time>2014-05-15T13:40:10Z</time>
      </trkpt>
      <trkpt lat="43.76651" lon="5.21195">
        <ele>334.68</ele>
        <time>2014-05-15T13:40:25Z</time>
      </trkpt>
      <trkpt lat="43.7665" lon="5.21192">
        <ele>335.16</ele>
        <time>2014-05-15T13:40:27Z</time>
      </trkpt>
      <trkpt lat="43.76649" lon="5.2119">
        <ele>336.12</ele>
        <time>2014-05-15T13:40:29Z</time>
      </trkpt>
      <trkpt lat="43.76644" lon="5.2117">
        <ele>336.12</ele>
        <time>2014-05-15T13:40:46Z</time>
      </trkpt>
      <trkpt lat="43.76644" lon="5.21162">
        <ele>337.08</ele>
        <time>2014-05-15T13:40:52Z</time>
      </trkpt>
      <trkpt lat="43.76644" lon="5.21151">
        <ele>336.6</ele>
        <time>2014-05-15T13:41:00Z</time>
      </trkpt>
      <trkpt lat="43.76641" lon="5.21125">
        <ele>337.56</ele>
        <time>2014-05-15T13:41:16Z</time>
      </trkpt>
      <trkpt lat="43.7664" lon="5.21101">
        <ele>338.04</ele>
        <time>2014-05-15T13:41:32Z</time>
      </trkpt>
      <trkpt lat="43.76635" lon="5.21078">
        <ele>339</ele>
        <time>2014-05-15T13:41:49Z</time>
      </trkpt>
      <trkpt lat="43.7663" lon="5.21061">
        <ele>339.48</ele>
        <time>2014-05-15T13:42:03Z</time>
      </trkpt>
      <trkpt lat="43.76625" lon="5.21051">
        <ele>338.04</ele>
        <time>2014-05-15T13:42:11Z</time>
      </trkpt>
      <trkpt lat="43.76618" lon="5.21031">
        <ele>337.56</ele>
        <time>2014-05-15T13:42:27Z</time>
      </trkpt>
      <trkpt lat="43.76607" lon="5.21007">
        <ele>336.6</ele>
        <time>2014-05-15T13:42:46Z</time>
      </trkpt>
      <trkpt lat="43.76598" lon="5.20982">
        <ele>335.64</ele>
        <time>2014-05-15T13:43:04Z</time>
      </trkpt>
      <trkpt lat="43.76596" lon="5.20973">
        <ele>334.2</ele>
        <time>2014-05-15T13:43:11Z</time>
      </trkpt>
      <trkpt lat="43.76594" lon="5.20969">
        <ele>334.2</ele>
        <time>2014-05-15T13:43:15Z</time>
      </trkpt>
      <trkpt lat="43.76584" lon="5.20956">
        <ele>332.75</ele>
        <time>2014-05-15T13:43:31Z</time>
      </trkpt>
      <trkpt lat="43.76577" lon="5.20958">
        <ele>332.27</ele>
        <time>2014-05-15T13:43:48Z</time>
      </trkpt>
      <trkpt lat="43.76571" lon="5.20965">
        <ele>332.27</ele>
        <time>2014-05-15T13:44:09Z</time>
      </trkpt>
      <trkpt lat="43.76558" lon="5.20979">
        <ele>331.79</ele>
        <time>2014-05-15T13:44:27Z</time>
      </trkpt>
      <trkpt lat="43.76555" lon="5.20981">
        <ele>332.27</ele>
        <time>2014-05-15T13:44:30Z</time>
      </trkpt>
      <trkpt lat="43.76543" lon="5.2099">
        <ele>331.31</ele>
        <time>2014-05-15T13:44:46Z</time>
      </trkpt>
      <trkpt lat="43.76522" lon="5.20992">
        <ele>329.39</ele>
        <time>2014-05-15T13:45:06Z</time>
      </trkpt>
      <trkpt lat="43.7652" lon="5.20991">
        <ele>329.39</ele>
        <time>2014-05-15T13:45:08Z</time>
      </trkpt>
      <trkpt lat="43.765" lon="5.20978">
        <ele>328.91</ele>
        <time>2014-05-15T13:45:29Z</time>
      </trkpt>
      <trkpt lat="43.76484" lon="5.20961">
        <ele>328.43</ele>
        <time>2014-05-15T13:45:48Z</time>
      </trkpt>
      <trkpt lat="43.76471" lon="5.2094">
        <ele>326.99</ele>
        <time>2014-05-15T13:46:06Z</time>
      </trkpt>
      <trkpt lat="43.7646" lon="5.20922">
        <ele>326.99</ele>
        <time>2014-05-15T13:46:22Z</time>
      </trkpt>
      <trkpt lat="43.76448" lon="5.20902">
        <ele>326.02</ele>
        <time>2014-05-15T13:46:40Z</time>
      </trkpt>
      <trkpt lat="43.76447" lon="5.209">
        <ele>325.06</ele>
        <time>2014-05-15T13:46:42Z</time>
      </trkpt>
      <trkpt lat="43.76445" lon="5.20895">
        <ele>326.5</ele>
        <time>2014-05-15T13:46:46Z</time>
      </trkpt>
      <trkpt lat="43.76435" lon="5.20874">
        <ele>326.5</ele>
        <time>2014-05-15T13:47:02Z</time>
      </trkpt>
      <trkpt lat="43.76424" lon="5.2085">
        <ele>326.02</ele>
        <time>2014-05-15T13:47:20Z</time>
      </trkpt>
      <trkpt lat="43.76413" lon="5.20837">
        <ele>325.54</ele>
        <time>2014-05-15T13:47:37Z</time>
      </trkpt>
      <trkpt lat="43.76398" lon="5.2082">
        <ele>324.58</ele>
        <time>2014-05-15T13:47:56Z</time>
      </trkpt>
      <trkpt lat="43.7639" lon="5.20811">
        <ele>325.54</ele>
        <time>2014-05-15T13:48:06Z</time>
      </trkpt>
      <trkpt lat="43.76375" lon="5.20798">
        <ele>323.14</ele>
        <time>2014-05-15T13:48:25Z</time>
      </trkpt>
      <trkpt lat="43.76365" lon="5.20783">
        <ele>323.14</ele>
        <time>2014-05-15T13:48:41Z</time>
      </trkpt>
      <trkpt lat="43.76362" lon="5.20774">
        <ele>322.66</ele>
        <time>2014-05-15T13:48:47Z</time>
      </trkpt>
      <trkpt lat="43.76356" lon="5.20749">
        <ele>322.18</ele>
        <time>2014-05-15T13:49:05Z</time>
      </trkpt>
      <trkpt lat="43.7635" lon="5.20728">
        <ele>318.81</ele>
        <time>2014-05-15T13:49:21Z</time>
      </trkpt>
      <trkpt lat="43.76351" lon="5.20707">
        <ele>315.45</ele>
        <time>2014-05-15T13:49:39Z</time>
      </trkpt>
      <trkpt lat="43.76351" lon="5.20701">
        <ele>315.45</ele>
        <time>2014-05-15T13:49:45Z</time>
      </trkpt>
      <trkpt lat="43.7635" lon="5.20698">
        <ele>317.85</ele>
        <time>2014-05-15T13:50:08Z</time>
      </trkpt>
      <trkpt lat="43.7635" lon="5.20696">
        <ele>315.93</ele>
        <time>2014-05-15T13:50:13Z</time>
      </trkpt>
      <trkpt lat="43.76351" lon="5.2069">
        <ele>315.93</ele>
        <time>2014-05-15T13:50:18Z</time>
      </trkpt>
      <trkpt lat="43.76351" lon="5.20681">
        <ele>314.97</ele>
        <time>2014-05-15T13:50:24Z</time>
      </trkpt>
      <trkpt lat="43.76352" lon="5.20672">
        <ele>313.05</ele>
        <time>2014-05-15T13:50:30Z</time>
      </trkpt>
      <trkpt lat="43.76352" lon="5.20651">
        <ele>312.09</ele>
        <time>2014-05-15T13:50:47Z</time>
      </trkpt>
      <trkpt lat="43.76351" lon="5.2065">
        <ele>312.57</ele>
        <time>2014-05-15T13:50:48Z</time>
      </trkpt>
      <trkpt lat="43.7635" lon="5.20647">
        <ele>311.6</ele>
        <time>2014-05-15T13:50:50Z</time>
      </trkpt>
      <trkpt lat="43.76341" lon="5.20629">
        <ele>307.28</ele>
        <time>2014-05-15T13:51:07Z</time>
      </trkpt>
      <trkpt lat="43.7634" lon="5.20628">
        <ele>307.76</ele>
        <time>2014-05-15T13:51:08Z</time>
      </trkpt>
      <trkpt lat="43.7634" lon="5.20626">
        <ele>307.76</ele>
        <time>2014-05-15T13:51:10Z</time>
      </trkpt>
      <trkpt lat="43.7633" lon="5.20615">
        <ele>308.24</ele>
        <time>2014-05-15T13:51:25Z</time>
      </trkpt>
      <trkpt lat="43.76329" lon="5.20612">
        <ele>306.8</ele>
        <time>2014-05-15T13:51:39Z</time>
      </trkpt>
      <trkpt lat="43.76327" lon="5.20606">
        <ele>306.32</ele>
        <time>2014-05-15T13:51:43Z</time>
      </trkpt>
      <trkpt lat="43.76324" lon="5.20598">
        <ele>303.43</ele>
        <time>2014-05-15T13:51:49Z</time>
      </trkpt>
      <trkpt lat="43.7632" lon="5.20589">
        <ele>303.43</ele>
        <time>2014-05-15T13:51:55Z</time>
      </trkpt>
      <trkpt lat="43.76319" lon="5.20586">
        <ele>303.43</ele>
        <time>2014-05-15T13:51:58Z</time>
      </trkpt>
      <trkpt lat="43.76309" lon="5.20561">
        <ele>302.47</ele>
        <time>2014-05-15T13:52:16Z</time>
      </trkpt>
      <trkpt lat="43.76306" lon="5.20552">
        <ele>302.95</ele>
        <time>2014-05-15T13:52:23Z</time>
      </trkpt>
      <trkpt lat="43.76306" lon="5.20549">
        <ele>302.47</ele>
        <time>2014-05-15T13:52:25Z</time>
      </trkpt>
      <trkpt lat="43.76302" lon="5.20543">
        <ele>302.95</ele>
        <time>2014-05-15T13:52:31Z</time>
      </trkpt>
      <trkpt lat="43.763" lon="5.20541">
        <ele>302.47</ele>
        <time>2014-05-15T13:52:33Z</time>
      </trkpt>
      <trkpt lat="43.76289" lon="5.20529">
        <ele>302.95</ele>
        <time>2014-05-15T13:52:47Z</time>
      </trkpt>
      <trkpt lat="43.76279" lon="5.20518">
        <ele>302.95</ele>
        <time>2014-05-15T13:53:00Z</time>
      </trkpt>
      <trkpt lat="43.76269" lon="5.20503">
        <ele>304.39</ele>
        <time>2014-05-15T13:53:15Z</time>
      </trkpt>
      <trkpt lat="43.76262" lon="5.20488">
        <ele>304.39</ele>
        <time>2014-05-15T13:53:29Z</time>
      </trkpt>
      <trkpt lat="43.7626" lon="5.20478">
        <ele>301.99</ele>
        <time>2014-05-15T13:53:36Z</time>
      </trkpt>
      <trkpt lat="43.7626" lon="5.20474">
        <ele>302.95</ele>
        <time>2014-05-15T13:53:39Z</time>
      </trkpt>
      <trkpt lat="43.76261" lon="5.20447">
        <ele>301.03</ele>
        <time>2014-05-15T13:53:56Z</time>
      </trkpt>
      <trkpt lat="43.76265" lon="5.20432">
        <ele>297.67</ele>
        <time>2014-05-15T13:54:07Z</time>
      </trkpt>
      <trkpt lat="43.76271" lon="5.20412">
        <ele>296.7</ele>
        <time>2014-05-15T13:54:22Z</time>
      </trkpt>
      <trkpt lat="43.76276" lon="5.20393">
        <ele>294.3</ele>
        <time>2014-05-15T13:54:36Z</time>
      </trkpt>
      <trkpt lat="43.7628" lon="5.20373">
        <ele>291.9</ele>
        <time>2014-05-15T13:54:53Z</time>
      </trkpt>
      <trkpt lat="43.7628" lon="5.20371">
        <ele>291.42</ele>
        <time>2014-05-15T13:54:54Z</time>
      </trkpt>
      <trkpt lat="43.76278" lon="5.2035">
        <ele>290.46</ele>
        <time>2014-05-15T13:55:09Z</time>
      </trkpt>
      <trkpt lat="43.76273" lon="5.20334">
        <ele>287.57</ele>
        <time>2014-05-15T13:55:22Z</time>
      </trkpt>
      <trkpt lat="43.76267" lon="5.20311">
        <ele>286.13</ele>
        <time>2014-05-15T13:55:39Z</time>
      </trkpt>
      <trkpt lat="43.76263" lon="5.20289">
        <ele>284.69</ele>
        <time>2014-05-15T13:55:56Z</time>
      </trkpt>
      <trkpt lat="43.76264" lon="5.20267">
        <ele>282.77</ele>
        <time>2014-05-15T13:56:13Z</time>
      </trkpt>
      <trkpt lat="43.76265" lon="5.20253">
        <ele>279.4</ele>
        <time>2014-05-15T13:56:24Z</time>
      </trkpt>
      <trkpt lat="43.76262" lon="5.20235">
        <ele>278.44</ele>
        <time>2014-05-15T13:56:39Z</time>
      </trkpt>
      <trkpt lat="43.76247" lon="5.20224">
        <ele>276.52</ele>
        <time>2014-05-15T13:56:57Z</time>
      </trkpt>
      <trkpt lat="43.76235" lon="5.20222">
        <ele>274.59</ele>
        <time>2014-05-15T13:57:07Z</time>
      </trkpt>
      <trkpt lat="43.76215" lon="5.20229">
        <ele>273.15</ele>
        <time>2014-05-15T13:57:28Z</time>
      </trkpt>
      <trkpt lat="43.76198" lon="5.20239">
        <ele>270.27</ele>
        <time>2014-05-15T13:57:47Z</time>
      </trkpt>
      <trkpt lat="43.76191" lon="5.20248">
        <ele>269.31</ele>
        <time>2014-05-15T13:58:06Z</time>
      </trkpt>
      <trkpt lat="43.76189" lon="5.2025">
        <ele>268.35</ele>
        <time>2014-05-15T13:58:18Z</time>
      </trkpt>
      <trkpt lat="43.76177" lon="5.20273">
        <ele>264.98</ele>
        <time>2014-05-15T13:58:40Z</time>
      </trkpt>
      <trkpt lat="43.76171" lon="5.20284">
        <ele>262.58</ele>
        <time>2014-05-15T13:58:49Z</time>
      </trkpt>
      <trkpt lat="43.76155" lon="5.20303">
        <ele>263.06</ele>
        <time>2014-05-15T13:59:09Z</time>
      </trkpt>
      <trkpt lat="43.76152" lon="5.20304">
        <ele>263.54</ele>
        <time>2014-05-15T13:59:12Z</time>
      </trkpt>
      <trkpt lat="43.76131" lon="5.20317">
        <ele>262.58</ele>
        <time>2014-05-15T13:59:32Z</time>
      </trkpt>
      <trkpt lat="43.76129" lon="5.20316">
        <ele>263.06</ele>
        <time>2014-05-15T13:59:34Z</time>
      </trkpt>
      <trkpt lat="43.76118" lon="5.20308">
        <ele>261.62</ele>
        <time>2014-05-15T13:59:49Z</time>
      </trkpt>
      <trkpt lat="43.76105" lon="5.20298">
        <ele>260.65</ele>
        <time>2014-05-15T14:00:04Z</time>
      </trkpt>
      <trkpt lat="43.76095" lon="5.20289">
        <ele>257.29</ele>
        <time>2014-05-15T14:00:17Z</time>
      </trkpt>
      <trkpt lat="43.76094" lon="5.20288">
        <ele>256.81</ele>
        <time>2014-05-15T14:00:18Z</time>
      </trkpt>
      <trkpt lat="43.76089" lon="5.20273">
        <ele>255.37</ele>
        <time>2014-05-15T14:00:34Z</time>
      </trkpt>
      <trkpt lat="43.76089" lon="5.20272">
        <ele>254.89</ele>
        <time>2014-05-15T14:00:35Z</time>
      </trkpt>
      <trkpt lat="43.76083" lon="5.20256">
        <ele>252.48</ele>
        <time>2014-05-15T14:00:49Z</time>
      </trkpt>
      <trkpt lat="43.76082" lon="5.20252">
        <ele>251.04</ele>
        <time>2014-05-15T14:00:52Z</time>
      </trkpt>
      <trkpt lat="43.76081" lon="5.20249">
        <ele>251.04</ele>
        <time>2014-05-15T14:00:54Z</time>
      </trkpt>
      <trkpt lat="43.76074" lon="5.20232">
        <ele>248.16</ele>
        <time>2014-05-15T14:01:08Z</time>
      </trkpt>
      <trkpt lat="43.76073" lon="5.20227">
        <ele>246.72</ele>
        <time>2014-05-15T14:01:12Z</time>
      </trkpt>
      <trkpt lat="43.76066" lon="5.20202">
        <ele>244.79</ele>
        <time>2014-05-15T14:01:30Z</time>
      </trkpt>
      <trkpt lat="43.76063" lon="5.2019">
        <ele>244.79</ele>
        <time>2014-05-15T14:01:41Z</time>
      </trkpt>
      <trkpt lat="43.76062" lon="5.20187">
        <ele>243.35</ele>
        <time>2014-05-15T14:01:51Z</time>
      </trkpt>
      <trkpt lat="43.76062" lon="5.20187">
        <ele>245.27</ele>
        <time>2014-05-15T14:01:57Z</time>
      </trkpt>
      <trkpt lat="43.76061" lon="5.20182">
        <ele>244.31</ele>
        <time>2014-05-15T14:02:00Z</time>
      </trkpt>
      <trkpt lat="43.76056" lon="5.20154">
        <ele>243.35</ele>
        <time>2014-05-15T14:02:16Z</time>
      </trkpt>
      <trkpt lat="43.76054" lon="5.20148">
        <ele>242.87</ele>
        <time>2014-05-15T14:02:21Z</time>
      </trkpt>
      <trkpt lat="43.76038" lon="5.20135">
        <ele>241.43</ele>
        <time>2014-05-15T14:02:35Z</time>
      </trkpt>
      <trkpt lat="43.76028" lon="5.20131">
        <ele>242.39</ele>
        <time>2014-05-15T14:02:47Z</time>
      </trkpt>
      <trkpt lat="43.76022" lon="5.20125">
        <ele>239.02</ele>
        <time>2014-05-15T14:02:56Z</time>
      </trkpt>
      <trkpt lat="43.7602" lon="5.20123">
        <ele>238.54</ele>
        <time>2014-05-15T14:03:14Z</time>
      </trkpt>
      <trkpt lat="43.76019" lon="5.20117">
        <ele>238.54</ele>
        <time>2014-05-15T14:03:39Z</time>
      </trkpt>
      <trkpt lat="43.7602" lon="5.20116">
        <ele>239.02</ele>
        <time>2014-05-15T14:04:06Z</time>
      </trkpt>
      <trkpt lat="43.76021" lon="5.20116">
        <ele>239.02</ele>
        <time>2014-05-15T14:04:26Z</time>
      </trkpt>
      <trkpt lat="43.7602" lon="5.20116">
        <ele>239.02</ele>
        <time>2014-05-15T14:04:51Z</time>
      </trkpt>
      <trkpt lat="43.76019" lon="5.2011">
        <ele>238.06</ele>
        <time>2014-05-15T14:05:08Z</time>
      </trkpt>
      <trkpt lat="43.76019" lon="5.20107">
        <ele>237.58</ele>
        <time>2014-05-15T14:05:10Z</time>
      </trkpt>
      <trkpt lat="43.76018" lon="5.20102">
        <ele>237.1</ele>
        <time>2014-05-15T14:05:14Z</time>
      </trkpt>
      <trkpt lat="43.76018" lon="5.20099">
        <ele>236.62</ele>
        <time>2014-05-15T14:05:16Z</time>
      </trkpt>
      <trkpt lat="43.76008" lon="5.20076">
        <ele>235.66</ele>
        <time>2014-05-15T14:05:32Z</time>
      </trkpt>
      <trkpt lat="43.75996" lon="5.20065">
        <ele>236.62</ele>
        <time>2014-05-15T14:05:46Z</time>
      </trkpt>
      <trkpt lat="43.75982" lon="5.2006">
        <ele>237.58</ele>
        <time>2014-05-15T14:05:59Z</time>
      </trkpt>
      <trkpt lat="43.75966" lon="5.20064">
        <ele>236.62</ele>
        <time>2014-05-15T14:06:14Z</time>
      </trkpt>
      <trkpt lat="43.75949" lon="5.20072">
        <ele>235.18</ele>
        <time>2014-05-15T14:06:31Z</time>
      </trkpt>
      <trkpt lat="43.75937" lon="5.20069">
        <ele>236.14</ele>
        <time>2014-05-15T14:06:44Z</time>
      </trkpt>
      <trkpt lat="43.75934" lon="5.20065">
        <ele>236.62</ele>
        <time>2014-05-15T14:06:49Z</time>
      </trkpt>
      <trkpt lat="43.75932" lon="5.20042">
        <ele>236.62</ele>
        <time>2014-05-15T14:07:05Z</time>
      </trkpt>
      <trkpt lat="43.75928" lon="5.20022">
        <ele>236.14</ele>
        <time>2014-05-15T14:07:20Z</time>
      </trkpt>
      <trkpt lat="43.75921" lon="5.20003">
        <ele>236.14</ele>
        <time>2014-05-15T14:07:35Z</time>
      </trkpt>
      <trkpt lat="43.75914" lon="5.19994">
        <ele>233.74</ele>
        <time>2014-05-15T14:07:44Z</time>
      </trkpt>
      <trkpt lat="43.75905" lon="5.19987">
        <ele>232.78</ele>
        <time>2014-05-15T14:07:52Z</time>
      </trkpt>
      <trkpt lat="43.75886" lon="5.19983">
        <ele>229.89</ele>
        <time>2014-05-15T14:08:10Z</time>
      </trkpt>
      <trkpt lat="43.7587" lon="5.19971">
        <ele>227.97</ele>
        <time>2014-05-15T14:08:28Z</time>
      </trkpt>
      <trkpt lat="43.75862" lon="5.19951">
        <ele>228.93</ele>
        <time>2014-05-15T14:08:47Z</time>
      </trkpt>
      <trkpt lat="43.75857" lon="5.19924">
        <ele>231.33</ele>
        <time>2014-05-15T14:09:04Z</time>
      </trkpt>
      <trkpt lat="43.75852" lon="5.19907">
        <ele>233.74</ele>
        <time>2014-05-15T14:09:19Z</time>
      </trkpt>
      <trkpt lat="43.75853" lon="5.1989">
        <ele>234.7</ele>
        <time>2014-05-15T14:09:37Z</time>
      </trkpt>
      <trkpt lat="43.75858" lon="5.19873">
        <ele>236.62</ele>
        <time>2014-05-15T14:09:54Z</time>
      </trkpt>
      <trkpt lat="43.75857" lon="5.19884">
        <ele>238.06</ele>
        <time>2014-05-15T14:10:13Z</time>
      </trkpt>
      <trkpt lat="43.75861" lon="5.19884">
        <ele>239.02</ele>
        <time>2014-05-15T14:10:35Z</time>
      </trkpt>
      <trkpt lat="43.75865" lon="5.19881">
        <ele>239.99</ele>
        <time>2014-05-15T14:10:49Z</time>
      </trkpt>
      <trkpt lat="43.75867" lon="5.19876">
        <ele>242.39</ele>
        <time>2014-05-15T14:11:09Z</time>
      </trkpt>
      <trkpt lat="43.75869" lon="5.19874">
        <ele>245.27</ele>
        <time>2014-05-15T14:11:23Z</time>
      </trkpt>
      <trkpt lat="43.75886" lon="5.19883">
        <ele>248.16</ele>
        <time>2014-05-15T14:11:40Z</time>
      </trkpt>
      <trkpt lat="43.75883" lon="5.19887">
        <ele>248.64</ele>
        <time>2014-05-15T14:11:57Z</time>
      </trkpt>
      <trkpt lat="43.75883" lon="5.19888">
        <ele>249.12</ele>
        <time>2014-05-15T14:12:13Z</time>
      </trkpt>
      <trkpt lat="43.75893" lon="5.19883">
        <ele>252.48</ele>
        <time>2014-05-15T14:12:28Z</time>
      </trkpt>
      <trkpt lat="43.759" lon="5.19878">
        <ele>252.96</ele>
        <time>2014-05-15T14:12:41Z</time>
      </trkpt>
      <trkpt lat="43.75901" lon="5.19878">
        <ele>252.96</ele>
        <time>2014-05-15T14:12:42Z</time>
      </trkpt>
      <trkpt lat="43.75906" lon="5.19866">
        <ele>256.81</ele>
        <time>2014-05-15T14:12:50Z</time>
      </trkpt>
      <trkpt lat="43.75915" lon="5.19866">
        <ele>257.29</ele>
        <time>2014-05-15T14:13:05Z</time>
      </trkpt>
      <trkpt lat="43.75918" lon="5.19872">
        <ele>257.29</ele>
        <time>2014-05-15T14:13:18Z</time>
      </trkpt>
      <trkpt lat="43.7592" lon="5.1988">
        <ele>255.85</ele>
        <time>2014-05-15T14:13:35Z</time>
      </trkpt>
      <trkpt lat="43.75919" lon="5.19891">
        <ele>256.33</ele>
        <time>2014-05-15T14:13:54Z</time>
      </trkpt>
      <trkpt lat="43.75917" lon="5.19893">
        <ele>256.81</ele>
        <time>2014-05-15T14:13:57Z</time>
      </trkpt>
      <trkpt lat="43.7591" lon="5.19894">
        <ele>258.25</ele>
        <time>2014-05-15T14:14:12Z</time>
      </trkpt>
      <trkpt lat="43.75905" lon="5.19892">
        <ele>257.77</ele>
        <time>2014-05-15T14:14:23Z</time>
      </trkpt>
      <trkpt lat="43.75905" lon="5.19892">
        <ele>253.93</ele>
        <time>2014-05-15T14:14:28Z</time>
      </trkpt>
      <trkpt lat="43.75905" lon="5.19892">
        <ele>254.89</ele>
        <time>2014-05-15T14:14:29Z</time>
      </trkpt>
      <trkpt lat="43.75907" lon="5.1989">
        <ele>258.25</ele>
        <time>2014-05-15T14:14:36Z</time>
      </trkpt>
      <trkpt lat="43.75908" lon="5.19888">
        <ele>257.77</ele>
        <time>2014-05-15T14:14:56Z</time>
      </trkpt>
      <trkpt lat="43.75908" lon="5.19885">
        <ele>259.21</ele>
        <time>2014-05-15T14:15:04Z</time>
      </trkpt>
      <trkpt lat="43.7591" lon="5.19882">
        <ele>259.69</ele>
        <time>2014-05-15T14:15:19Z</time>
      </trkpt>
      <trkpt lat="43.75911" lon="5.19882">
        <ele>258.73</ele>
        <time>2014-05-15T14:15:31Z</time>
      </trkpt>
      <trkpt lat="43.75908" lon="5.19887">
        <ele>258.73</ele>
        <time>2014-05-15T14:15:35Z</time>
      </trkpt>
      <trkpt lat="43.75899" lon="5.19893">
        <ele>258.25</ele>
        <time>2014-05-15T14:15:40Z</time>
      </trkpt>
      <trkpt lat="43.75894" lon="5.19896">
        <ele>259.21</ele>
        <time>2014-05-15T14:15:52Z</time>
      </trkpt>
      <trkpt lat="43.75894" lon="5.19896">
        <ele>257.29</ele>
        <time>2014-05-15T14:16:16Z</time>
      </trkpt>
      <trkpt lat="43.75895" lon="5.19896">
        <ele>259.21</ele>
        <time>2014-05-15T14:16:19Z</time>
      </trkpt>
      <trkpt lat="43.75894" lon="5.1989">
        <ele>258.25</ele>
        <time>2014-05-15T14:16:29Z</time>
      </trkpt>
      <trkpt lat="43.75894" lon="5.1989">
        <ele>260.17</ele>
        <time>2014-05-15T14:16:35Z</time>
      </trkpt>
      <trkpt lat="43.75894" lon="5.1989">
        <ele>258.25</ele>
        <time>2014-05-15T14:16:42Z</time>
      </trkpt>
      <trkpt lat="43.75894" lon="5.1989">
        <ele>258.25</ele>
        <time>2014-05-15T14:16:52Z</time>
      </trkpt>
      <trkpt lat="43.75894" lon="5.1989">
        <ele>260.65</ele>
        <time>2014-05-15T14:17:10Z</time>
      </trkpt>
      <trkpt lat="43.75896" lon="5.19896">
        <ele>259.21</ele>
        <time>2014-05-15T14:17:36Z</time>
      </trkpt>
      <trkpt lat="43.75896" lon="5.19896">
        <ele>257.77</ele>
        <time>2014-05-15T14:17:39Z</time>
      </trkpt>
      <trkpt lat="43.75896" lon="5.19897">
        <ele>257.77</ele>
        <time>2014-05-15T14:18:02Z</time>
      </trkpt>
      <trkpt lat="43.75895" lon="5.19895">
        <ele>258.25</ele>
        <time>2014-05-15T14:18:19Z</time>
      </trkpt>
      <trkpt lat="43.75892" lon="5.19893">
        <ele>258.25</ele>
        <time>2014-05-15T14:18:36Z</time>
      </trkpt>
      <trkpt lat="43.75893" lon="5.19894">
        <ele>258.25</ele>
        <time>2014-05-15T14:18:56Z</time>
      </trkpt>
      <trkpt lat="43.75888" lon="5.19906">
        <ele>254.89</ele>
        <time>2014-05-15T14:19:10Z</time>
      </trkpt>
      <trkpt lat="43.75888" lon="5.19916">
        <ele>254.41</ele>
        <time>2014-05-15T14:19:27Z</time>
      </trkpt>
      <trkpt lat="43.75888" lon="5.19918">
        <ele>254.41</ele>
        <time>2014-05-15T14:19:45Z</time>
      </trkpt>
      <trkpt lat="43.75885" lon="5.19908">
        <ele>254.41</ele>
        <time>2014-05-15T14:20:02Z</time>
      </trkpt>
      <trkpt lat="43.7589" lon="5.19909">
        <ele>255.37</ele>
        <time>2014-05-15T14:20:10Z</time>
      </trkpt>
      <trkpt lat="43.75897" lon="5.19899">
        <ele>256.81</ele>
        <time>2014-05-15T14:20:24Z</time>
      </trkpt>
      <trkpt lat="43.75897" lon="5.19899">
        <ele>257.77</ele>
        <time>2014-05-15T14:20:46Z</time>
      </trkpt>
      <trkpt lat="43.75895" lon="5.19894">
        <ele>258.25</ele>
        <time>2014-05-15T14:21:01Z</time>
      </trkpt>
      <trkpt lat="43.75894" lon="5.19892">
        <ele>261.14</ele>
        <time>2014-05-15T14:21:10Z</time>
      </trkpt>
      <trkpt lat="43.75894" lon="5.19891">
        <ele>262.1</ele>
        <time>2014-05-15T14:21:22Z</time>
      </trkpt>
      <trkpt lat="43.75894" lon="5.19892">
        <ele>260.17</ele>
        <time>2014-05-15T14:21:25Z</time>
      </trkpt>
      <trkpt lat="43.75892" lon="5.1989">
        <ele>257.77</ele>
        <time>2014-05-15T14:21:36Z</time>
      </trkpt>
      <trkpt lat="43.75897" lon="5.19894">
        <ele>257.77</ele>
        <time>2014-05-15T14:21:49Z</time>
      </trkpt>
      <trkpt lat="43.75903" lon="5.19893">
        <ele>256.81</ele>
        <time>2014-05-15T14:22:09Z</time>
      </trkpt>
      <trkpt lat="43.7591" lon="5.19896">
        <ele>255.85</ele>
        <time>2014-05-15T14:22:19Z</time>
      </trkpt>
      <trkpt lat="43.75914" lon="5.19892">
        <ele>255.85</ele>
        <time>2014-05-15T14:22:25Z</time>
      </trkpt>
      <trkpt lat="43.75918" lon="5.19885">
        <ele>254.41</ele>
        <time>2014-05-15T14:22:30Z</time>
      </trkpt>
      <trkpt lat="43.75919" lon="5.19865">
        <ele>253.93</ele>
        <time>2014-05-15T14:22:46Z</time>
      </trkpt>
      <trkpt lat="43.75919" lon="5.19862">
        <ele>252.48</ele>
        <time>2014-05-15T14:22:49Z</time>
      </trkpt>
      <trkpt lat="43.75915" lon="5.19862">
        <ele>255.85</ele>
        <time>2014-05-15T14:23:00Z</time>
      </trkpt>
      <trkpt lat="43.75914" lon="5.19862">
        <ele>256.33</ele>
        <time>2014-05-15T14:23:01Z</time>
      </trkpt>
      <trkpt lat="43.7591" lon="5.19865">
        <ele>257.29</ele>
        <time>2014-05-15T14:23:17Z</time>
      </trkpt>
      <trkpt lat="43.7591" lon="5.19865">
        <ele>257.77</ele>
        <time>2014-05-15T14:23:19Z</time>
      </trkpt>
      <trkpt lat="43.75913" lon="5.19866">
        <ele>256.33</ele>
        <time>2014-05-15T14:23:41Z</time>
      </trkpt>
      <trkpt lat="43.75914" lon="5.19866">
        <ele>255.85</ele>
        <time>2014-05-15T14:23:52Z</time>
      </trkpt>
      <trkpt lat="43.75912" lon="5.19865">
        <ele>254.89</ele>
        <time>2014-05-15T14:24:10Z</time>
      </trkpt>
      <trkpt lat="43.75907" lon="5.19872">
        <ele>253.93</ele>
        <time>2014-05-15T14:24:30Z</time>
      </trkpt>
      <trkpt lat="43.75896" lon="5.19884">
        <ele>251.52</ele>
        <time>2014-05-15T14:24:47Z</time>
      </trkpt>
      <trkpt lat="43.75892" lon="5.19886">
        <ele>250.56</ele>
        <time>2014-05-15T14:25:05Z</time>
      </trkpt>
      <trkpt lat="43.75885" lon="5.19883">
        <ele>247.68</ele>
        <time>2014-05-15T14:25:22Z</time>
      </trkpt>
      <trkpt lat="43.75883" lon="5.19878">
        <ele>246.72</ele>
        <time>2014-05-15T14:25:37Z</time>
      </trkpt>
      <trkpt lat="43.75881" lon="5.19878">
        <ele>244.31</ele>
        <time>2014-05-15T14:25:54Z</time>
      </trkpt>
      <trkpt lat="43.75871" lon="5.19877">
        <ele>241.43</ele>
        <time>2014-05-15T14:26:10Z</time>
      </trkpt>
      <trkpt lat="43.75865" lon="5.19882">
        <ele>239.02</ele>
        <time>2014-05-15T14:26:27Z</time>
      </trkpt>
      <trkpt lat="43.75858" lon="5.19887">
        <ele>236.14</ele>
        <time>2014-05-15T14:26:43Z</time>
      </trkpt>
      <trkpt lat="43.75852" lon="5.19881">
        <ele>236.14</ele>
        <time>2014-05-15T14:27:02Z</time>
      </trkpt>
      <trkpt lat="43.7585" lon="5.19881">
        <ele>234.7</ele>
        <time>2014-05-15T14:27:23Z</time>
      </trkpt>
      <trkpt lat="43.75849" lon="5.19882">
        <ele>234.22</ele>
        <time>2014-05-15T14:27:28Z</time>
      </trkpt>
      <trkpt lat="43.75843" lon="5.19894">
        <ele>232.3</ele>
        <time>2014-05-15T14:27:42Z</time>
      </trkpt>
      <trkpt lat="43.75841" lon="5.19895">
        <ele>233.26</ele>
        <time>2014-05-15T14:28:00Z</time>
      </trkpt>
      <trkpt lat="43.75847" lon="5.19886">
        <ele>234.7</ele>
        <time>2014-05-15T14:28:23Z</time>
      </trkpt>
      <trkpt lat="43.75847" lon="5.19885">
        <ele>233.26</ele>
        <time>2014-05-15T14:28:37Z</time>
      </trkpt>
      <trkpt lat="43.75848" lon="5.19883">
        <ele>234.22</ele>
        <time>2014-05-15T14:28:40Z</time>
      </trkpt>
      <trkpt lat="43.75851" lon="5.19868">
        <ele>235.18</ele>
        <time>2014-05-15T14:28:55Z</time>
      </trkpt>
      <trkpt lat="43.75851" lon="5.19849">
        <ele>236.62</ele>
        <time>2014-05-15T14:29:11Z</time>
      </trkpt>
      <trkpt lat="43.75847" lon="5.19834">
        <ele>235.66</ele>
        <time>2014-05-15T14:29:30Z</time>
      </trkpt>
      <trkpt lat="43.7585" lon="5.19846">
        <ele>237.1</ele>
        <time>2014-05-15T14:29:44Z</time>
      </trkpt>
      <trkpt lat="43.75851" lon="5.19871">
        <ele>234.22</ele>
        <time>2014-05-15T14:30:03Z</time>
      </trkpt>
      <trkpt lat="43.75852" lon="5.19872">
        <ele>235.66</ele>
        <time>2014-05-15T14:30:20Z</time>
      </trkpt>
      <trkpt lat="43.75856" lon="5.19874">
        <ele>235.66</ele>
        <time>2014-05-15T14:30:41Z</time>
      </trkpt>
      <trkpt lat="43.75846" lon="5.19879">
        <ele>235.18</ele>
        <time>2014-05-15T14:31:01Z</time>
      </trkpt>
      <trkpt lat="43.75864" lon="5.19878">
        <ele>235.18</ele>
        <time>2014-05-15T14:31:25Z</time>
      </trkpt>
      <trkpt lat="43.75853" lon="5.19885">
        <ele>233.26</ele>
        <time>2014-05-15T14:31:46Z</time>
      </trkpt>
      <trkpt lat="43.75848" lon="5.19906">
        <ele>232.3</ele>
        <time>2014-05-15T14:32:05Z</time>
      </trkpt>
      <trkpt lat="43.75858" lon="5.1993">
        <ele>229.89</ele>
        <time>2014-05-15T14:32:25Z</time>
      </trkpt>
      <trkpt lat="43.75862" lon="5.19942">
        <ele>228.45</ele>
        <time>2014-05-15T14:32:44Z</time>
      </trkpt>
      <trkpt lat="43.75865" lon="5.19959">
        <ele>226.05</ele>
        <time>2014-05-15T14:32:59Z</time>
      </trkpt>
      <trkpt lat="43.75853" lon="5.19971">
        <ele>222.68</ele>
        <time>2014-05-15T14:33:16Z</time>
      </trkpt>
      <trkpt lat="43.75839" lon="5.19983">
        <ele>221.24</ele>
        <time>2014-05-15T14:33:37Z</time>
      </trkpt>
      <trkpt lat="43.75831" lon="5.19987">
        <ele>218.36</ele>
        <time>2014-05-15T14:33:46Z</time>
      </trkpt>
      <trkpt lat="43.75826" lon="5.19984">
        <ele>215.47</ele>
        <time>2014-05-15T14:33:51Z</time>
      </trkpt>
      <trkpt lat="43.7582" lon="5.19976">
        <ele>214.03</ele>
        <time>2014-05-15T14:34:10Z</time>
      </trkpt>
      <trkpt lat="43.75815" lon="5.19984">
        <ele>210.67</ele>
        <time>2014-05-15T14:34:27Z</time>
      </trkpt>
      <trkpt lat="43.75812" lon="5.1999">
        <ele>207.78</ele>
        <time>2014-05-15T14:34:48Z</time>
      </trkpt>
      <trkpt lat="43.75802" lon="5.20023">
        <ele>205.86</ele>
        <time>2014-05-15T14:35:07Z</time>
      </trkpt>
      <trkpt lat="43.75794" lon="5.20031">
        <ele>202.49</ele>
        <time>2014-05-15T14:35:17Z</time>
      </trkpt>
      <trkpt lat="43.75782" lon="5.20036">
        <ele>199.61</ele>
        <time>2014-05-15T14:35:33Z</time>
      </trkpt>
      <trkpt lat="43.7577" lon="5.20034">
        <ele>197.69</ele>
        <time>2014-05-15T14:35:48Z</time>
      </trkpt>
      <trkpt lat="43.75761" lon="5.20046">
        <ele>195.28</ele>
        <time>2014-05-15T14:36:05Z</time>
      </trkpt>
      <trkpt lat="43.75756" lon="5.20057">
        <ele>192.88</ele>
        <time>2014-05-15T14:36:17Z</time>
      </trkpt>
      <trkpt lat="43.7575" lon="5.20071">
        <ele>190</ele>
        <time>2014-05-15T14:36:35Z</time>
      </trkpt>
      <trkpt lat="43.75742" lon="5.20081">
        <ele>186.63</ele>
        <time>2014-05-15T14:36:51Z</time>
      </trkpt>
      <trkpt lat="43.75722" lon="5.20081">
        <ele>185.19</ele>
        <time>2014-05-15T14:37:08Z</time>
      </trkpt>
      <trkpt lat="43.75707" lon="5.20085">
        <ele>183.27</ele>
        <time>2014-05-15T14:37:27Z</time>
      </trkpt>
      <trkpt lat="43.75703" lon="5.20082">
        <ele>182.31</ele>
        <time>2014-05-15T14:37:42Z</time>
      </trkpt>
      <trkpt lat="43.75705" lon="5.20082">
        <ele>182.79</ele>
        <time>2014-05-15T14:38:01Z</time>
      </trkpt>
      <trkpt lat="43.75707" lon="5.20083">
        <ele>182.79</ele>
        <time>2014-05-15T14:38:28Z</time>
      </trkpt>
      <trkpt lat="43.75708" lon="5.20082">
        <ele>182.79</ele>
        <time>2014-05-15T14:38:50Z</time>
      </trkpt>
      <trkpt lat="43.75709" lon="5.2008">
        <ele>181.83</ele>
        <time>2014-05-15T14:39:13Z</time>
      </trkpt>
      <trkpt lat="43.75709" lon="5.20078">
        <ele>182.79</ele>
        <time>2014-05-15T14:39:36Z</time>
      </trkpt>
      <trkpt lat="43.75702" lon="5.20085">
        <ele>181.35</ele>
        <time>2014-05-15T14:39:56Z</time>
      </trkpt>
      <trkpt lat="43.75684" lon="5.20093">
        <ele>178.94</ele>
        <time>2014-05-15T14:40:13Z</time>
      </trkpt>
      <trkpt lat="43.75674" lon="5.20088">
        <ele>177.5</ele>
        <time>2014-05-15T14:40:29Z</time>
      </trkpt>
      <trkpt lat="43.75663" lon="5.20081">
        <ele>174.62</ele>
        <time>2014-05-15T14:40:45Z</time>
      </trkpt>
      <trkpt lat="43.7565" lon="5.20076">
        <ele>173.66</ele>
        <time>2014-05-15T14:41:00Z</time>
      </trkpt>
      <trkpt lat="43.75637" lon="5.20075">
        <ele>172.21</ele>
        <time>2014-05-15T14:41:16Z</time>
      </trkpt>
      <trkpt lat="43.75629" lon="5.20084">
        <ele>169.81</ele>
        <time>2014-05-15T14:41:31Z</time>
      </trkpt>
      <trkpt lat="43.7563" lon="5.20097">
        <ele>169.81</ele>
        <time>2014-05-15T14:41:45Z</time>
      </trkpt>
      <trkpt lat="43.75632" lon="5.20114">
        <ele>169.33</ele>
        <time>2014-05-15T14:42:01Z</time>
      </trkpt>
      <trkpt lat="43.7563" lon="5.20133">
        <ele>169.33</ele>
        <time>2014-05-15T14:42:17Z</time>
      </trkpt>
      <trkpt lat="43.75624" lon="5.20154">
        <ele>167.41</ele>
        <time>2014-05-15T14:42:35Z</time>
      </trkpt>
      <trkpt lat="43.7561" lon="5.20171">
        <ele>168.37</ele>
        <time>2014-05-15T14:42:54Z</time>
      </trkpt>
      <trkpt lat="43.75606" lon="5.20196">
        <ele>167.41</ele>
        <time>2014-05-15T14:43:14Z</time>
      </trkpt>
      <trkpt lat="43.75608" lon="5.20208">
        <ele>165.96</ele>
        <time>2014-05-15T14:43:31Z</time>
      </trkpt>
      <trkpt lat="43.75613" lon="5.20228">
        <ele>165</ele>
        <time>2014-05-15T14:43:51Z</time>
      </trkpt>
      <trkpt lat="43.75611" lon="5.20251">
        <ele>164.04</ele>
        <time>2014-05-15T14:44:08Z</time>
      </trkpt>
      <trkpt lat="43.75594" lon="5.20253">
        <ele>162.12</ele>
        <time>2014-05-15T14:44:29Z</time>
      </trkpt>
      <trkpt lat="43.75577" lon="5.2026">
        <ele>161.16</ele>
        <time>2014-05-15T14:44:46Z</time>
      </trkpt>
      <trkpt lat="43.75571" lon="5.20262">
        <ele>160.2</ele>
        <time>2014-05-15T14:44:53Z</time>
      </trkpt>
      <trkpt lat="43.7555" lon="5.20276">
        <ele>160.2</ele>
        <time>2014-05-15T14:45:14Z</time>
      </trkpt>
      <trkpt lat="43.75537" lon="5.20288">
        <ele>159.72</ele>
        <time>2014-05-15T14:45:31Z</time>
      </trkpt>
      <trkpt lat="43.75513" lon="5.20304">
        <ele>159.72</ele>
        <time>2014-05-15T14:45:52Z</time>
      </trkpt>
      <trkpt lat="43.75495" lon="5.20308">
        <ele>158.75</ele>
        <time>2014-05-15T14:46:09Z</time>
      </trkpt>
      <trkpt lat="43.75478" lon="5.20307">
        <ele>157.79</ele>
        <time>2014-05-15T14:46:26Z</time>
      </trkpt>
      <trkpt lat="43.75463" lon="5.20307">
        <ele>155.87</ele>
        <time>2014-05-15T14:46:42Z</time>
      </trkpt>
      <trkpt lat="43.75447" lon="5.20302">
        <ele>153.95</ele>
        <time>2014-05-15T14:46:58Z</time>
      </trkpt>
      <trkpt lat="43.7544" lon="5.20304">
        <ele>155.39</ele>
        <time>2014-05-15T14:47:05Z</time>
      </trkpt>
      <trkpt lat="43.75428" lon="5.20298">
        <ele>153.95</ele>
        <time>2014-05-15T14:47:19Z</time>
      </trkpt>
      <trkpt lat="43.7543" lon="5.20287">
        <ele>154.43</ele>
        <time>2014-05-15T14:47:33Z</time>
      </trkpt>
      <trkpt lat="43.75425" lon="5.20284">
        <ele>153.95</ele>
        <time>2014-05-15T14:47:46Z</time>
      </trkpt>
      <trkpt lat="43.75432" lon="5.2028">
        <ele>154.43</ele>
        <time>2014-05-15T14:47:58Z</time>
      </trkpt>
      <trkpt lat="43.75433" lon="5.20281">
        <ele>155.39</ele>
        <time>2014-05-15T14:48:22Z</time>
      </trkpt>
    </trkseg>
  </trk>
</gpx>